<?xml version='1.0' encoding='UTF-8'?>
<gpx version="1.1" creator="https://www.komoot.de" xmlns="http://www.topografix.com/GPX/1/1" xmlns:xsi="http://www.w3.org/2001/XMLSchema-instance" xsi:schemaLocation="http://www.topografix.com/GPX/1/1 http://www.topografix.com/GPX/1/1/gpx.xsd">
  <metadata>
    <name>Sen2026/4 Hohenloher Residenzweg Tauber</name>
    <author>
      <link href="https://www.komoot.de">
        <text>komoot</text>
        <type>text/html</type>
      </link>
    </author>
  </metadata>
  <wpt lat="49.376648" lon="10.168350">
    <name>Topplerschlösschen</name>
    <sym>Flag, Blue</sym>
  </wpt>
  <wpt lat="49.446903" lon="10.112988">
    <name>Blick auf Tauberzell</name>
    <sym>Flag, Blue</sym>
  </wpt>
  <wpt lat="49.509743" lon="9.969261">
    <name>Marktplatz Röttingen</name>
    <sym>Shopping Center</sym>
  </wpt>
  <wpt lat="49.481879" lon="9.897406">
    <name>Heiliges Wöhr</name>
    <sym>Flag, Blue</sym>
  </wpt>
  <wpt lat="49.480634" lon="9.897984">
    <name>Marktplatz Weikersheim</name>
    <sym>Shopping Center</sym>
  </wpt>
  <wpt lat="49.401290" lon="9.917819">
    <name>Schimmelturm Niederstetten</name>
    <sym>Flag, Blue</sym>
  </wpt>
  <trk>
    <name>Sen2026/4 Hohenloher Residenzweg Tauber</name>
    <trkseg>
      <trkpt lat="49.380033" lon="10.185787">
        <ele>437.290661</ele>
        <time>2026-04-26T14:34:33.489Z</time>
      </trkpt>
      <trkpt lat="49.379992" lon="10.185575">
        <ele>437.290661</ele>
        <time>2026-04-26T14:34:36.475Z</time>
      </trkpt>
      <trkpt lat="49.379981" lon="10.185519">
        <ele>437.290661</ele>
        <time>2026-04-26T14:34:37.268Z</time>
      </trkpt>
      <trkpt lat="49.379942" lon="10.185334">
        <ele>437.290661</ele>
        <time>2026-04-26T14:34:39.759Z</time>
      </trkpt>
      <trkpt lat="49.379897" lon="10.185137">
        <ele>437.290661</ele>
        <time>2026-04-26T14:34:42.365Z</time>
      </trkpt>
      <trkpt lat="49.379886" lon="10.185097">
        <ele>437.290661</ele>
        <time>2026-04-26T14:34:42.901Z</time>
      </trkpt>
      <trkpt lat="49.379763" lon="10.184610">
        <ele>437.290661</ele>
        <time>2026-04-26T14:34:49.087Z</time>
      </trkpt>
      <trkpt lat="49.379703" lon="10.184505">
        <ele>437.276213</ele>
        <time>2026-04-26T14:34:50.743Z</time>
      </trkpt>
      <trkpt lat="49.379663" lon="10.184553">
        <ele>437.115596</ele>
        <time>2026-04-26T14:34:51.628Z</time>
      </trkpt>
      <trkpt lat="49.378829" lon="10.184974">
        <ele>434.337760</ele>
        <time>2026-04-26T14:35:05.698Z</time>
      </trkpt>
      <trkpt lat="49.378541" lon="10.185064">
        <ele>433.407790</ele>
        <time>2026-04-26T14:35:10.305Z</time>
      </trkpt>
      <trkpt lat="49.378017" lon="10.185023">
        <ele>431.747581</ele>
        <time>2026-04-26T14:35:18.696Z</time>
      </trkpt>
      <trkpt lat="49.377804" lon="10.185002">
        <ele>431.258086</ele>
        <time>2026-04-26T14:35:22.253Z</time>
      </trkpt>
      <trkpt lat="49.377254" lon="10.184931">
        <ele>430.127469</ele>
        <time>2026-04-26T14:35:32.004Z</time>
      </trkpt>
      <trkpt lat="49.376725" lon="10.184788">
        <ele>429.027186</ele>
        <time>2026-04-26T14:35:42.132Z</time>
      </trkpt>
      <trkpt lat="49.376492" lon="10.184839">
        <ele>428.545076</ele>
        <time>2026-04-26T14:35:46.539Z</time>
      </trkpt>
      <trkpt lat="49.376438" lon="10.184838">
        <ele>428.434452</ele>
        <time>2026-04-26T14:35:47.521Z</time>
      </trkpt>
      <trkpt lat="49.376421" lon="10.184877">
        <ele>428.371857</ele>
        <time>2026-04-26T14:35:48.075Z</time>
      </trkpt>
      <trkpt lat="49.376395" lon="10.184946">
        <ele>428.265529</ele>
        <time>2026-04-26T14:35:49.006Z</time>
      </trkpt>
      <trkpt lat="49.376224" lon="10.185595">
        <ele>426.995803</ele>
        <time>2026-04-26T14:35:56.784Z</time>
      </trkpt>
      <trkpt lat="49.376207" lon="10.185665">
        <ele>426.838754</ele>
        <time>2026-04-26T14:35:57.570Z</time>
      </trkpt>
      <trkpt lat="49.376198" lon="10.185711">
        <ele>426.737787</ele>
        <time>2026-04-26T14:35:58.077Z</time>
      </trkpt>
      <trkpt lat="49.376059" lon="10.185779">
        <ele>426.266803</ele>
        <time>2026-04-26T14:36:00.451Z</time>
      </trkpt>
      <trkpt lat="49.376012" lon="10.185804">
        <ele>426.106219</ele>
        <time>2026-04-26T14:36:01.253Z</time>
      </trkpt>
      <trkpt lat="49.375768" lon="10.185936">
        <ele>425.271012</ele>
        <time>2026-04-26T14:36:05.406Z</time>
      </trkpt>
      <trkpt lat="49.375148" lon="10.186276">
        <ele>423.145539</ele>
        <time>2026-04-26T14:36:15.794Z</time>
      </trkpt>
      <trkpt lat="49.374910" lon="10.186407">
        <ele>422.329288</ele>
        <time>2026-04-26T14:36:19.805Z</time>
      </trkpt>
      <trkpt lat="49.374580" lon="10.186595">
        <ele>421.482581</ele>
        <time>2026-04-26T14:36:25.482Z</time>
      </trkpt>
      <trkpt lat="49.374557" lon="10.186520">
        <ele>421.363478</ele>
        <time>2026-04-26T14:36:26.375Z</time>
      </trkpt>
      <trkpt lat="49.374515" lon="10.186557">
        <ele>421.256642</ele>
        <time>2026-04-26T14:36:27.190Z</time>
      </trkpt>
      <trkpt lat="49.374458" lon="10.186611">
        <ele>421.108870</ele>
        <time>2026-04-26T14:36:28.297Z</time>
      </trkpt>
      <trkpt lat="49.374144" lon="10.186908">
        <ele>420.295183</ele>
        <time>2026-04-26T14:36:34.715Z</time>
      </trkpt>
      <trkpt lat="49.374048" lon="10.186944">
        <ele>420.077137</ele>
        <time>2026-04-26T14:36:36.491Z</time>
      </trkpt>
      <trkpt lat="49.373962" lon="10.186914">
        <ele>419.882547</ele>
        <time>2026-04-26T14:36:38.066Z</time>
      </trkpt>
      <trkpt lat="49.373768" lon="10.186662">
        <ele>419.321913</ele>
        <time>2026-04-26T14:36:42.649Z</time>
      </trkpt>
      <trkpt lat="49.372576" lon="10.185114">
        <ele>416.509164</ele>
        <time>2026-04-26T14:37:11.108Z</time>
      </trkpt>
      <trkpt lat="49.372485" lon="10.184542">
        <ele>415.899448</ele>
        <time>2026-04-26T14:37:18.226Z</time>
      </trkpt>
      <trkpt lat="49.372373" lon="10.184052">
        <ele>415.361710</ele>
        <time>2026-04-26T14:37:24.385Z</time>
      </trkpt>
      <trkpt lat="49.372275" lon="10.183764">
        <ele>414.770746</ele>
        <time>2026-04-26T14:37:28.202Z</time>
      </trkpt>
      <trkpt lat="49.372055" lon="10.183321">
        <ele>413.615118</ele>
        <time>2026-04-26T14:37:34.685Z</time>
      </trkpt>
      <trkpt lat="49.371781" lon="10.182927">
        <ele>412.419408</ele>
        <time>2026-04-26T14:37:41.182Z</time>
      </trkpt>
      <trkpt lat="49.371381" lon="10.182553">
        <ele>410.927628</ele>
        <time>2026-04-26T14:37:48.921Z</time>
      </trkpt>
      <trkpt lat="49.371186" lon="10.182437">
        <ele>410.261480</ele>
        <time>2026-04-26T14:37:52.179Z</time>
      </trkpt>
      <trkpt lat="49.370932" lon="10.182300">
        <ele>409.157753</ele>
        <time>2026-04-26T14:37:56.196Z</time>
      </trkpt>
      <trkpt lat="49.370754" lon="10.182154">
        <ele>407.426702</ele>
        <time>2026-04-26T14:37:59.126Z</time>
      </trkpt>
      <trkpt lat="49.370589" lon="10.182154">
        <ele>406.011305</ele>
        <time>2026-04-26T14:38:01.479Z</time>
      </trkpt>
      <trkpt lat="49.370533" lon="10.182165">
        <ele>405.527014</ele>
        <time>2026-04-26T14:38:02.278Z</time>
      </trkpt>
      <trkpt lat="49.370426" lon="10.182156">
        <ele>404.607775</ele>
        <time>2026-04-26T14:38:03.783Z</time>
      </trkpt>
      <trkpt lat="49.370398" lon="10.181740">
        <ele>402.271698</ele>
        <time>2026-04-26T14:38:07.541Z</time>
      </trkpt>
      <trkpt lat="49.370397" lon="10.181389">
        <ele>400.311059</ele>
        <time>2026-04-26T14:38:10.606Z</time>
      </trkpt>
      <trkpt lat="49.370418" lon="10.181179">
        <ele>399.124287</ele>
        <time>2026-04-26T14:38:12.449Z</time>
      </trkpt>
      <trkpt lat="49.370434" lon="10.181058">
        <ele>398.434610</ele>
        <time>2026-04-26T14:38:13.508Z</time>
      </trkpt>
      <trkpt lat="49.370458" lon="10.180897">
        <ele>397.512031</ele>
        <time>2026-04-26T14:38:14.924Z</time>
      </trkpt>
      <trkpt lat="49.370470" lon="10.180826">
        <ele>397.102297</ele>
        <time>2026-04-26T14:38:15.561Z</time>
      </trkpt>
      <trkpt lat="49.370483" lon="10.180762">
        <ele>396.727816</ele>
        <time>2026-04-26T14:38:16.137Z</time>
      </trkpt>
      <trkpt lat="49.370566" lon="10.180287">
        <ele>394.079161</ele>
        <time>2026-04-26T14:38:20.435Z</time>
      </trkpt>
      <trkpt lat="49.370440" lon="10.179689">
        <ele>393.045253</ele>
        <time>2026-04-26T14:38:26.434Z</time>
      </trkpt>
      <trkpt lat="49.370453" lon="10.179329">
        <ele>392.452153</ele>
        <time>2026-04-26T14:38:30.452Z</time>
      </trkpt>
      <trkpt lat="49.370504" lon="10.178976">
        <ele>391.857357</ele>
        <time>2026-04-26T14:38:34.741Z</time>
      </trkpt>
      <trkpt lat="49.370556" lon="10.178921">
        <ele>391.697853</ele>
        <time>2026-04-26T14:38:36.020Z</time>
      </trkpt>
      <trkpt lat="49.370876" lon="10.178798">
        <ele>390.864534</ele>
        <time>2026-04-26T14:38:42.604Z</time>
      </trkpt>
      <trkpt lat="49.371144" lon="10.178646">
        <ele>390.142818</ele>
        <time>2026-04-26T14:38:49.905Z</time>
      </trkpt>
      <trkpt lat="49.371471" lon="10.178437">
        <ele>389.266634</ele>
        <time>2026-04-26T14:39:01.274Z</time>
      </trkpt>
      <trkpt lat="49.371643" lon="10.178210">
        <ele>388.726111</ele>
        <time>2026-04-26T14:39:08.319Z</time>
      </trkpt>
      <trkpt lat="49.371828" lon="10.177966">
        <ele>388.144893</ele>
        <time>2026-04-26T14:39:13.445Z</time>
      </trkpt>
      <trkpt lat="49.371933" lon="10.177882">
        <ele>387.862718</ele>
        <time>2026-04-26T14:39:15.464Z</time>
      </trkpt>
      <trkpt lat="49.372037" lon="10.177857">
        <ele>387.611826</ele>
        <time>2026-04-26T14:39:17.146Z</time>
      </trkpt>
      <trkpt lat="49.372205" lon="10.177943">
        <ele>387.189756</ele>
        <time>2026-04-26T14:39:19.871Z</time>
      </trkpt>
      <trkpt lat="49.372375" lon="10.178097">
        <ele>386.719342</ele>
        <time>2026-04-26T14:39:22.946Z</time>
      </trkpt>
      <trkpt lat="49.372967" lon="10.178791">
        <ele>384.476316</ele>
        <time>2026-04-26T14:39:34.601Z</time>
      </trkpt>
      <trkpt lat="49.373150" lon="10.178944">
        <ele>383.306824</ele>
        <time>2026-04-26T14:39:37.664Z</time>
      </trkpt>
      <trkpt lat="49.373470" lon="10.179121">
        <ele>381.397773</ele>
        <time>2026-04-26T14:39:42.578Z</time>
      </trkpt>
      <trkpt lat="49.373804" lon="10.179190">
        <ele>379.506195</ele>
        <time>2026-04-26T14:39:47.462Z</time>
      </trkpt>
      <trkpt lat="49.373915" lon="10.179174">
        <ele>378.880431</ele>
        <time>2026-04-26T14:39:49.090Z</time>
      </trkpt>
      <trkpt lat="49.374016" lon="10.179116">
        <ele>378.275200</ele>
        <time>2026-04-26T14:39:50.701Z</time>
      </trkpt>
      <trkpt lat="49.374089" lon="10.179003">
        <ele>377.693450</ele>
        <time>2026-04-26T14:39:52.278Z</time>
      </trkpt>
      <trkpt lat="49.374095" lon="10.178975">
        <ele>377.585722</ele>
        <time>2026-04-26T14:39:52.562Z</time>
      </trkpt>
      <trkpt lat="49.374113" lon="10.178887">
        <ele>377.248619</ele>
        <time>2026-04-26T14:39:53.444Z</time>
      </trkpt>
      <trkpt lat="49.374110" lon="10.178802">
        <ele>376.937519</ele>
        <time>2026-04-26T14:39:54.294Z</time>
      </trkpt>
      <trkpt lat="49.374106" lon="10.178780">
        <ele>376.854042</ele>
        <time>2026-04-26T14:39:54.520Z</time>
      </trkpt>
      <trkpt lat="49.374077" lon="10.178672">
        <ele>376.427096</ele>
        <time>2026-04-26T14:39:55.645Z</time>
      </trkpt>
      <trkpt lat="49.373980" lon="10.178539">
        <ele>375.697245</ele>
        <time>2026-04-26T14:39:57.582Z</time>
      </trkpt>
      <trkpt lat="49.373483" lon="10.178314">
        <ele>373.122514</ele>
        <time>2026-04-26T14:40:05.203Z</time>
      </trkpt>
      <trkpt lat="49.373077" lon="10.178021">
        <ele>370.953803</ele>
        <time>2026-04-26T14:40:12.160Z</time>
      </trkpt>
      <trkpt lat="49.372776" lon="10.177672">
        <ele>369.130475</ele>
        <time>2026-04-26T14:40:18.403Z</time>
      </trkpt>
      <trkpt lat="49.372290" lon="10.177009">
        <ele>366.157848</ele>
        <time>2026-04-26T14:40:28.201Z</time>
      </trkpt>
      <trkpt lat="49.372170" lon="10.176836">
        <ele>365.627036</ele>
        <time>2026-04-26T14:40:30.522Z</time>
      </trkpt>
      <trkpt lat="49.372265" lon="10.176718">
        <ele>365.232988</ele>
        <time>2026-04-26T14:40:32.317Z</time>
      </trkpt>
      <trkpt lat="49.372303" lon="10.176669">
        <ele>365.072964</ele>
        <time>2026-04-26T14:40:33.055Z</time>
      </trkpt>
      <trkpt lat="49.373200" lon="10.175885">
        <ele>361.744396</ele>
        <time>2026-04-26T14:40:49.756Z</time>
      </trkpt>
      <trkpt lat="49.373255" lon="10.175835">
        <ele>361.538270</ele>
        <time>2026-04-26T14:40:51.079Z</time>
      </trkpt>
      <trkpt lat="49.373297" lon="10.175794">
        <ele>361.377770</ele>
        <time>2026-04-26T14:40:52.160Z</time>
      </trkpt>
      <trkpt lat="49.373519" lon="10.175515">
        <ele>361.085532</ele>
        <time>2026-04-26T14:41:00.072Z</time>
      </trkpt>
      <trkpt lat="49.373753" lon="10.174804">
        <ele>363.730981</ele>
        <time>2026-04-26T14:41:20.876Z</time>
      </trkpt>
      <trkpt lat="49.373799" lon="10.174485">
        <ele>364.815934</ele>
        <time>2026-04-26T14:41:31.821Z</time>
      </trkpt>
      <trkpt lat="49.373776" lon="10.174292">
        <ele>365.467465</ele>
        <time>2026-04-26T14:41:38.804Z</time>
      </trkpt>
      <trkpt lat="49.373501" lon="10.173311">
        <ele>369.014104</ele>
        <time>2026-04-26T14:42:15.053Z</time>
      </trkpt>
      <trkpt lat="49.373340" lon="10.172531">
        <ele>369.814280</ele>
        <time>2026-04-26T14:42:37.350Z</time>
      </trkpt>
      <trkpt lat="49.373285" lon="10.172176">
        <ele>369.777535</ele>
        <time>2026-04-26T14:42:45.729Z</time>
      </trkpt>
      <trkpt lat="49.373303" lon="10.171941">
        <ele>369.753708</ele>
        <time>2026-04-26T14:42:50.338Z</time>
      </trkpt>
      <trkpt lat="49.373343" lon="10.171690">
        <ele>369.727687</ele>
        <time>2026-04-26T14:42:54.452Z</time>
      </trkpt>
      <trkpt lat="49.373380" lon="10.170864">
        <ele>369.644314</ele>
        <time>2026-04-26T14:43:03.581Z</time>
      </trkpt>
      <trkpt lat="49.373463" lon="10.170462">
        <ele>369.601847</ele>
        <time>2026-04-26T14:43:07.594Z</time>
      </trkpt>
      <trkpt lat="49.373552" lon="10.170200">
        <ele>368.667126</ele>
        <time>2026-04-26T14:43:10.456Z</time>
      </trkpt>
      <trkpt lat="49.373809" lon="10.169787">
        <ele>366.063769</ele>
        <time>2026-04-26T14:43:15.884Z</time>
      </trkpt>
      <trkpt lat="49.374067" lon="10.169187">
        <ele>362.787107</ele>
        <time>2026-04-26T14:43:22.428Z</time>
      </trkpt>
      <trkpt lat="49.374195" lon="10.168945">
        <ele>361.366294</ele>
        <time>2026-04-26T14:43:25.226Z</time>
      </trkpt>
      <trkpt lat="49.374389" lon="10.168614">
        <ele>359.336833</ele>
        <time>2026-04-26T14:43:29.230Z</time>
      </trkpt>
      <trkpt lat="49.374886" lon="10.168096">
        <ele>355.610072</ele>
        <time>2026-04-26T14:43:37.957Z</time>
      </trkpt>
      <trkpt lat="49.375042" lon="10.168023">
        <ele>354.759652</ele>
        <time>2026-04-26T14:43:40.541Z</time>
      </trkpt>
      <trkpt lat="49.375419" lon="10.167947">
        <ele>352.776835</ele>
        <time>2026-04-26T14:43:46.216Z</time>
      </trkpt>
      <trkpt lat="49.375745" lon="10.167777">
        <ele>350.981516</ele>
        <time>2026-04-26T14:43:51.298Z</time>
      </trkpt>
      <trkpt lat="49.376043" lon="10.167785">
        <ele>349.427288</ele>
        <time>2026-04-26T14:43:55.832Z</time>
      </trkpt>
      <trkpt lat="49.376343" lon="10.167968">
        <ele>347.743999</ele>
        <time>2026-04-26T14:44:00.882Z</time>
      </trkpt>
      <trkpt lat="49.376602" lon="10.168349">
        <ele>346.717368</ele>
        <time>2026-04-26T14:44:06.667Z</time>
      </trkpt>
      <trkpt lat="49.376620" lon="10.168384">
        <ele>346.638890</ele>
        <time>2026-04-26T14:44:07.136Z</time>
      </trkpt>
      <trkpt lat="49.376644" lon="10.168431">
        <ele>346.533791</ele>
        <time>2026-04-26T14:44:07.781Z</time>
      </trkpt>
      <trkpt lat="49.376689" lon="10.168623">
        <ele>346.174738</ele>
        <time>2026-04-26T14:44:09.910Z</time>
      </trkpt>
      <trkpt lat="49.376652" lon="10.168833">
        <ele>345.791945</ele>
        <time>2026-04-26T14:44:12.153Z</time>
      </trkpt>
      <trkpt lat="49.376627" lon="10.168905">
        <ele>345.648369</ele>
        <time>2026-04-26T14:44:13.010Z</time>
      </trkpt>
      <trkpt lat="49.376610" lon="10.168990">
        <ele>345.491911</ele>
        <time>2026-04-26T14:44:13.904Z</time>
      </trkpt>
      <trkpt lat="49.376593" lon="10.169280">
        <ele>344.979581</ele>
        <time>2026-04-26T14:44:16.876Z</time>
      </trkpt>
      <trkpt lat="49.376625" lon="10.169407">
        <ele>344.739970</ele>
        <time>2026-04-26T14:44:18.299Z</time>
      </trkpt>
      <trkpt lat="49.376787" lon="10.169582">
        <ele>344.204729</ele>
        <time>2026-04-26T14:44:21.542Z</time>
      </trkpt>
      <trkpt lat="49.376931" lon="10.169787">
        <ele>343.674117</ele>
        <time>2026-04-26T14:44:24.994Z</time>
      </trkpt>
      <trkpt lat="49.377094" lon="10.170118">
        <ele>342.943887</ele>
        <time>2026-04-26T14:44:30.561Z</time>
      </trkpt>
      <trkpt lat="49.377207" lon="10.170479">
        <ele>342.874625</ele>
        <time>2026-04-26T14:44:36.154Z</time>
      </trkpt>
      <trkpt lat="49.377348" lon="10.171155">
        <ele>343.137889</ele>
        <time>2026-04-26T14:44:47.445Z</time>
      </trkpt>
      <trkpt lat="49.377468" lon="10.172024">
        <ele>343.467351</ele>
        <time>2026-04-26T14:45:02.241Z</time>
      </trkpt>
      <trkpt lat="49.377606" lon="10.172531">
        <ele>343.671155</ele>
        <time>2026-04-26T14:45:12.542Z</time>
      </trkpt>
      <trkpt lat="49.377891" lon="10.173087">
        <ele>343.714547</ele>
        <time>2026-04-26T14:45:24.671Z</time>
      </trkpt>
      <trkpt lat="49.378149" lon="10.173332">
        <ele>343.626366</ele>
        <time>2026-04-26T14:45:31.993Z</time>
      </trkpt>
      <trkpt lat="49.378232" lon="10.173380">
        <ele>343.600584</ele>
        <time>2026-04-26T14:45:34.140Z</time>
      </trkpt>
      <trkpt lat="49.378406" lon="10.173462">
        <ele>343.547673</ele>
        <time>2026-04-26T14:45:38.432Z</time>
      </trkpt>
      <trkpt lat="49.378616" lon="10.173505">
        <ele>343.486083</ele>
        <time>2026-04-26T14:45:43.197Z</time>
      </trkpt>
      <trkpt lat="49.378722" lon="10.173481">
        <ele>343.454935</ele>
        <time>2026-04-26T14:45:45.406Z</time>
      </trkpt>
      <trkpt lat="49.378841" lon="10.173397">
        <ele>343.416862</ele>
        <time>2026-04-26T14:45:47.942Z</time>
      </trkpt>
      <trkpt lat="49.379380" lon="10.172675">
        <ele>342.988967</ele>
        <time>2026-04-26T14:46:00.751Z</time>
      </trkpt>
      <trkpt lat="49.379456" lon="10.172571">
        <ele>342.844627</ele>
        <time>2026-04-26T14:46:02.501Z</time>
      </trkpt>
      <trkpt lat="49.379480" lon="10.172482">
        <ele>342.755690</ele>
        <time>2026-04-26T14:46:03.602Z</time>
      </trkpt>
      <trkpt lat="49.379493" lon="10.172375">
        <ele>342.655199</ele>
        <time>2026-04-26T14:46:04.825Z</time>
      </trkpt>
      <trkpt lat="49.379553" lon="10.172208">
        <ele>342.479101</ele>
        <time>2026-04-26T14:46:07.041Z</time>
      </trkpt>
      <trkpt lat="49.379957" lon="10.171743">
        <ele>341.763201</ele>
        <time>2026-04-26T14:46:16.218Z</time>
      </trkpt>
      <trkpt lat="49.380431" lon="10.170849">
        <ele>340.707431</ele>
        <time>2026-04-26T14:46:30.333Z</time>
      </trkpt>
      <trkpt lat="49.380570" lon="10.170648">
        <ele>340.580504</ele>
        <time>2026-04-26T14:46:34.247Z</time>
      </trkpt>
      <trkpt lat="49.380741" lon="10.170476">
        <ele>340.444602</ele>
        <time>2026-04-26T14:46:38.840Z</time>
      </trkpt>
      <trkpt lat="49.380989" lon="10.170346">
        <ele>340.270376</ele>
        <time>2026-04-26T14:46:44.365Z</time>
      </trkpt>
      <trkpt lat="49.381068" lon="10.170283">
        <ele>340.211194</ele>
        <time>2026-04-26T14:46:46.272Z</time>
      </trkpt>
      <trkpt lat="49.381183" lon="10.170195">
        <ele>340.125771</ele>
        <time>2026-04-26T14:46:48.964Z</time>
      </trkpt>
      <trkpt lat="49.381382" lon="10.170077">
        <ele>339.983945</ele>
        <time>2026-04-26T14:46:53.565Z</time>
      </trkpt>
      <trkpt lat="49.381651" lon="10.170108">
        <ele>339.804591</ele>
        <time>2026-04-26T14:46:59.185Z</time>
      </trkpt>
      <trkpt lat="49.381633" lon="10.170209">
        <ele>339.759265</ele>
        <time>2026-04-26T14:47:00.519Z</time>
      </trkpt>
      <trkpt lat="49.381628" lon="10.170269">
        <ele>339.733083</ele>
        <time>2026-04-26T14:47:01.371Z</time>
      </trkpt>
      <trkpt lat="49.381629" lon="10.170663">
        <ele>339.562541</ele>
        <time>2026-04-26T14:47:06.186Z</time>
      </trkpt>
      <trkpt lat="49.381669" lon="10.170946">
        <ele>339.357638</ele>
        <time>2026-04-26T14:47:09.742Z</time>
      </trkpt>
      <trkpt lat="49.381725" lon="10.171172">
        <ele>339.151440</ele>
        <time>2026-04-26T14:47:12.624Z</time>
      </trkpt>
      <trkpt lat="49.381862" lon="10.171120">
        <ele>338.966601</ele>
        <time>2026-04-26T14:47:15.186Z</time>
      </trkpt>
      <trkpt lat="49.382080" lon="10.171037">
        <ele>338.672424</ele>
        <time>2026-04-26T14:47:19.340Z</time>
      </trkpt>
      <trkpt lat="49.382130" lon="10.171017">
        <ele>338.604750</ele>
        <time>2026-04-26T14:47:20.295Z</time>
      </trkpt>
      <trkpt lat="49.382899" lon="10.170722">
        <ele>337.566579</ele>
        <time>2026-04-26T14:47:34.996Z</time>
      </trkpt>
      <trkpt lat="49.383478" lon="10.170462">
        <ele>336.930211</ele>
        <time>2026-04-26T14:47:46.141Z</time>
      </trkpt>
      <trkpt lat="49.383648" lon="10.170361">
        <ele>336.786346</ele>
        <time>2026-04-26T14:47:49.580Z</time>
      </trkpt>
      <trkpt lat="49.383680" lon="10.170342">
        <ele>336.759268</ele>
        <time>2026-04-26T14:47:50.228Z</time>
      </trkpt>
      <trkpt lat="49.383779" lon="10.170243">
        <ele>336.666030</ele>
        <time>2026-04-26T14:47:52.572Z</time>
      </trkpt>
      <trkpt lat="49.383972" lon="10.170028">
        <ele>336.477858</ele>
        <time>2026-04-26T14:47:57.490Z</time>
      </trkpt>
      <trkpt lat="49.384171" lon="10.169781">
        <ele>336.275925</ele>
        <time>2026-04-26T14:48:02.714Z</time>
      </trkpt>
      <trkpt lat="49.384448" lon="10.169411">
        <ele>335.986197</ele>
        <time>2026-04-26T14:48:10.291Z</time>
      </trkpt>
      <trkpt lat="49.384592" lon="10.169306">
        <ele>335.860386</ele>
        <time>2026-04-26T14:48:13.651Z</time>
      </trkpt>
      <trkpt lat="49.384904" lon="10.169173">
        <ele>335.564177</ele>
        <time>2026-04-26T14:48:20.406Z</time>
      </trkpt>
      <trkpt lat="49.385269" lon="10.168759">
        <ele>335.101258</ele>
        <time>2026-04-26T14:48:29.347Z</time>
      </trkpt>
      <trkpt lat="49.385668" lon="10.168386">
        <ele>334.624709</ele>
        <time>2026-04-26T14:48:38.084Z</time>
      </trkpt>
      <trkpt lat="49.385830" lon="10.168152">
        <ele>334.397831</ele>
        <time>2026-04-26T14:48:42.151Z</time>
      </trkpt>
      <trkpt lat="49.386072" lon="10.167950">
        <ele>334.116826</ele>
        <time>2026-04-26T14:48:47.312Z</time>
      </trkpt>
      <trkpt lat="49.386122" lon="10.167814">
        <ele>334.013089</ele>
        <time>2026-04-26T14:48:49.267Z</time>
      </trkpt>
      <trkpt lat="49.386183" lon="10.167650">
        <ele>333.893232</ele>
        <time>2026-04-26T14:48:51.652Z</time>
      </trkpt>
      <trkpt lat="49.386199" lon="10.167606">
        <ele>333.868703</ele>
        <time>2026-04-26T14:48:52.320Z</time>
      </trkpt>
      <trkpt lat="49.386256" lon="10.167516">
        <ele>333.807592</ele>
        <time>2026-04-26T14:48:53.911Z</time>
      </trkpt>
      <trkpt lat="49.386313" lon="10.167425">
        <ele>333.746131</ele>
        <time>2026-04-26T14:48:55.493Z</time>
      </trkpt>
      <trkpt lat="49.386397" lon="10.167305">
        <ele>333.660371</ele>
        <time>2026-04-26T14:48:57.664Z</time>
      </trkpt>
      <trkpt lat="49.386528" lon="10.167317">
        <ele>333.562257</ele>
        <time>2026-04-26T14:49:00.144Z</time>
      </trkpt>
      <trkpt lat="49.386559" lon="10.167175">
        <ele>333.489367</ele>
        <time>2026-04-26T14:49:01.961Z</time>
      </trkpt>
      <trkpt lat="49.386598" lon="10.167111">
        <ele>333.446701</ele>
        <time>2026-04-26T14:49:03.001Z</time>
      </trkpt>
      <trkpt lat="49.386676" lon="10.167082">
        <ele>333.386702</ele>
        <time>2026-04-26T14:49:04.520Z</time>
      </trkpt>
      <trkpt lat="49.387020" lon="10.167101">
        <ele>333.129350</ele>
        <time>2026-04-26T14:49:11.336Z</time>
      </trkpt>
      <trkpt lat="49.387204" lon="10.167119">
        <ele>332.991506</ele>
        <time>2026-04-26T14:49:15.346Z</time>
      </trkpt>
      <trkpt lat="49.387414" lon="10.167117">
        <ele>332.834500</ele>
        <time>2026-04-26T14:49:19.959Z</time>
      </trkpt>
      <trkpt lat="49.387521" lon="10.167081">
        <ele>332.752607</ele>
        <time>2026-04-26T14:49:22.371Z</time>
      </trkpt>
      <trkpt lat="49.387608" lon="10.166914">
        <ele>332.648511</ele>
        <time>2026-04-26T14:49:25.336Z</time>
      </trkpt>
      <trkpt lat="49.387609" lon="10.166731">
        <ele>332.564152</ele>
        <time>2026-04-26T14:49:27.844Z</time>
      </trkpt>
      <trkpt lat="49.387604" lon="10.166343">
        <ele>332.577609</ele>
        <time>2026-04-26T14:49:32.915Z</time>
      </trkpt>
      <trkpt lat="49.387628" lon="10.166236">
        <ele>332.581534</ele>
        <time>2026-04-26T14:49:34.354Z</time>
      </trkpt>
      <trkpt lat="49.387710" lon="10.166138">
        <ele>332.587068</ele>
        <time>2026-04-26T14:49:36.397Z</time>
      </trkpt>
      <trkpt lat="49.387917" lon="10.166016">
        <ele>332.598879</ele>
        <time>2026-04-26T14:49:40.773Z</time>
      </trkpt>
      <trkpt lat="49.388152" lon="10.166029">
        <ele>332.611406</ele>
        <time>2026-04-26T14:49:45.609Z</time>
      </trkpt>
      <trkpt lat="49.388517" lon="10.166137">
        <ele>332.631208</ele>
        <time>2026-04-26T14:49:53.929Z</time>
      </trkpt>
      <trkpt lat="49.388727" lon="10.166195">
        <ele>332.642575</ele>
        <time>2026-04-26T14:49:58.992Z</time>
      </trkpt>
      <trkpt lat="49.390113" lon="10.166545">
        <ele>333.123177</ele>
        <time>2026-04-26T14:50:37.768Z</time>
      </trkpt>
      <trkpt lat="49.390750" lon="10.166387">
        <ele>333.399102</ele>
        <time>2026-04-26T14:50:51.217Z</time>
      </trkpt>
      <trkpt lat="49.390994" lon="10.166273">
        <ele>333.076794</ele>
        <time>2026-04-26T14:50:56.049Z</time>
      </trkpt>
      <trkpt lat="49.391259" lon="10.165944">
        <ele>332.430538</ele>
        <time>2026-04-26T14:51:02.202Z</time>
      </trkpt>
      <trkpt lat="49.391398" lon="10.165616">
        <ele>331.947320</ele>
        <time>2026-04-26T14:51:06.586Z</time>
      </trkpt>
      <trkpt lat="49.391464" lon="10.165493">
        <ele>331.750514</ele>
        <time>2026-04-26T14:51:08.307Z</time>
      </trkpt>
      <trkpt lat="49.391608" lon="10.165342">
        <ele>331.419819</ele>
        <time>2026-04-26T14:51:11.176Z</time>
      </trkpt>
      <trkpt lat="49.391734" lon="10.165278">
        <ele>331.168099</ele>
        <time>2026-04-26T14:51:13.330Z</time>
      </trkpt>
      <trkpt lat="49.391960" lon="10.165238">
        <ele>330.736587</ele>
        <time>2026-04-26T14:51:17.024Z</time>
      </trkpt>
      <trkpt lat="49.392279" lon="10.165202">
        <ele>330.129878</ele>
        <time>2026-04-26T14:51:22.622Z</time>
      </trkpt>
      <trkpt lat="49.392612" lon="10.165331">
        <ele>330.152658</ele>
        <time>2026-04-26T14:51:29.369Z</time>
      </trkpt>
      <trkpt lat="49.392755" lon="10.165468">
        <ele>330.233081</ele>
        <time>2026-04-26T14:51:32.932Z</time>
      </trkpt>
      <trkpt lat="49.393067" lon="10.165858">
        <ele>330.425028</ele>
        <time>2026-04-26T14:51:42.481Z</time>
      </trkpt>
      <trkpt lat="49.393496" lon="10.166550">
        <ele>330.721866</ele>
        <time>2026-04-26T14:52:00.491Z</time>
      </trkpt>
      <trkpt lat="49.393645" lon="10.166744">
        <ele>330.815070</ele>
        <time>2026-04-26T14:52:06.312Z</time>
      </trkpt>
      <trkpt lat="49.393747" lon="10.166776">
        <ele>330.864752</ele>
        <time>2026-04-26T14:52:09.257Z</time>
      </trkpt>
      <trkpt lat="49.393930" lon="10.166654">
        <ele>330.947405</ele>
        <time>2026-04-26T14:52:14.756Z</time>
      </trkpt>
      <trkpt lat="49.394055" lon="10.166544">
        <ele>331.005938</ele>
        <time>2026-04-26T14:52:18.485Z</time>
      </trkpt>
      <trkpt lat="49.394104" lon="10.166504">
        <ele>331.028485</ele>
        <time>2026-04-26T14:52:19.814Z</time>
      </trkpt>
      <trkpt lat="49.394262" lon="10.166455">
        <ele>331.093981</ele>
        <time>2026-04-26T14:52:23.690Z</time>
      </trkpt>
      <trkpt lat="49.394379" lon="10.166384">
        <ele>331.145097</ele>
        <time>2026-04-26T14:52:26.664Z</time>
      </trkpt>
      <trkpt lat="49.394592" lon="10.166180">
        <ele>331.247085</ele>
        <time>2026-04-26T14:52:32.272Z</time>
      </trkpt>
      <trkpt lat="49.395154" lon="10.166349">
        <ele>331.479781</ele>
        <time>2026-04-26T14:52:43.970Z</time>
      </trkpt>
      <trkpt lat="49.395709" lon="10.166317">
        <ele>332.602280</ele>
        <time>2026-04-26T14:52:56.200Z</time>
      </trkpt>
      <trkpt lat="49.395969" lon="10.166091">
        <ele>333.822023</ele>
        <time>2026-04-26T14:53:04.979Z</time>
      </trkpt>
      <trkpt lat="49.396169" lon="10.165781">
        <ele>334.982011</ele>
        <time>2026-04-26T14:53:15.641Z</time>
      </trkpt>
      <trkpt lat="49.396471" lon="10.165163">
        <ele>337.035730</ele>
        <time>2026-04-26T14:53:38.009Z</time>
      </trkpt>
      <trkpt lat="49.396553" lon="10.164858">
        <ele>337.912682</ele>
        <time>2026-04-26T14:53:48.422Z</time>
      </trkpt>
      <trkpt lat="49.396666" lon="10.164272">
        <ele>339.634359</ele>
        <time>2026-04-26T14:54:08.724Z</time>
      </trkpt>
      <trkpt lat="49.396891" lon="10.163429">
        <ele>342.458327</ele>
        <time>2026-04-26T14:54:38.858Z</time>
      </trkpt>
      <trkpt lat="49.397275" lon="10.162386">
        <ele>346.172383</ele>
        <time>2026-04-26T14:55:10.455Z</time>
      </trkpt>
      <trkpt lat="49.397531" lon="10.161346">
        <ele>346.954583</ele>
        <time>2026-04-26T14:55:29.885Z</time>
      </trkpt>
      <trkpt lat="49.397679" lon="10.160319">
        <ele>346.083546</ele>
        <time>2026-04-26T14:55:43.082Z</time>
      </trkpt>
      <trkpt lat="49.397732" lon="10.160073">
        <ele>345.868967</ele>
        <time>2026-04-26T14:55:46.005Z</time>
      </trkpt>
      <trkpt lat="49.397944" lon="10.159354">
        <ele>345.165668</ele>
        <time>2026-04-26T14:55:54.251Z</time>
      </trkpt>
      <trkpt lat="49.398149" lon="10.158873">
        <ele>342.778447</ele>
        <time>2026-04-26T14:55:59.926Z</time>
      </trkpt>
      <trkpt lat="49.398314" lon="10.158585">
        <ele>341.185361</ele>
        <time>2026-04-26T14:56:03.615Z</time>
      </trkpt>
      <trkpt lat="49.398897" lon="10.157751">
        <ele>336.103619</ele>
        <time>2026-04-26T14:56:14.906Z</time>
      </trkpt>
      <trkpt lat="49.399378" lon="10.157142">
        <ele>332.478837</ele>
        <time>2026-04-26T14:56:23.687Z</time>
      </trkpt>
      <trkpt lat="49.399428" lon="10.157098">
        <ele>332.190713</ele>
        <time>2026-04-26T14:56:24.507Z</time>
      </trkpt>
      <trkpt lat="49.399517" lon="10.157036">
        <ele>331.702069</ele>
        <time>2026-04-26T14:56:25.917Z</time>
      </trkpt>
      <trkpt lat="49.399566" lon="10.157022">
        <ele>331.452844</ele>
        <time>2026-04-26T14:56:26.633Z</time>
      </trkpt>
      <trkpt lat="49.399711" lon="10.157069">
        <ele>330.711814</ele>
        <time>2026-04-26T14:56:28.802Z</time>
      </trkpt>
      <trkpt lat="49.399752" lon="10.157320">
        <ele>329.869667</ele>
        <time>2026-04-26T14:56:31.296Z</time>
      </trkpt>
      <trkpt lat="49.399812" lon="10.157433">
        <ele>329.395071</ele>
        <time>2026-04-26T14:56:32.715Z</time>
      </trkpt>
      <trkpt lat="49.400015" lon="10.157480">
        <ele>328.368510</ele>
        <time>2026-04-26T14:56:35.848Z</time>
      </trkpt>
      <trkpt lat="49.400232" lon="10.157448">
        <ele>327.278414</ele>
        <time>2026-04-26T14:56:39.268Z</time>
      </trkpt>
      <trkpt lat="49.400623" lon="10.157212">
        <ele>325.177794</ele>
        <time>2026-04-26T14:56:46.099Z</time>
      </trkpt>
      <trkpt lat="49.402041" lon="10.156017">
        <ele>322.872026</ele>
        <time>2026-04-26T14:57:14.365Z</time>
      </trkpt>
      <trkpt lat="49.402131" lon="10.155906">
        <ele>322.730042</ele>
        <time>2026-04-26T14:57:17.009Z</time>
      </trkpt>
      <trkpt lat="49.402337" lon="10.155406">
        <ele>323.563398</ele>
        <time>2026-04-26T14:57:28.853Z</time>
      </trkpt>
      <trkpt lat="49.402455" lon="10.155198">
        <ele>324.340097</ele>
        <time>2026-04-26T14:57:35.835Z</time>
      </trkpt>
      <trkpt lat="49.402727" lon="10.154739">
        <ele>326.087455</ele>
        <time>2026-04-26T14:57:54.279Z</time>
      </trkpt>
      <trkpt lat="49.402854" lon="10.154517">
        <ele>326.919442</ele>
        <time>2026-04-26T14:58:03.991Z</time>
      </trkpt>
      <trkpt lat="49.402971" lon="10.154372">
        <ele>327.569574</ele>
        <time>2026-04-26T14:58:11.374Z</time>
      </trkpt>
      <trkpt lat="49.403486" lon="10.153930">
        <ele>330.120996</ele>
        <time>2026-04-26T14:58:38.108Z</time>
      </trkpt>
      <trkpt lat="49.403807" lon="10.153775">
        <ele>329.658446</ele>
        <time>2026-04-26T14:58:50.944Z</time>
      </trkpt>
      <trkpt lat="49.404373" lon="10.153569">
        <ele>328.316795</ele>
        <time>2026-04-26T14:59:02.727Z</time>
      </trkpt>
      <trkpt lat="49.406124" lon="10.153194">
        <ele>322.651852</ele>
        <time>2026-04-26T14:59:28.457Z</time>
      </trkpt>
      <trkpt lat="49.406429" lon="10.153197">
        <ele>321.372148</ele>
        <time>2026-04-26T14:59:33.235Z</time>
      </trkpt>
      <trkpt lat="49.407064" lon="10.153345">
        <ele>318.677438</ele>
        <time>2026-04-26T14:59:44.352Z</time>
      </trkpt>
      <trkpt lat="49.407399" lon="10.153350">
        <ele>318.739795</ele>
        <time>2026-04-26T14:59:51.182Z</time>
      </trkpt>
      <trkpt lat="49.407989" lon="10.152852">
        <ele>318.967555</ele>
        <time>2026-04-26T15:00:06.162Z</time>
      </trkpt>
      <trkpt lat="49.408343" lon="10.152479">
        <ele>319.112783</ele>
        <time>2026-04-26T15:00:17.242Z</time>
      </trkpt>
      <trkpt lat="49.408788" lon="10.152085">
        <ele>319.408020</ele>
        <time>2026-04-26T15:00:32.417Z</time>
      </trkpt>
      <trkpt lat="49.409327" lon="10.151514">
        <ele>320.193398</ele>
        <time>2026-04-26T15:00:52.929Z</time>
      </trkpt>
      <trkpt lat="49.409456" lon="10.151425">
        <ele>320.363040</ele>
        <time>2026-04-26T15:00:57.460Z</time>
      </trkpt>
      <trkpt lat="49.409711" lon="10.151348">
        <ele>320.674816</ele>
        <time>2026-04-26T15:01:05.175Z</time>
      </trkpt>
      <trkpt lat="49.410259" lon="10.151390">
        <ele>321.333076</ele>
        <time>2026-04-26T15:01:17.960Z</time>
      </trkpt>
      <trkpt lat="49.410474" lon="10.151597">
        <ele>321.473658</ele>
        <time>2026-04-26T15:01:22.779Z</time>
      </trkpt>
      <trkpt lat="49.410500" lon="10.151621">
        <ele>321.485290</ele>
        <time>2026-04-26T15:01:23.340Z</time>
      </trkpt>
      <trkpt lat="49.410587" lon="10.151732">
        <ele>321.528655</ele>
        <time>2026-04-26T15:01:25.375Z</time>
      </trkpt>
      <trkpt lat="49.410768" lon="10.152065">
        <ele>321.636929</ele>
        <time>2026-04-26T15:01:30.449Z</time>
      </trkpt>
      <trkpt lat="49.411319" lon="10.152743">
        <ele>321.907630</ele>
        <time>2026-04-26T15:01:45.839Z</time>
      </trkpt>
      <trkpt lat="49.411399" lon="10.152771">
        <ele>321.939097</ele>
        <time>2026-04-26T15:01:47.907Z</time>
      </trkpt>
      <trkpt lat="49.411501" lon="10.152724">
        <ele>321.979936</ele>
        <time>2026-04-26T15:01:50.679Z</time>
      </trkpt>
      <trkpt lat="49.412248" lon="10.152090">
        <ele>323.577675</ele>
        <time>2026-04-26T15:02:20.447Z</time>
      </trkpt>
      <trkpt lat="49.412316" lon="10.152099">
        <ele>323.754542</ele>
        <time>2026-04-26T15:02:23.006Z</time>
      </trkpt>
      <trkpt lat="49.412671" lon="10.151759">
        <ele>324.838471</ele>
        <time>2026-04-26T15:02:39.377Z</time>
      </trkpt>
      <trkpt lat="49.413210" lon="10.150965">
        <ele>326.715472</ele>
        <time>2026-04-26T15:03:03.670Z</time>
      </trkpt>
      <trkpt lat="49.413540" lon="10.150529">
        <ele>325.305354</ele>
        <time>2026-04-26T15:03:14.126Z</time>
      </trkpt>
      <trkpt lat="49.414123" lon="10.149933">
        <ele>323.036468</ele>
        <time>2026-04-26T15:03:25.086Z</time>
      </trkpt>
      <trkpt lat="49.414198" lon="10.149872">
        <ele>322.761506</ele>
        <time>2026-04-26T15:03:26.352Z</time>
      </trkpt>
      <trkpt lat="49.414257" lon="10.149863">
        <ele>322.569379</ele>
        <time>2026-04-26T15:03:27.221Z</time>
      </trkpt>
      <trkpt lat="49.414385" lon="10.149901">
        <ele>322.146934</ele>
        <time>2026-04-26T15:03:29.134Z</time>
      </trkpt>
      <trkpt lat="49.414563" lon="10.150010">
        <ele>321.526042</ele>
        <time>2026-04-26T15:03:31.946Z</time>
      </trkpt>
      <trkpt lat="49.414752" lon="10.150077">
        <ele>320.895957</ele>
        <time>2026-04-26T15:03:34.770Z</time>
      </trkpt>
      <trkpt lat="49.414964" lon="10.150096">
        <ele>320.158034</ele>
        <time>2026-04-26T15:03:37.879Z</time>
      </trkpt>
      <trkpt lat="49.415078" lon="10.150118">
        <ele>319.758789</ele>
        <time>2026-04-26T15:03:39.560Z</time>
      </trkpt>
      <trkpt lat="49.415182" lon="10.150194">
        <ele>319.358641</ele>
        <time>2026-04-26T15:03:41.237Z</time>
      </trkpt>
      <trkpt lat="49.415294" lon="10.150323">
        <ele>318.872319</ele>
        <time>2026-04-26T15:03:43.264Z</time>
      </trkpt>
      <trkpt lat="49.415408" lon="10.150531">
        <ele>318.257482</ele>
        <time>2026-04-26T15:03:45.875Z</time>
      </trkpt>
      <trkpt lat="49.415640" lon="10.150379">
        <ele>317.381137</ele>
        <time>2026-04-26T15:03:49.826Z</time>
      </trkpt>
      <trkpt lat="49.415788" lon="10.150327">
        <ele>316.853593</ele>
        <time>2026-04-26T15:03:52.408Z</time>
      </trkpt>
      <trkpt lat="49.415857" lon="10.150346">
        <ele>316.610010</ele>
        <time>2026-04-26T15:03:53.682Z</time>
      </trkpt>
      <trkpt lat="49.415896" lon="10.150358">
        <ele>316.471802</ele>
        <time>2026-04-26T15:03:54.414Z</time>
      </trkpt>
      <trkpt lat="49.415978" lon="10.150191">
        <ele>315.998817</ele>
        <time>2026-04-26T15:03:57.090Z</time>
      </trkpt>
      <trkpt lat="49.416152" lon="10.150010">
        <ele>315.268753</ele>
        <time>2026-04-26T15:04:01.430Z</time>
      </trkpt>
      <trkpt lat="49.416326" lon="10.149906">
        <ele>314.659201</ele>
        <time>2026-04-26T15:04:05.590Z</time>
      </trkpt>
      <trkpt lat="49.416478" lon="10.149860">
        <ele>314.551255</ele>
        <time>2026-04-26T15:04:09.159Z</time>
      </trkpt>
      <trkpt lat="49.416725" lon="10.149592">
        <ele>314.340589</ele>
        <time>2026-04-26T15:04:16.071Z</time>
      </trkpt>
      <trkpt lat="49.416855" lon="10.149532">
        <ele>314.246011</ele>
        <time>2026-04-26T15:04:18.995Z</time>
      </trkpt>
      <trkpt lat="49.416983" lon="10.149545">
        <ele>314.156626</ele>
        <time>2026-04-26T15:04:21.622Z</time>
      </trkpt>
      <trkpt lat="49.417105" lon="10.149603">
        <ele>314.067644</ele>
        <time>2026-04-26T15:04:24.189Z</time>
      </trkpt>
      <trkpt lat="49.417542" lon="10.149636">
        <ele>313.762778</ele>
        <time>2026-04-26T15:04:32.639Z</time>
      </trkpt>
      <trkpt lat="49.417715" lon="10.149712">
        <ele>313.637406</ele>
        <time>2026-04-26T15:04:36.047Z</time>
      </trkpt>
      <trkpt lat="49.418277" lon="10.150310">
        <ele>313.262739</ele>
        <time>2026-04-26T15:04:49.040Z</time>
      </trkpt>
      <trkpt lat="49.418703" lon="10.150504">
        <ele>313.076693</ele>
        <time>2026-04-26T15:04:57.573Z</time>
      </trkpt>
      <trkpt lat="49.418712" lon="10.150417">
        <ele>313.052696</ele>
        <time>2026-04-26T15:04:58.648Z</time>
      </trkpt>
      <trkpt lat="49.418728" lon="10.150233">
        <ele>313.002128</ele>
        <time>2026-04-26T15:05:00.979Z</time>
      </trkpt>
      <trkpt lat="49.418788" lon="10.149564">
        <ele>312.818168</ele>
        <time>2026-04-26T15:05:10.069Z</time>
      </trkpt>
      <trkpt lat="49.418939" lon="10.149514">
        <ele>312.753488</ele>
        <time>2026-04-26T15:05:13.724Z</time>
      </trkpt>
      <trkpt lat="49.419508" lon="10.149497">
        <ele>313.786122</ele>
        <time>2026-04-26T15:05:28.901Z</time>
      </trkpt>
      <trkpt lat="49.419690" lon="10.149451">
        <ele>314.374846</ele>
        <time>2026-04-26T15:05:34.474Z</time>
      </trkpt>
      <trkpt lat="49.419911" lon="10.149345">
        <ele>315.113793</ele>
        <time>2026-04-26T15:05:41.650Z</time>
      </trkpt>
      <trkpt lat="49.420192" lon="10.149055">
        <ele>316.194092</ele>
        <time>2026-04-26T15:05:52.914Z</time>
      </trkpt>
      <trkpt lat="49.420269" lon="10.148950">
        <ele>316.522629</ele>
        <time>2026-04-26T15:05:56.567Z</time>
      </trkpt>
      <trkpt lat="49.420963" lon="10.147337">
        <ele>321.578479</ele>
        <time>2026-04-26T15:06:53.196Z</time>
      </trkpt>
      <trkpt lat="49.421150" lon="10.147012">
        <ele>322.918535</ele>
        <time>2026-04-26T15:07:07.079Z</time>
      </trkpt>
      <trkpt lat="49.421628" lon="10.146305">
        <ele>326.067836</ele>
        <time>2026-04-26T15:07:34.949Z</time>
      </trkpt>
      <trkpt lat="49.421951" lon="10.146003">
        <ele>326.579097</ele>
        <time>2026-04-26T15:07:46.801Z</time>
      </trkpt>
      <trkpt lat="49.422175" lon="10.145861">
        <ele>326.123470</ele>
        <time>2026-04-26T15:07:52.523Z</time>
      </trkpt>
      <trkpt lat="49.422409" lon="10.145815">
        <ele>325.679862</ele>
        <time>2026-04-26T15:07:57.056Z</time>
      </trkpt>
      <trkpt lat="49.422786" lon="10.145661">
        <ele>324.946333</ele>
        <time>2026-04-26T15:08:03.617Z</time>
      </trkpt>
      <trkpt lat="49.423070" lon="10.145470">
        <ele>324.363420</ele>
        <time>2026-04-26T15:08:08.560Z</time>
      </trkpt>
      <trkpt lat="49.423439" lon="10.145152">
        <ele>323.567949</ele>
        <time>2026-04-26T15:08:15.036Z</time>
      </trkpt>
      <trkpt lat="49.423984" lon="10.144866">
        <ele>320.528153</ele>
        <time>2026-04-26T15:08:23.615Z</time>
      </trkpt>
      <trkpt lat="49.424618" lon="10.144628">
        <ele>317.068920</ele>
        <time>2026-04-26T15:08:33.131Z</time>
      </trkpt>
      <trkpt lat="49.425098" lon="10.144529">
        <ele>314.501898</ele>
        <time>2026-04-26T15:08:40.253Z</time>
      </trkpt>
      <trkpt lat="49.425322" lon="10.144405">
        <ele>313.704306</ele>
        <time>2026-04-26T15:08:43.810Z</time>
      </trkpt>
      <trkpt lat="49.426945" lon="10.142899">
        <ele>309.862437</ele>
        <time>2026-04-26T15:09:18.455Z</time>
      </trkpt>
      <trkpt lat="49.427273" lon="10.142562">
        <ele>309.455215</ele>
        <time>2026-04-26T15:09:26.610Z</time>
      </trkpt>
      <trkpt lat="49.427681" lon="10.142222">
        <ele>308.976169</ele>
        <time>2026-04-26T15:09:35.824Z</time>
      </trkpt>
      <trkpt lat="49.427940" lon="10.142174">
        <ele>308.706880</ele>
        <time>2026-04-26T15:09:40.887Z</time>
      </trkpt>
      <trkpt lat="49.428657" lon="10.142221">
        <ele>308.002929</ele>
        <time>2026-04-26T15:09:54.297Z</time>
      </trkpt>
      <trkpt lat="49.428844" lon="10.142178">
        <ele>307.832280</ele>
        <time>2026-04-26T15:09:57.790Z</time>
      </trkpt>
      <trkpt lat="49.429167" lon="10.142043">
        <ele>307.530186</ele>
        <time>2026-04-26T15:10:04.103Z</time>
      </trkpt>
      <trkpt lat="49.429569" lon="10.141714">
        <ele>307.119175</ele>
        <time>2026-04-26T15:10:12.917Z</time>
      </trkpt>
      <trkpt lat="49.430907" lon="10.140827">
        <ele>306.721665</ele>
        <time>2026-04-26T15:10:43.403Z</time>
      </trkpt>
      <trkpt lat="49.432299" lon="10.139809">
        <ele>306.735733</ele>
        <time>2026-04-26T15:11:21.335Z</time>
      </trkpt>
      <trkpt lat="49.432556" lon="10.139781">
        <ele>306.709570</ele>
        <time>2026-04-26T15:11:27.147Z</time>
      </trkpt>
      <trkpt lat="49.432755" lon="10.139830">
        <ele>306.689105</ele>
        <time>2026-04-26T15:11:31.525Z</time>
      </trkpt>
      <trkpt lat="49.432936" lon="10.139967">
        <ele>306.668620</ele>
        <time>2026-04-26T15:11:35.789Z</time>
      </trkpt>
      <trkpt lat="49.433220" lon="10.140148">
        <ele>306.637402</ele>
        <time>2026-04-26T15:11:42.098Z</time>
      </trkpt>
      <trkpt lat="49.433907" lon="10.140575">
        <ele>305.932705</ele>
        <time>2026-04-26T15:11:56.166Z</time>
      </trkpt>
      <trkpt lat="49.434056" lon="10.140616">
        <ele>305.751679</ele>
        <time>2026-04-26T15:11:58.894Z</time>
      </trkpt>
      <trkpt lat="49.434199" lon="10.140600">
        <ele>305.580207</ele>
        <time>2026-04-26T15:12:01.518Z</time>
      </trkpt>
      <trkpt lat="49.435278" lon="10.139697">
        <ele>304.380961</ele>
        <time>2026-04-26T15:12:24.520Z</time>
      </trkpt>
      <trkpt lat="49.435496" lon="10.139428">
        <ele>304.298400</ele>
        <time>2026-04-26T15:12:30.044Z</time>
      </trkpt>
      <trkpt lat="49.435628" lon="10.139049">
        <ele>304.215817</ele>
        <time>2026-04-26T15:12:36.042Z</time>
      </trkpt>
      <trkpt lat="49.435721" lon="10.138368">
        <ele>304.082155</ele>
        <time>2026-04-26T15:12:46.513Z</time>
      </trkpt>
      <trkpt lat="49.435811" lon="10.137781">
        <ele>303.966311</ele>
        <time>2026-04-26T15:12:55.338Z</time>
      </trkpt>
      <trkpt lat="49.435868" lon="10.137636">
        <ele>303.941109</ele>
        <time>2026-04-26T15:12:57.836Z</time>
      </trkpt>
      <trkpt lat="49.436044" lon="10.137334">
        <ele>303.991886</ele>
        <time>2026-04-26T15:13:03.914Z</time>
      </trkpt>
      <trkpt lat="49.436164" lon="10.137237">
        <ele>304.017989</ele>
        <time>2026-04-26T15:13:07.121Z</time>
      </trkpt>
      <trkpt lat="49.436284" lon="10.137188">
        <ele>304.041895</ele>
        <time>2026-04-26T15:13:10.059Z</time>
      </trkpt>
      <trkpt lat="49.436889" lon="10.137241">
        <ele>304.158574</ele>
        <time>2026-04-26T15:13:24.679Z</time>
      </trkpt>
      <trkpt lat="49.437756" lon="10.136948">
        <ele>304.187879</ele>
        <time>2026-04-26T15:13:44.335Z</time>
      </trkpt>
      <trkpt lat="49.438130" lon="10.136789">
        <ele>304.027274</ele>
        <time>2026-04-26T15:13:52.999Z</time>
      </trkpt>
      <trkpt lat="49.438675" lon="10.136414">
        <ele>303.780148</ele>
        <time>2026-04-26T15:14:05.419Z</time>
      </trkpt>
      <trkpt lat="49.439239" lon="10.135913">
        <ele>303.483602</ele>
        <time>2026-04-26T15:14:18.166Z</time>
      </trkpt>
      <trkpt lat="49.439789" lon="10.135496">
        <ele>302.997910</ele>
        <time>2026-04-26T15:14:30.134Z</time>
      </trkpt>
      <trkpt lat="49.440069" lon="10.135142">
        <ele>302.710814</ele>
        <time>2026-04-26T15:14:37.116Z</time>
      </trkpt>
      <trkpt lat="49.440182" lon="10.134846">
        <ele>302.534035</ele>
        <time>2026-04-26T15:14:41.436Z</time>
      </trkpt>
      <trkpt lat="49.440309" lon="10.134438">
        <ele>302.301069</ele>
        <time>2026-04-26T15:14:47.264Z</time>
      </trkpt>
      <trkpt lat="49.440393" lon="10.134057">
        <ele>302.134221</ele>
        <time>2026-04-26T15:14:52.544Z</time>
      </trkpt>
      <trkpt lat="49.440440" lon="10.133560">
        <ele>302.359106</ele>
        <time>2026-04-26T15:14:59.245Z</time>
      </trkpt>
      <trkpt lat="49.440495" lon="10.131428">
        <ele>303.314508</ele>
        <time>2026-04-26T15:15:31.989Z</time>
      </trkpt>
      <trkpt lat="49.440563" lon="10.130264">
        <ele>306.693699</ele>
        <time>2026-04-26T15:16:02.425Z</time>
      </trkpt>
      <trkpt lat="49.440509" lon="10.129326">
        <ele>309.604589</ele>
        <time>2026-04-26T15:16:31.270Z</time>
      </trkpt>
      <trkpt lat="49.440572" lon="10.128855">
        <ele>311.091031</ele>
        <time>2026-04-26T15:16:46.904Z</time>
      </trkpt>
      <trkpt lat="49.440846" lon="10.127662">
        <ele>312.699011</ele>
        <time>2026-04-26T15:17:19.329Z</time>
      </trkpt>
      <trkpt lat="49.440921" lon="10.127435">
        <ele>312.900846</ele>
        <time>2026-04-26T15:17:23.773Z</time>
      </trkpt>
      <trkpt lat="49.441050" lon="10.127231">
        <ele>313.126413</ele>
        <time>2026-04-26T15:17:28.143Z</time>
      </trkpt>
      <trkpt lat="49.441335" lon="10.126904">
        <ele>313.559888</ele>
        <time>2026-04-26T15:17:35.329Z</time>
      </trkpt>
      <trkpt lat="49.442291" lon="10.125598">
        <ele>312.152100</ele>
        <time>2026-04-26T15:17:57.451Z</time>
      </trkpt>
      <trkpt lat="49.442606" lon="10.125088">
        <ele>311.090050</ele>
        <time>2026-04-26T15:18:05.437Z</time>
      </trkpt>
      <trkpt lat="49.443238" lon="10.124340">
        <ele>309.055867</ele>
        <time>2026-04-26T15:18:18.764Z</time>
      </trkpt>
      <trkpt lat="49.443882" lon="10.123645">
        <ele>306.740888</ele>
        <time>2026-04-26T15:18:31.522Z</time>
      </trkpt>
      <trkpt lat="49.444194" lon="10.123398">
        <ele>305.708328</ele>
        <time>2026-04-26T15:18:37.233Z</time>
      </trkpt>
      <trkpt lat="49.444914" lon="10.122914">
        <ele>304.456694</ele>
        <time>2026-04-26T15:18:50.475Z</time>
      </trkpt>
      <trkpt lat="49.445046" lon="10.122773">
        <ele>304.390846</ele>
        <time>2026-04-26T15:18:53.287Z</time>
      </trkpt>
      <trkpt lat="49.445464" lon="10.121952">
        <ele>304.113058</ele>
        <time>2026-04-26T15:19:06.141Z</time>
      </trkpt>
      <trkpt lat="49.445922" lon="10.121165">
        <ele>304.903687</ele>
        <time>2026-04-26T15:19:26.380Z</time>
      </trkpt>
      <trkpt lat="49.445996" lon="10.120589">
        <ele>307.560149</ele>
        <time>2026-04-26T15:19:41.363Z</time>
      </trkpt>
      <trkpt lat="49.445891" lon="10.119214">
        <ele>313.824005</ele>
        <time>2026-04-26T15:20:31.170Z</time>
      </trkpt>
      <trkpt lat="49.445794" lon="10.118452">
        <ele>316.982584</ele>
        <time>2026-04-26T15:21:04.297Z</time>
      </trkpt>
      <trkpt lat="49.445707" lon="10.118054">
        <ele>318.157589</ele>
        <time>2026-04-26T15:21:20.886Z</time>
      </trkpt>
      <trkpt lat="49.445700" lon="10.117430">
        <ele>319.904018</ele>
        <time>2026-04-26T15:21:42.791Z</time>
      </trkpt>
      <trkpt lat="49.445711" lon="10.116255">
        <ele>323.192420</ele>
        <time>2026-04-26T15:22:08.627Z</time>
      </trkpt>
      <trkpt lat="49.445794" lon="10.115996">
        <ele>324.000449</ele>
        <time>2026-04-26T15:22:12.021Z</time>
      </trkpt>
      <trkpt lat="49.445944" lon="10.115648">
        <ele>322.582888</ele>
        <time>2026-04-26T15:22:16.266Z</time>
      </trkpt>
      <trkpt lat="49.446242" lon="10.114532">
        <ele>317.395981</ele>
        <time>2026-04-26T15:22:27.561Z</time>
      </trkpt>
      <trkpt lat="49.446833" lon="10.113160">
        <ele>310.318443</ele>
        <time>2026-04-26T15:22:42.298Z</time>
      </trkpt>
      <trkpt lat="49.446897" lon="10.112983">
        <ele>309.446906</ele>
        <time>2026-04-26T15:22:44.111Z</time>
      </trkpt>
      <trkpt lat="49.447060" lon="10.112529">
        <ele>307.215159</ele>
        <time>2026-04-26T15:22:48.762Z</time>
      </trkpt>
      <trkpt lat="49.447096" lon="10.112274">
        <ele>306.092273</ele>
        <time>2026-04-26T15:22:51.122Z</time>
      </trkpt>
      <trkpt lat="49.447137" lon="10.110711">
        <ele>300.307096</ele>
        <time>2026-04-26T15:23:06.454Z</time>
      </trkpt>
      <trkpt lat="49.447031" lon="10.110668">
        <ele>300.275110</ele>
        <time>2026-04-26T15:23:08.508Z</time>
      </trkpt>
      <trkpt lat="49.446412" lon="10.109626">
        <ele>300.007353</ele>
        <time>2026-04-26T15:23:29.906Z</time>
      </trkpt>
      <trkpt lat="49.445848" lon="10.108856">
        <ele>299.863432</ele>
        <time>2026-04-26T15:23:51.264Z</time>
      </trkpt>
      <trkpt lat="49.445155" lon="10.107796">
        <ele>300.140450</ele>
        <time>2026-04-26T15:24:17.177Z</time>
      </trkpt>
      <trkpt lat="49.444995" lon="10.107518">
        <ele>300.208870</ele>
        <time>2026-04-26T15:24:22.627Z</time>
      </trkpt>
      <trkpt lat="49.444712" lon="10.106742">
        <ele>300.041459</ele>
        <time>2026-04-26T15:24:33.572Z</time>
      </trkpt>
      <trkpt lat="49.444671" lon="10.106418">
        <ele>299.559090</ele>
        <time>2026-04-26T15:24:37.314Z</time>
      </trkpt>
      <trkpt lat="49.444745" lon="10.105871">
        <ele>298.742601</ele>
        <time>2026-04-26T15:24:43.447Z</time>
      </trkpt>
      <trkpt lat="49.444758" lon="10.105280">
        <ele>297.878438</ele>
        <time>2026-04-26T15:24:49.835Z</time>
      </trkpt>
      <trkpt lat="49.444815" lon="10.104561">
        <ele>296.819933</ele>
        <time>2026-04-26T15:24:57.646Z</time>
      </trkpt>
      <trkpt lat="49.444866" lon="10.104185">
        <ele>296.282329</ele>
        <time>2026-04-26T15:25:01.900Z</time>
      </trkpt>
      <trkpt lat="49.445079" lon="10.103337">
        <ele>295.868910</ele>
        <time>2026-04-26T15:25:12.591Z</time>
      </trkpt>
      <trkpt lat="49.445142" lon="10.103192">
        <ele>295.789601</ele>
        <time>2026-04-26T15:25:14.954Z</time>
      </trkpt>
      <trkpt lat="49.445229" lon="10.103141">
        <ele>295.724479</ele>
        <time>2026-04-26T15:25:16.916Z</time>
      </trkpt>
      <trkpt lat="49.445311" lon="10.103152">
        <ele>295.666906</ele>
        <time>2026-04-26T15:25:18.566Z</time>
      </trkpt>
      <trkpt lat="49.445364" lon="10.103147">
        <ele>295.629766</ele>
        <time>2026-04-26T15:25:19.674Z</time>
      </trkpt>
      <trkpt lat="49.445481" lon="10.103022">
        <ele>295.530125</ele>
        <time>2026-04-26T15:25:22.683Z</time>
      </trkpt>
      <trkpt lat="49.445751" lon="10.102500">
        <ele>295.226783</ele>
        <time>2026-04-26T15:25:33.158Z</time>
      </trkpt>
      <trkpt lat="49.445834" lon="10.102249">
        <ele>295.098723</ele>
        <time>2026-04-26T15:25:37.424Z</time>
      </trkpt>
      <trkpt lat="49.445822" lon="10.102095">
        <ele>295.039077</ele>
        <time>2026-04-26T15:25:39.605Z</time>
      </trkpt>
      <trkpt lat="49.445917" lon="10.101762">
        <ele>295.138926</ele>
        <time>2026-04-26T15:25:45.023Z</time>
      </trkpt>
      <trkpt lat="49.445914" lon="10.101672">
        <ele>295.163670</ele>
        <time>2026-04-26T15:25:46.301Z</time>
      </trkpt>
      <trkpt lat="49.445839" lon="10.101412">
        <ele>295.241771</ele>
        <time>2026-04-26T15:25:50.553Z</time>
      </trkpt>
      <trkpt lat="49.445816" lon="10.101222">
        <ele>295.294837</ele>
        <time>2026-04-26T15:25:53.427Z</time>
      </trkpt>
      <trkpt lat="49.445858" lon="10.100717">
        <ele>295.434628</ele>
        <time>2026-04-26T15:26:01.382Z</time>
      </trkpt>
      <trkpt lat="49.446121" lon="10.099557">
        <ele>295.771946</ele>
        <time>2026-04-26T15:26:19.177Z</time>
      </trkpt>
      <trkpt lat="49.446277" lon="10.098747">
        <ele>297.726440</ele>
        <time>2026-04-26T15:26:34.672Z</time>
      </trkpt>
      <trkpt lat="49.446358" lon="10.098147">
        <ele>299.279275</ele>
        <time>2026-04-26T15:26:50.072Z</time>
      </trkpt>
      <trkpt lat="49.446373" lon="10.097877">
        <ele>299.965949</ele>
        <time>2026-04-26T15:26:57.614Z</time>
      </trkpt>
      <trkpt lat="49.446522" lon="10.096627">
        <ele>303.128406</ele>
        <time>2026-04-26T15:27:36.256Z</time>
      </trkpt>
      <trkpt lat="49.446941" lon="10.094964">
        <ele>306.962476</ele>
        <time>2026-04-26T15:28:22.136Z</time>
      </trkpt>
      <trkpt lat="49.447391" lon="10.092921">
        <ele>309.645678</ele>
        <time>2026-04-26T15:28:55.338Z</time>
      </trkpt>
      <trkpt lat="49.447438" lon="10.092367">
        <ele>310.022605</ele>
        <time>2026-04-26T15:29:04.234Z</time>
      </trkpt>
      <trkpt lat="49.447371" lon="10.091678">
        <ele>310.492612</ele>
        <time>2026-04-26T15:29:16.586Z</time>
      </trkpt>
      <trkpt lat="49.447170" lon="10.090292">
        <ele>313.310015</ele>
        <time>2026-04-26T15:29:47.332Z</time>
      </trkpt>
      <trkpt lat="49.447075" lon="10.088391">
        <ele>317.685965</ele>
        <time>2026-04-26T15:30:35.032Z</time>
      </trkpt>
      <trkpt lat="49.447060" lon="10.087535">
        <ele>320.048812</ele>
        <time>2026-04-26T15:30:57.188Z</time>
      </trkpt>
      <trkpt lat="49.447156" lon="10.086925">
        <ele>321.780614</ele>
        <time>2026-04-26T15:31:14.173Z</time>
      </trkpt>
      <trkpt lat="49.447339" lon="10.086094">
        <ele>324.201578</ele>
        <time>2026-04-26T15:31:37.824Z</time>
      </trkpt>
      <trkpt lat="49.447532" lon="10.085256">
        <ele>325.073315</ele>
        <time>2026-04-26T15:31:56.857Z</time>
      </trkpt>
      <trkpt lat="49.447672" lon="10.084784">
        <ele>325.548021</ele>
        <time>2026-04-26T15:32:06.636Z</time>
      </trkpt>
      <trkpt lat="49.447977" lon="10.084013">
        <ele>326.373819</ele>
        <time>2026-04-26T15:32:21.227Z</time>
      </trkpt>
      <trkpt lat="49.448680" lon="10.082091">
        <ele>326.404076</ele>
        <time>2026-04-26T15:32:49.596Z</time>
      </trkpt>
      <trkpt lat="49.448839" lon="10.081361">
        <ele>326.217569</ele>
        <time>2026-04-26T15:33:00.341Z</time>
      </trkpt>
      <trkpt lat="49.449265" lon="10.078812">
        <ele>326.415439</ele>
        <time>2026-04-26T15:33:40.888Z</time>
      </trkpt>
      <trkpt lat="49.449397" lon="10.077573">
        <ele>324.750654</ele>
        <time>2026-04-26T15:33:58.801Z</time>
      </trkpt>
      <trkpt lat="49.449509" lon="10.076899">
        <ele>323.335877</ele>
        <time>2026-04-26T15:34:06.372Z</time>
      </trkpt>
      <trkpt lat="49.449975" lon="10.075798">
        <ele>320.550530</ele>
        <time>2026-04-26T15:34:19.159Z</time>
      </trkpt>
      <trkpt lat="49.450104" lon="10.075342">
        <ele>318.869870</ele>
        <time>2026-04-26T15:34:23.756Z</time>
      </trkpt>
      <trkpt lat="49.450529" lon="10.073748">
        <ele>313.047438</ele>
        <time>2026-04-26T15:34:40.412Z</time>
      </trkpt>
      <trkpt lat="49.451060" lon="10.072239">
        <ele>307.802721</ele>
        <time>2026-04-26T15:34:58.379Z</time>
      </trkpt>
      <trkpt lat="49.451574" lon="10.071034">
        <ele>303.569084</ele>
        <time>2026-04-26T15:35:12.544Z</time>
      </trkpt>
      <trkpt lat="49.451745" lon="10.070758">
        <ele>302.443233</ele>
        <time>2026-04-26T15:35:16.143Z</time>
      </trkpt>
      <trkpt lat="49.452178" lon="10.070258">
        <ele>299.980936</ele>
        <time>2026-04-26T15:35:24.226Z</time>
      </trkpt>
      <trkpt lat="49.452310" lon="10.070000">
        <ele>299.010278</ele>
        <time>2026-04-26T15:35:27.424Z</time>
      </trkpt>
      <trkpt lat="49.452625" lon="10.069325">
        <ele>296.553736</ele>
        <time>2026-04-26T15:35:35.656Z</time>
      </trkpt>
      <trkpt lat="49.452809" lon="10.068846">
        <ele>295.107436</ele>
        <time>2026-04-26T15:35:41.508Z</time>
      </trkpt>
      <trkpt lat="49.452942" lon="10.068358">
        <ele>294.695805</ele>
        <time>2026-04-26T15:35:47.892Z</time>
      </trkpt>
      <trkpt lat="49.452985" lon="10.068075">
        <ele>294.469724</ele>
        <time>2026-04-26T15:35:51.586Z</time>
      </trkpt>
      <trkpt lat="49.453022" lon="10.067937">
        <ele>294.353601</ele>
        <time>2026-04-26T15:35:53.478Z</time>
      </trkpt>
      <trkpt lat="49.453559" lon="10.066896">
        <ele>293.319822</ele>
        <time>2026-04-26T15:36:10.541Z</time>
      </trkpt>
      <trkpt lat="49.453937" lon="10.065994">
        <ele>293.409732</ele>
        <time>2026-04-26T15:36:25.315Z</time>
      </trkpt>
      <trkpt lat="49.454137" lon="10.065531">
        <ele>293.716442</ele>
        <time>2026-04-26T15:36:33.648Z</time>
      </trkpt>
      <trkpt lat="49.455275" lon="10.062732">
        <ele>297.245397</ele>
        <time>2026-04-26T15:37:35.686Z</time>
      </trkpt>
      <trkpt lat="49.455357" lon="10.062400">
        <ele>297.780914</ele>
        <time>2026-04-26T15:37:44.699Z</time>
      </trkpt>
      <trkpt lat="49.455392" lon="10.062056">
        <ele>298.305922</ele>
        <time>2026-04-26T15:37:53.441Z</time>
      </trkpt>
      <trkpt lat="49.455701" lon="10.061312">
        <ele>298.980733</ele>
        <time>2026-04-26T15:38:13.341Z</time>
      </trkpt>
      <trkpt lat="49.455995" lon="10.060874">
        <ele>299.247094</ele>
        <time>2026-04-26T15:38:25.660Z</time>
      </trkpt>
      <trkpt lat="49.456764" lon="10.060198">
        <ele>299.823525</ele>
        <time>2026-04-26T15:38:43.677Z</time>
      </trkpt>
      <trkpt lat="49.458425" lon="10.058064">
        <ele>295.365995</ele>
        <time>2026-04-26T15:39:21.304Z</time>
      </trkpt>
      <trkpt lat="49.459536" lon="10.056613">
        <ele>290.739504</ele>
        <time>2026-04-26T15:39:44.625Z</time>
      </trkpt>
      <trkpt lat="49.459974" lon="10.055963">
        <ele>288.914945</ele>
        <time>2026-04-26T15:39:54.661Z</time>
      </trkpt>
      <trkpt lat="49.460487" lon="10.055012">
        <ele>286.529987</ele>
        <time>2026-04-26T15:40:08.173Z</time>
      </trkpt>
      <trkpt lat="49.461315" lon="10.053674">
        <ele>282.959369</ele>
        <time>2026-04-26T15:40:27.857Z</time>
      </trkpt>
      <trkpt lat="49.461977" lon="10.052757">
        <ele>280.307981</ele>
        <time>2026-04-26T15:40:42.440Z</time>
      </trkpt>
      <trkpt lat="49.462475" lon="10.051981">
        <ele>279.000885</ele>
        <time>2026-04-26T15:40:54.318Z</time>
      </trkpt>
      <trkpt lat="49.463333" lon="10.051029">
        <ele>277.458293</ele>
        <time>2026-04-26T15:41:13.599Z</time>
      </trkpt>
      <trkpt lat="49.463580" lon="10.050703">
        <ele>277.334784</ele>
        <time>2026-04-26T15:41:21.108Z</time>
      </trkpt>
      <trkpt lat="49.463618" lon="10.050606">
        <ele>277.455584</ele>
        <time>2026-04-26T15:41:22.962Z</time>
      </trkpt>
      <trkpt lat="49.463819" lon="10.047598">
        <ele>280.192759</ele>
        <time>2026-04-26T15:42:24.016Z</time>
      </trkpt>
      <trkpt lat="49.463862" lon="10.047187">
        <ele>280.263266</ele>
        <time>2026-04-26T15:42:31.177Z</time>
      </trkpt>
      <trkpt lat="49.464257" lon="10.044797">
        <ele>280.502258</ele>
        <time>2026-04-26T15:43:03.473Z</time>
      </trkpt>
      <trkpt lat="49.464365" lon="10.044408">
        <ele>280.459180</ele>
        <time>2026-04-26T15:43:08.942Z</time>
      </trkpt>
      <trkpt lat="49.465038" lon="10.042649">
        <ele>280.471143</ele>
        <time>2026-04-26T15:43:38.823Z</time>
      </trkpt>
      <trkpt lat="49.465690" lon="10.040352">
        <ele>281.805157</ele>
        <time>2026-04-26T15:44:20.973Z</time>
      </trkpt>
      <trkpt lat="49.465944" lon="10.039462">
        <ele>282.713193</ele>
        <time>2026-04-26T15:44:38.531Z</time>
      </trkpt>
      <trkpt lat="49.466596" lon="10.037539">
        <ele>284.185987</ele>
        <time>2026-04-26T15:45:19.799Z</time>
      </trkpt>
      <trkpt lat="49.466864" lon="10.036853">
        <ele>283.987193</ele>
        <time>2026-04-26T15:45:31.734Z</time>
      </trkpt>
      <trkpt lat="49.467618" lon="10.035323">
        <ele>283.125495</ele>
        <time>2026-04-26T15:45:54.512Z</time>
      </trkpt>
      <trkpt lat="49.467797" lon="10.034850">
        <ele>282.489125</ele>
        <time>2026-04-26T15:46:00.900Z</time>
      </trkpt>
      <trkpt lat="49.468016" lon="10.034049">
        <ele>281.478800</ele>
        <time>2026-04-26T15:46:12.014Z</time>
      </trkpt>
      <trkpt lat="49.468123" lon="10.033456">
        <ele>280.763282</ele>
        <time>2026-04-26T15:46:19.135Z</time>
      </trkpt>
      <trkpt lat="49.468146" lon="10.033097">
        <ele>280.278460</ele>
        <time>2026-04-26T15:46:23.048Z</time>
      </trkpt>
      <trkpt lat="49.468118" lon="10.032461">
        <ele>278.625444</ele>
        <time>2026-04-26T15:46:29.651Z</time>
      </trkpt>
      <trkpt lat="49.468125" lon="10.032422">
        <ele>278.520525</ele>
        <time>2026-04-26T15:46:30.051Z</time>
      </trkpt>
      <trkpt lat="49.468177" lon="10.032067">
        <ele>277.576866</ele>
        <time>2026-04-26T15:46:33.702Z</time>
      </trkpt>
      <trkpt lat="49.468320" lon="10.031698">
        <ele>276.462783</ele>
        <time>2026-04-26T15:46:37.936Z</time>
      </trkpt>
      <trkpt lat="49.468437" lon="10.031614">
        <ele>275.947610</ele>
        <time>2026-04-26T15:46:39.879Z</time>
      </trkpt>
      <trkpt lat="49.468484" lon="10.031562">
        <ele>275.716625</ele>
        <time>2026-04-26T15:46:40.748Z</time>
      </trkpt>
      <trkpt lat="49.468544" lon="10.031446">
        <ele>275.332176</ele>
        <time>2026-04-26T15:46:42.176Z</time>
      </trkpt>
      <trkpt lat="49.468649" lon="10.031156">
        <ele>274.471334</ele>
        <time>2026-04-26T15:46:45.417Z</time>
      </trkpt>
      <trkpt lat="49.469074" lon="10.031375">
        <ele>272.996275</ele>
        <time>2026-04-26T15:46:52.484Z</time>
      </trkpt>
      <trkpt lat="49.469248" lon="10.031469">
        <ele>272.689729</ele>
        <time>2026-04-26T15:46:55.572Z</time>
      </trkpt>
      <trkpt lat="49.469409" lon="10.031539">
        <ele>272.411622</ele>
        <time>2026-04-26T15:46:58.461Z</time>
      </trkpt>
      <trkpt lat="49.469510" lon="10.031493">
        <ele>272.236531</ele>
        <time>2026-04-26T15:47:00.357Z</time>
      </trkpt>
      <trkpt lat="49.469681" lon="10.031142">
        <ele>271.762648</ele>
        <time>2026-04-26T15:47:05.658Z</time>
      </trkpt>
      <trkpt lat="49.469743" lon="10.030940">
        <ele>271.521324</ele>
        <time>2026-04-26T15:47:08.430Z</time>
      </trkpt>
      <trkpt lat="49.469889" lon="10.031101">
        <ele>271.222747</ele>
        <time>2026-04-26T15:47:12.009Z</time>
      </trkpt>
      <trkpt lat="49.469986" lon="10.031219">
        <ele>271.017206</ele>
        <time>2026-04-26T15:47:14.521Z</time>
      </trkpt>
      <trkpt lat="49.470210" lon="10.030991">
        <ele>270.570767</ele>
        <time>2026-04-26T15:47:20.111Z</time>
      </trkpt>
      <trkpt lat="49.470321" lon="10.030891">
        <ele>270.356957</ele>
        <time>2026-04-26T15:47:22.919Z</time>
      </trkpt>
      <trkpt lat="49.470755" lon="10.030403">
        <ele>270.018121</ele>
        <time>2026-04-26T15:47:33.547Z</time>
      </trkpt>
      <trkpt lat="49.471095" lon="10.029829">
        <ele>269.786101</ele>
        <time>2026-04-26T15:47:43.468Z</time>
      </trkpt>
      <trkpt lat="49.471174" lon="10.029705">
        <ele>269.734226</ele>
        <time>2026-04-26T15:47:46.120Z</time>
      </trkpt>
      <trkpt lat="49.471691" lon="10.028775">
        <ele>269.443952</ele>
        <time>2026-04-26T15:48:03.362Z</time>
      </trkpt>
      <trkpt lat="49.471837" lon="10.028501">
        <ele>269.568005</ele>
        <time>2026-04-26T15:48:08.082Z</time>
      </trkpt>
      <trkpt lat="49.472052" lon="10.027956">
        <ele>269.791215</ele>
        <time>2026-04-26T15:48:16.888Z</time>
      </trkpt>
      <trkpt lat="49.472121" lon="10.027757">
        <ele>269.870182</ele>
        <time>2026-04-26T15:48:20.349Z</time>
      </trkpt>
      <trkpt lat="49.472173" lon="10.027594">
        <ele>269.933753</ele>
        <time>2026-04-26T15:48:23.236Z</time>
      </trkpt>
      <trkpt lat="49.472231" lon="10.027466">
        <ele>269.988384</ele>
        <time>2026-04-26T15:48:25.911Z</time>
      </trkpt>
      <trkpt lat="49.472264" lon="10.027331">
        <ele>270.038880</ele>
        <time>2026-04-26T15:48:28.476Z</time>
      </trkpt>
      <trkpt lat="49.472388" lon="10.026840">
        <ele>270.223302</ele>
        <time>2026-04-26T15:48:37.483Z</time>
      </trkpt>
      <trkpt lat="49.472770" lon="10.025310">
        <ele>271.846547</ele>
        <time>2026-04-26T15:49:07.552Z</time>
      </trkpt>
      <trkpt lat="49.472995" lon="10.024423">
        <ele>273.003443</ele>
        <time>2026-04-26T15:49:27.609Z</time>
      </trkpt>
      <trkpt lat="49.473022" lon="10.024230">
        <ele>273.243307</ele>
        <time>2026-04-26T15:49:31.404Z</time>
      </trkpt>
      <trkpt lat="49.473028" lon="10.024035">
        <ele>273.480494</ele>
        <time>2026-04-26T15:49:35.039Z</time>
      </trkpt>
      <trkpt lat="49.472987" lon="10.023886">
        <ele>273.677089</ele>
        <time>2026-04-26T15:49:37.976Z</time>
      </trkpt>
      <trkpt lat="49.472946" lon="10.023737">
        <ele>273.854463</ele>
        <time>2026-04-26T15:49:40.973Z</time>
      </trkpt>
      <trkpt lat="49.472904" lon="10.023610">
        <ele>274.003539</ele>
        <time>2026-04-26T15:49:43.655Z</time>
      </trkpt>
      <trkpt lat="49.473326" lon="10.022481">
        <ele>275.366089</ele>
        <time>2026-04-26T15:50:09.908Z</time>
      </trkpt>
      <trkpt lat="49.473673" lon="10.021562">
        <ele>276.478006</ele>
        <time>2026-04-26T15:50:29.161Z</time>
      </trkpt>
      <trkpt lat="49.473840" lon="10.021242">
        <ele>276.433984</ele>
        <time>2026-04-26T15:50:35.910Z</time>
      </trkpt>
      <trkpt lat="49.474044" lon="10.020936">
        <ele>276.106889</ele>
        <time>2026-04-26T15:50:42.757Z</time>
      </trkpt>
      <trkpt lat="49.474251" lon="10.020699">
        <ele>275.810647</ele>
        <time>2026-04-26T15:50:48.161Z</time>
      </trkpt>
      <trkpt lat="49.474819" lon="10.020337">
        <ele>275.104748</ele>
        <time>2026-04-26T15:50:59.049Z</time>
      </trkpt>
      <trkpt lat="49.476211" lon="10.019219">
        <ele>272.648825</ele>
        <time>2026-04-26T15:51:25.374Z</time>
      </trkpt>
      <trkpt lat="49.477370" lon="10.018020">
        <ele>271.376445</ele>
        <time>2026-04-26T15:51:54.936Z</time>
      </trkpt>
      <trkpt lat="49.477776" lon="10.017777">
        <ele>271.340839</ele>
        <time>2026-04-26T15:52:04.913Z</time>
      </trkpt>
      <trkpt lat="49.478836" lon="10.017402">
        <ele>271.186917</ele>
        <time>2026-04-26T15:52:29.270Z</time>
      </trkpt>
      <trkpt lat="49.479463" lon="10.017252">
        <ele>271.037577</ele>
        <time>2026-04-26T15:52:42.948Z</time>
      </trkpt>
      <trkpt lat="49.480464" lon="10.016839">
        <ele>270.248548</ele>
        <time>2026-04-26T15:53:05.292Z</time>
      </trkpt>
      <trkpt lat="49.480561" lon="10.016775">
        <ele>270.029021</ele>
        <time>2026-04-26T15:53:07.128Z</time>
      </trkpt>
      <trkpt lat="49.480783" lon="10.016515">
        <ele>269.448755</ele>
        <time>2026-04-26T15:53:11.967Z</time>
      </trkpt>
      <trkpt lat="49.480939" lon="10.016303">
        <ele>269.015877</ele>
        <time>2026-04-26T15:53:15.554Z</time>
      </trkpt>
      <trkpt lat="49.481037" lon="10.016355">
        <ele>268.800254</ele>
        <time>2026-04-26T15:53:17.251Z</time>
      </trkpt>
      <trkpt lat="49.481154" lon="10.016351">
        <ele>268.556822</ele>
        <time>2026-04-26T15:53:19.190Z</time>
      </trkpt>
      <trkpt lat="49.481603" lon="10.016239">
        <ele>267.610671</ele>
        <time>2026-04-26T15:53:26.740Z</time>
      </trkpt>
      <trkpt lat="49.481676" lon="10.016256">
        <ele>267.457095</ele>
        <time>2026-04-26T15:53:28.014Z</time>
      </trkpt>
      <trkpt lat="49.481883" lon="10.016464">
        <ele>267.010596</ele>
        <time>2026-04-26T15:53:32.050Z</time>
      </trkpt>
      <trkpt lat="49.481965" lon="10.016506">
        <ele>266.898844</ele>
        <time>2026-04-26T15:53:33.459Z</time>
      </trkpt>
      <trkpt lat="49.481981" lon="10.016508">
        <ele>266.878086</ele>
        <time>2026-04-26T15:53:33.703Z</time>
      </trkpt>
      <trkpt lat="49.482169" lon="10.016531">
        <ele>266.634214</ele>
        <time>2026-04-26T15:53:36.708Z</time>
      </trkpt>
      <trkpt lat="49.482305" lon="10.016466">
        <ele>266.450068</ele>
        <time>2026-04-26T15:53:39.132Z</time>
      </trkpt>
      <trkpt lat="49.483448" lon="10.015522">
        <ele>264.781430</ele>
        <time>2026-04-26T15:54:05.719Z</time>
      </trkpt>
      <trkpt lat="49.483500" lon="10.015443">
        <ele>264.722293</ele>
        <time>2026-04-26T15:54:07.386Z</time>
      </trkpt>
      <trkpt lat="49.483557" lon="10.015376">
        <ele>264.664243</ele>
        <time>2026-04-26T15:54:09.016Z</time>
      </trkpt>
      <trkpt lat="49.485035" lon="10.015308">
        <ele>263.467410</ele>
        <time>2026-04-26T15:54:38.379Z</time>
      </trkpt>
      <trkpt lat="49.486606" lon="10.015218">
        <ele>261.699996</ele>
        <time>2026-04-26T15:55:07.149Z</time>
      </trkpt>
      <trkpt lat="49.488637" lon="10.015318">
        <ele>261.430909</ele>
        <time>2026-04-26T15:55:50.090Z</time>
      </trkpt>
      <trkpt lat="49.488812" lon="10.015386">
        <ele>261.486845</ele>
        <time>2026-04-26T15:55:55.745Z</time>
      </trkpt>
      <trkpt lat="49.489178" lon="10.015691">
        <ele>262.037885</ele>
        <time>2026-04-26T15:56:09.203Z</time>
      </trkpt>
      <trkpt lat="49.489788" lon="10.015694">
        <ele>262.845544</ele>
        <time>2026-04-26T15:56:29.542Z</time>
      </trkpt>
      <trkpt lat="49.490368" lon="10.015717">
        <ele>263.613733</ele>
        <time>2026-04-26T15:56:45.102Z</time>
      </trkpt>
      <trkpt lat="49.490653" lon="10.015811">
        <ele>263.560817</ele>
        <time>2026-04-26T15:56:50.767Z</time>
      </trkpt>
      <trkpt lat="49.490944" lon="10.015968">
        <ele>262.922931</ele>
        <time>2026-04-26T15:56:56.300Z</time>
      </trkpt>
      <trkpt lat="49.491094" lon="10.016081">
        <ele>262.577468</ele>
        <time>2026-04-26T15:56:59.239Z</time>
      </trkpt>
      <trkpt lat="49.491412" lon="10.016399">
        <ele>261.793024</ele>
        <time>2026-04-26T15:57:05.715Z</time>
      </trkpt>
      <trkpt lat="49.491869" lon="10.016964">
        <ele>260.580520</ele>
        <time>2026-04-26T15:57:15.265Z</time>
      </trkpt>
      <trkpt lat="49.492070" lon="10.016954">
        <ele>260.164497</ele>
        <time>2026-04-26T15:57:18.578Z</time>
      </trkpt>
      <trkpt lat="49.492058" lon="10.017058">
        <ele>260.066726</ele>
        <time>2026-04-26T15:57:19.699Z</time>
      </trkpt>
      <trkpt lat="49.491979" lon="10.017065">
        <ele>259.988089</ele>
        <time>2026-04-26T15:57:21.048Z</time>
      </trkpt>
      <trkpt lat="49.491858" lon="10.017083">
        <ele>259.867285</ele>
        <time>2026-04-26T15:57:23.144Z</time>
      </trkpt>
      <trkpt lat="49.491365" lon="10.017251">
        <ele>259.365504</ele>
        <time>2026-04-26T15:57:32.616Z</time>
      </trkpt>
      <trkpt lat="49.491141" lon="10.017380">
        <ele>259.127837</ele>
        <time>2026-04-26T15:57:37.191Z</time>
      </trkpt>
      <trkpt lat="49.490883" lon="10.017582">
        <ele>258.840195</ele>
        <time>2026-04-26T15:57:42.873Z</time>
      </trkpt>
      <trkpt lat="49.490916" lon="10.019436">
        <ele>258.969458</ele>
        <time>2026-04-26T15:58:11.267Z</time>
      </trkpt>
      <trkpt lat="49.490947" lon="10.019517">
        <ele>259.027649</ele>
        <time>2026-04-26T15:58:12.848Z</time>
      </trkpt>
      <trkpt lat="49.491713" lon="10.020369">
        <ele>259.928121</ele>
        <time>2026-04-26T15:58:38.977Z</time>
      </trkpt>
      <trkpt lat="49.491817" lon="10.020538">
        <ele>260.089183</ele>
        <time>2026-04-26T15:58:43.262Z</time>
      </trkpt>
      <trkpt lat="49.491944" lon="10.020830">
        <ele>260.403338</ele>
        <time>2026-04-26T15:58:49.760Z</time>
      </trkpt>
      <trkpt lat="49.492004" lon="10.021080">
        <ele>260.641600</ele>
        <time>2026-04-26T15:58:54.803Z</time>
      </trkpt>
      <trkpt lat="49.492719" lon="10.021336">
        <ele>261.651910</ele>
        <time>2026-04-26T15:59:16.710Z</time>
      </trkpt>
      <trkpt lat="49.493329" lon="10.021417">
        <ele>262.494565</ele>
        <time>2026-04-26T15:59:33.111Z</time>
      </trkpt>
      <trkpt lat="49.495295" lon="10.021336">
        <ele>262.405992</ele>
        <time>2026-04-26T16:00:15.991Z</time>
      </trkpt>
      <trkpt lat="49.496020" lon="10.021228">
        <ele>261.847990</ele>
        <time>2026-04-26T16:00:30.711Z</time>
      </trkpt>
      <trkpt lat="49.496592" lon="10.021019">
        <ele>261.397622</ele>
        <time>2026-04-26T16:00:42.101Z</time>
      </trkpt>
      <trkpt lat="49.497387" lon="10.020586">
        <ele>260.597074</ele>
        <time>2026-04-26T16:00:58.152Z</time>
      </trkpt>
      <trkpt lat="49.498333" lon="10.019971">
        <ele>259.504148</ele>
        <time>2026-04-26T16:01:17.750Z</time>
      </trkpt>
      <trkpt lat="49.499481" lon="10.018947">
        <ele>258.141343</ele>
        <time>2026-04-26T16:01:43.288Z</time>
      </trkpt>
      <trkpt lat="49.499976" lon="10.018641">
        <ele>257.598114</ele>
        <time>2026-04-26T16:01:53.561Z</time>
      </trkpt>
      <trkpt lat="49.500432" lon="10.018443">
        <ele>257.168340</ele>
        <time>2026-04-26T16:02:02.681Z</time>
      </trkpt>
      <trkpt lat="49.500885" lon="10.018362">
        <ele>256.789294</ele>
        <time>2026-04-26T16:02:11.721Z</time>
      </trkpt>
      <trkpt lat="49.501510" lon="10.018390">
        <ele>256.269600</ele>
        <time>2026-04-26T16:02:24.247Z</time>
      </trkpt>
      <trkpt lat="49.502029" lon="10.018536">
        <ele>255.852554</ele>
        <time>2026-04-26T16:02:34.517Z</time>
      </trkpt>
      <trkpt lat="49.502538" lon="10.018803">
        <ele>255.531247</ele>
        <time>2026-04-26T16:02:45.099Z</time>
      </trkpt>
      <trkpt lat="49.502961" lon="10.019081">
        <ele>255.256433</ele>
        <time>2026-04-26T16:02:54.490Z</time>
      </trkpt>
      <trkpt lat="49.503398" lon="10.019305">
        <ele>254.981225</ele>
        <time>2026-04-26T16:03:04.034Z</time>
      </trkpt>
      <trkpt lat="49.503561" lon="10.019363">
        <ele>254.881260</ele>
        <time>2026-04-26T16:03:07.506Z</time>
      </trkpt>
      <trkpt lat="49.504022" lon="10.019446">
        <ele>254.594424</ele>
        <time>2026-04-26T16:03:17.221Z</time>
      </trkpt>
      <trkpt lat="49.504413" lon="10.019399">
        <ele>254.350350</ele>
        <time>2026-04-26T16:03:25.635Z</time>
      </trkpt>
      <trkpt lat="49.504603" lon="10.019246">
        <ele>254.216915</ele>
        <time>2026-04-26T16:03:30.127Z</time>
      </trkpt>
      <trkpt lat="49.504871" lon="10.019162">
        <ele>254.046709</ele>
        <time>2026-04-26T16:03:35.670Z</time>
      </trkpt>
      <trkpt lat="49.505933" lon="10.018642">
        <ele>253.186005</ele>
        <time>2026-04-26T16:03:57.008Z</time>
      </trkpt>
      <trkpt lat="49.506558" lon="10.018546">
        <ele>252.613676</ele>
        <time>2026-04-26T16:04:09.040Z</time>
      </trkpt>
      <trkpt lat="49.507184" lon="10.018606">
        <ele>252.090136</ele>
        <time>2026-04-26T16:04:21.171Z</time>
      </trkpt>
      <trkpt lat="49.507659" lon="10.018381">
        <ele>252.310882</ele>
        <time>2026-04-26T16:04:31.516Z</time>
      </trkpt>
      <trkpt lat="49.507961" lon="10.018094">
        <ele>252.468514</ele>
        <time>2026-04-26T16:04:39.795Z</time>
      </trkpt>
      <trkpt lat="49.508206" lon="10.018033">
        <ele>252.578754</ele>
        <time>2026-04-26T16:04:46.085Z</time>
      </trkpt>
      <trkpt lat="49.509192" lon="10.018044">
        <ele>253.012625</ele>
        <time>2026-04-26T16:05:13.683Z</time>
      </trkpt>
      <trkpt lat="49.509284" lon="10.018012">
        <ele>253.053318</ele>
        <time>2026-04-26T16:05:16.276Z</time>
      </trkpt>
      <trkpt lat="49.509430" lon="10.017835">
        <ele>253.133485</ele>
        <time>2026-04-26T16:05:21.295Z</time>
      </trkpt>
      <trkpt lat="49.509660" lon="10.017477">
        <ele>253.274573</ele>
        <time>2026-04-26T16:05:29.534Z</time>
      </trkpt>
      <trkpt lat="49.510079" lon="10.016285">
        <ele>253.642120</ele>
        <time>2026-04-26T16:05:48.427Z</time>
      </trkpt>
      <trkpt lat="49.510283" lon="10.015187">
        <ele>253.170659</ele>
        <time>2026-04-26T16:06:03.081Z</time>
      </trkpt>
      <trkpt lat="49.510354" lon="10.013854">
        <ele>252.618531</ele>
        <time>2026-04-26T16:06:20.659Z</time>
      </trkpt>
      <trkpt lat="49.510291" lon="10.012335">
        <ele>252.599542</ele>
        <time>2026-04-26T16:06:40.563Z</time>
      </trkpt>
      <trkpt lat="49.510304" lon="10.011789">
        <ele>252.640522</ele>
        <time>2026-04-26T16:06:48.336Z</time>
      </trkpt>
      <trkpt lat="49.510367" lon="10.011345">
        <ele>252.674610</ele>
        <time>2026-04-26T16:06:55.572Z</time>
      </trkpt>
      <trkpt lat="49.510564" lon="10.010924">
        <ele>252.713532</ele>
        <time>2026-04-26T16:07:04.628Z</time>
      </trkpt>
      <trkpt lat="49.511502" lon="10.010613">
        <ele>253.717177</ele>
        <time>2026-04-26T16:07:32.479Z</time>
      </trkpt>
      <trkpt lat="49.511999" lon="10.010363">
        <ele>254.264457</ele>
        <time>2026-04-26T16:07:47.070Z</time>
      </trkpt>
      <trkpt lat="49.512239" lon="10.010321">
        <ele>254.517294</ele>
        <time>2026-04-26T16:07:52.736Z</time>
      </trkpt>
      <trkpt lat="49.512645" lon="10.010398">
        <ele>254.183503</ele>
        <time>2026-04-26T16:08:00.973Z</time>
      </trkpt>
      <trkpt lat="49.512973" lon="10.010548">
        <ele>253.759989</ele>
        <time>2026-04-26T16:08:07.396Z</time>
      </trkpt>
      <trkpt lat="49.513058" lon="10.010072">
        <ele>253.363239</ele>
        <time>2026-04-26T16:08:13.277Z</time>
      </trkpt>
      <trkpt lat="49.513139" lon="10.009327">
        <ele>252.756172</ele>
        <time>2026-04-26T16:08:22.095Z</time>
      </trkpt>
      <trkpt lat="49.513108" lon="10.009203">
        <ele>252.649386</ele>
        <time>2026-04-26T16:08:23.625Z</time>
      </trkpt>
      <trkpt lat="49.513356" lon="10.008986">
        <ele>252.286174</ele>
        <time>2026-04-26T16:08:28.578Z</time>
      </trkpt>
      <trkpt lat="49.513498" lon="10.008874">
        <ele>252.061467</ele>
        <time>2026-04-26T16:08:31.397Z</time>
      </trkpt>
      <trkpt lat="49.513541" lon="10.008841">
        <ele>251.993800</ele>
        <time>2026-04-26T16:08:32.243Z</time>
      </trkpt>
      <trkpt lat="49.513830" lon="10.008656">
        <ele>251.552988</ele>
        <time>2026-04-26T16:08:37.984Z</time>
      </trkpt>
      <trkpt lat="49.514130" lon="10.008402">
        <ele>251.070806</ele>
        <time>2026-04-26T16:08:44.511Z</time>
      </trkpt>
      <trkpt lat="49.514331" lon="10.008227">
        <ele>250.745598</ele>
        <time>2026-04-26T16:08:48.935Z</time>
      </trkpt>
      <trkpt lat="49.514735" lon="10.008017">
        <ele>250.145035</ele>
        <time>2026-04-26T16:08:56.958Z</time>
      </trkpt>
      <trkpt lat="49.515166" lon="10.007925">
        <ele>249.562197</ele>
        <time>2026-04-26T16:09:05.039Z</time>
      </trkpt>
      <trkpt lat="49.515591" lon="10.007889">
        <ele>249.021803</ele>
        <time>2026-04-26T16:09:12.959Z</time>
      </trkpt>
      <trkpt lat="49.515656" lon="10.006757">
        <ele>248.085082</ele>
        <time>2026-04-26T16:09:26.477Z</time>
      </trkpt>
      <trkpt lat="49.515749" lon="10.005120">
        <ele>247.445408</ele>
        <time>2026-04-26T16:09:47.278Z</time>
      </trkpt>
      <trkpt lat="49.515775" lon="10.004679">
        <ele>247.397624</ele>
        <time>2026-04-26T16:09:53.443Z</time>
      </trkpt>
      <trkpt lat="49.515801" lon="10.004401">
        <ele>247.367316</ele>
        <time>2026-04-26T16:09:58.283Z</time>
      </trkpt>
      <trkpt lat="49.516000" lon="10.003026">
        <ele>247.263955</ele>
        <time>2026-04-26T16:10:20.063Z</time>
      </trkpt>
      <trkpt lat="49.516017" lon="10.002850">
        <ele>247.268810</ele>
        <time>2026-04-26T16:10:22.747Z</time>
      </trkpt>
      <trkpt lat="49.516020" lon="10.002819">
        <ele>247.269666</ele>
        <time>2026-04-26T16:10:23.236Z</time>
      </trkpt>
      <trkpt lat="49.516403" lon="10.002979">
        <ele>247.286346</ele>
        <time>2026-04-26T16:10:32.562Z</time>
      </trkpt>
      <trkpt lat="49.516802" lon="10.002972">
        <ele>247.303118</ele>
        <time>2026-04-26T16:10:42.127Z</time>
      </trkpt>
      <trkpt lat="49.516996" lon="10.002866">
        <ele>247.311770</ele>
        <time>2026-04-26T16:10:47.070Z</time>
      </trkpt>
      <trkpt lat="49.517158" lon="10.002713">
        <ele>247.319757</ele>
        <time>2026-04-26T16:10:51.063Z</time>
      </trkpt>
      <trkpt lat="49.517337" lon="10.002472">
        <ele>247.329519</ele>
        <time>2026-04-26T16:10:55.971Z</time>
      </trkpt>
      <trkpt lat="49.517900" lon="10.001950">
        <ele>246.930141</ele>
        <time>2026-04-26T16:11:10.712Z</time>
      </trkpt>
      <trkpt lat="49.518133" lon="10.001549">
        <ele>246.717805</ele>
        <time>2026-04-26T16:11:18.221Z</time>
      </trkpt>
      <trkpt lat="49.518545" lon="10.000639">
        <ele>246.280064</ele>
        <time>2026-04-26T16:11:32.917Z</time>
      </trkpt>
      <trkpt lat="49.518836" lon="9.999761">
        <ele>245.808053</ele>
        <time>2026-04-26T16:11:45.808Z</time>
      </trkpt>
      <trkpt lat="49.519081" lon="9.998875">
        <ele>245.336740</ele>
        <time>2026-04-26T16:11:58.479Z</time>
      </trkpt>
      <trkpt lat="49.519175" lon="9.998452">
        <ele>245.117928</ele>
        <time>2026-04-26T16:12:04.599Z</time>
      </trkpt>
      <trkpt lat="49.519218" lon="9.998119">
        <ele>244.951763</ele>
        <time>2026-04-26T16:12:09.401Z</time>
      </trkpt>
      <trkpt lat="49.519232" lon="9.997785">
        <ele>244.988648</ele>
        <time>2026-04-26T16:12:14.191Z</time>
      </trkpt>
      <trkpt lat="49.519217" lon="9.997531">
        <ele>245.134097</ele>
        <time>2026-04-26T16:12:17.867Z</time>
      </trkpt>
      <trkpt lat="49.519144" lon="9.997002">
        <ele>245.442515</ele>
        <time>2026-04-26T16:12:26.213Z</time>
      </trkpt>
      <trkpt lat="49.519004" lon="9.996284">
        <ele>245.870046</ele>
        <time>2026-04-26T16:12:39.548Z</time>
      </trkpt>
      <trkpt lat="49.518892" lon="9.995861">
        <ele>246.130567</ele>
        <time>2026-04-26T16:12:48.465Z</time>
      </trkpt>
      <trkpt lat="49.518613" lon="9.994732">
        <ele>246.847710</ele>
        <time>2026-04-26T16:13:12.851Z</time>
      </trkpt>
      <trkpt lat="49.518440" lon="9.993446">
        <ele>247.655584</ele>
        <time>2026-04-26T16:13:37.325Z</time>
      </trkpt>
      <trkpt lat="49.518372" lon="9.993071">
        <ele>247.895091</ele>
        <time>2026-04-26T16:13:43.373Z</time>
      </trkpt>
      <trkpt lat="49.518270" lon="9.992712">
        <ele>248.136150</ele>
        <time>2026-04-26T16:13:48.967Z</time>
      </trkpt>
      <trkpt lat="49.517881" lon="9.991535">
        <ele>247.213765</ele>
        <time>2026-04-26T16:14:06.316Z</time>
      </trkpt>
      <trkpt lat="49.517453" lon="9.990558">
        <ele>246.333786</ele>
        <time>2026-04-26T16:14:20.905Z</time>
      </trkpt>
      <trkpt lat="49.516825" lon="9.988996">
        <ele>244.792598</ele>
        <time>2026-04-26T16:14:43.789Z</time>
      </trkpt>
      <trkpt lat="49.516545" lon="9.988299">
        <ele>244.089218</ele>
        <time>2026-04-26T16:14:53.738Z</time>
      </trkpt>
      <trkpt lat="49.516598" lon="9.988211">
        <ele>243.986209</ele>
        <time>2026-04-26T16:14:55.192Z</time>
      </trkpt>
      <trkpt lat="49.517344" lon="9.987359">
        <ele>243.157052</ele>
        <time>2026-04-26T16:15:13.607Z</time>
      </trkpt>
      <trkpt lat="49.517361" lon="9.987238">
        <ele>243.094888</ele>
        <time>2026-04-26T16:15:15.186Z</time>
      </trkpt>
      <trkpt lat="49.517319" lon="9.987130">
        <ele>243.031674</ele>
        <time>2026-04-26T16:15:16.775Z</time>
      </trkpt>
      <trkpt lat="49.517220" lon="9.987020">
        <ele>242.937261</ele>
        <time>2026-04-26T16:15:19.191Z</time>
      </trkpt>
      <trkpt lat="49.514758" lon="9.984382">
        <ele>241.034553</ele>
        <time>2026-04-26T16:16:19.939Z</time>
      </trkpt>
      <trkpt lat="49.514682" lon="9.984362">
        <ele>240.994763</ele>
        <time>2026-04-26T16:16:21.482Z</time>
      </trkpt>
      <trkpt lat="49.514639" lon="9.984059">
        <ele>240.890843</ele>
        <time>2026-04-26T16:16:25.702Z</time>
      </trkpt>
      <trkpt lat="49.514604" lon="9.983713">
        <ele>240.773513</ele>
        <time>2026-04-26T16:16:30.480Z</time>
      </trkpt>
      <trkpt lat="49.514515" lon="9.982635">
        <ele>240.409409</ele>
        <time>2026-04-26T16:16:45.735Z</time>
      </trkpt>
      <trkpt lat="49.514414" lon="9.982246">
        <ele>240.310992</ele>
        <time>2026-04-26T16:16:51.639Z</time>
      </trkpt>
      <trkpt lat="49.514134" lon="9.981465">
        <ele>240.261995</ele>
        <time>2026-04-26T16:17:04.209Z</time>
      </trkpt>
      <trkpt lat="49.514009" lon="9.981104">
        <ele>240.239525</ele>
        <time>2026-04-26T16:17:10.093Z</time>
      </trkpt>
      <trkpt lat="49.513626" lon="9.979955">
        <ele>240.168590</ele>
        <time>2026-04-26T16:17:30.097Z</time>
      </trkpt>
      <trkpt lat="49.513540" lon="9.979711">
        <ele>240.251855</ele>
        <time>2026-04-26T16:17:34.623Z</time>
      </trkpt>
      <trkpt lat="49.513434" lon="9.979312">
        <ele>240.398065</ele>
        <time>2026-04-26T16:17:41.784Z</time>
      </trkpt>
      <trkpt lat="49.513345" lon="9.978176">
        <ele>240.786134</ele>
        <time>2026-04-26T16:18:00.831Z</time>
      </trkpt>
      <trkpt lat="49.513303" lon="9.977885">
        <ele>240.887236</ele>
        <time>2026-04-26T16:18:05.908Z</time>
      </trkpt>
      <trkpt lat="49.512983" lon="9.977322">
        <ele>241.104826</ele>
        <time>2026-04-26T16:18:18.389Z</time>
      </trkpt>
      <trkpt lat="49.512206" lon="9.975756">
        <ele>241.070321</ele>
        <time>2026-04-26T16:18:47.812Z</time>
      </trkpt>
      <trkpt lat="49.512057" lon="9.975406">
        <ele>241.062994</ele>
        <time>2026-04-26T16:18:53.840Z</time>
      </trkpt>
      <trkpt lat="49.512097" lon="9.975361">
        <ele>241.061658</ele>
        <time>2026-04-26T16:18:54.973Z</time>
      </trkpt>
      <trkpt lat="49.511769" lon="9.974392">
        <ele>240.974769</ele>
        <time>2026-04-26T16:19:09.862Z</time>
      </trkpt>
      <trkpt lat="49.511046" lon="9.972003">
        <ele>241.260198</ele>
        <time>2026-04-26T16:19:47.295Z</time>
      </trkpt>
      <trkpt lat="49.511028" lon="9.971920">
        <ele>241.313670</ele>
        <time>2026-04-26T16:19:48.710Z</time>
      </trkpt>
      <trkpt lat="49.510869" lon="9.971382">
        <ele>241.674873</ele>
        <time>2026-04-26T16:19:58.775Z</time>
      </trkpt>
      <trkpt lat="49.510832" lon="9.971162">
        <ele>241.813743</ele>
        <time>2026-04-26T16:20:02.899Z</time>
      </trkpt>
      <trkpt lat="49.510835" lon="9.970992">
        <ele>241.917661</ele>
        <time>2026-04-26T16:20:06.046Z</time>
      </trkpt>
      <trkpt lat="49.510704" lon="9.970864">
        <ele>242.063664</ele>
        <time>2026-04-26T16:20:10.698Z</time>
      </trkpt>
      <trkpt lat="49.510618" lon="9.970599">
        <ele>242.244695</ele>
        <time>2026-04-26T16:20:16.596Z</time>
      </trkpt>
      <trkpt lat="49.510385" lon="9.969652">
        <ele>242.351188</ele>
        <time>2026-04-26T16:20:36.504Z</time>
      </trkpt>
      <trkpt lat="49.510300" lon="9.969599">
        <ele>242.318687</ele>
        <time>2026-04-26T16:20:39.456Z</time>
      </trkpt>
      <trkpt lat="49.509980" lon="9.969129">
        <ele>242.161967</ele>
        <time>2026-04-26T16:20:52.643Z</time>
      </trkpt>
      <trkpt lat="49.509913" lon="9.969102">
        <ele>242.137422</ele>
        <time>2026-04-26T16:20:54.525Z</time>
      </trkpt>
      <trkpt lat="49.509749" lon="9.969256">
        <ele>242.069345</ele>
        <time>2026-04-26T16:20:58.417Z</time>
      </trkpt>
      <trkpt lat="49.508966" lon="9.969934">
        <ele>241.451588</ele>
        <time>2026-04-26T16:21:14.869Z</time>
      </trkpt>
      <trkpt lat="49.508962" lon="9.970076">
        <ele>241.323707</ele>
        <time>2026-04-26T16:21:17.009Z</time>
      </trkpt>
      <trkpt lat="49.508574" lon="9.970147">
        <ele>240.782304</ele>
        <time>2026-04-26T16:21:23.648Z</time>
      </trkpt>
      <trkpt lat="49.508477" lon="9.970171">
        <ele>240.646175</ele>
        <time>2026-04-26T16:21:25.355Z</time>
      </trkpt>
      <trkpt lat="49.508405" lon="9.970191">
        <ele>240.544801</ele>
        <time>2026-04-26T16:21:26.658Z</time>
      </trkpt>
      <trkpt lat="49.508197" lon="9.970229">
        <ele>240.254571</ele>
        <time>2026-04-26T16:21:30.456Z</time>
      </trkpt>
      <trkpt lat="49.508014" lon="9.970264">
        <ele>239.999054</ele>
        <time>2026-04-26T16:21:33.975Z</time>
      </trkpt>
      <trkpt lat="49.507600" lon="9.970344">
        <ele>239.420909</ele>
        <time>2026-04-26T16:21:42.732Z</time>
      </trkpt>
      <trkpt lat="49.507202" lon="9.970421">
        <ele>239.690184</ele>
        <time>2026-04-26T16:21:52.390Z</time>
      </trkpt>
      <trkpt lat="49.506982" lon="9.970486">
        <ele>239.895560</ele>
        <time>2026-04-26T16:21:58.141Z</time>
      </trkpt>
      <trkpt lat="49.506727" lon="9.970507">
        <ele>240.129679</ele>
        <time>2026-04-26T16:22:04.864Z</time>
      </trkpt>
      <trkpt lat="49.506104" lon="9.970307">
        <ele>240.713127</ele>
        <time>2026-04-26T16:22:22.787Z</time>
      </trkpt>
      <trkpt lat="49.506039" lon="9.970287">
        <ele>240.773897</ele>
        <time>2026-04-26T16:22:24.748Z</time>
      </trkpt>
      <trkpt lat="49.505823" lon="9.970196">
        <ele>240.979204</ele>
        <time>2026-04-26T16:22:31.222Z</time>
      </trkpt>
      <trkpt lat="49.505510" lon="9.970007">
        <ele>240.959170</ele>
        <time>2026-04-26T16:22:40.195Z</time>
      </trkpt>
      <trkpt lat="49.504974" lon="9.969327">
        <ele>240.840760</ele>
        <time>2026-04-26T16:22:56.302Z</time>
      </trkpt>
      <trkpt lat="49.504946" lon="9.969197">
        <ele>240.825595</ele>
        <time>2026-04-26T16:22:58.096Z</time>
      </trkpt>
      <trkpt lat="49.504541" lon="9.968529">
        <ele>240.724407</ele>
        <time>2026-04-26T16:23:09.565Z</time>
      </trkpt>
      <trkpt lat="49.504064" lon="9.967540">
        <ele>239.861345</ele>
        <time>2026-04-26T16:23:24.045Z</time>
      </trkpt>
      <trkpt lat="49.503691" lon="9.966893">
        <ele>239.165287</ele>
        <time>2026-04-26T16:23:34.504Z</time>
      </trkpt>
      <trkpt lat="49.503238" lon="9.966263">
        <ele>238.448061</ele>
        <time>2026-04-26T16:23:46.218Z</time>
      </trkpt>
      <trkpt lat="49.502742" lon="9.965573">
        <ele>238.104987</ele>
        <time>2026-04-26T16:23:59.634Z</time>
      </trkpt>
      <trkpt lat="49.502394" lon="9.965000">
        <ele>237.843494</ele>
        <time>2026-04-26T16:24:10.249Z</time>
      </trkpt>
      <trkpt lat="49.501356" lon="9.963336">
        <ele>237.283362</ele>
        <time>2026-04-26T16:24:42.152Z</time>
      </trkpt>
      <trkpt lat="49.501148" lon="9.962814">
        <ele>237.168443</ele>
        <time>2026-04-26T16:24:50.465Z</time>
      </trkpt>
      <trkpt lat="49.500853" lon="9.961941">
        <ele>237.053849</ele>
        <time>2026-04-26T16:25:03.837Z</time>
      </trkpt>
      <trkpt lat="49.499936" lon="9.959427">
        <ele>237.430906</ele>
        <time>2026-04-26T16:25:46.532Z</time>
      </trkpt>
      <trkpt lat="49.499682" lon="9.958723">
        <ele>237.806220</ele>
        <time>2026-04-26T16:26:00.220Z</time>
      </trkpt>
      <trkpt lat="49.499173" lon="9.957330">
        <ele>238.547919</ele>
        <time>2026-04-26T16:26:27.269Z</time>
      </trkpt>
      <trkpt lat="49.498628" lon="9.956032">
        <ele>238.735769</ele>
        <time>2026-04-26T16:26:50.945Z</time>
      </trkpt>
      <trkpt lat="49.498272" lon="9.955211">
        <ele>238.855746</ele>
        <time>2026-04-26T16:27:04.463Z</time>
      </trkpt>
      <trkpt lat="49.497731" lon="9.954033">
        <ele>239.515585</ele>
        <time>2026-04-26T16:27:25.689Z</time>
      </trkpt>
      <trkpt lat="49.496819" lon="9.953110">
        <ele>240.490285</ele>
        <time>2026-04-26T16:27:55.711Z</time>
      </trkpt>
      <trkpt lat="49.496716" lon="9.953037">
        <ele>240.720048</ele>
        <time>2026-04-26T16:27:59.128Z</time>
      </trkpt>
      <trkpt lat="49.496504" lon="9.953054">
        <ele>241.150213</ele>
        <time>2026-04-26T16:28:05.408Z</time>
      </trkpt>
      <trkpt lat="49.496189" lon="9.952997">
        <ele>241.792902</ele>
        <time>2026-04-26T16:28:14.621Z</time>
      </trkpt>
      <trkpt lat="49.496084" lon="9.952925">
        <ele>242.025815</ele>
        <time>2026-04-26T16:28:17.916Z</time>
      </trkpt>
      <trkpt lat="49.495199" lon="9.951612">
        <ele>244.998263</ele>
        <time>2026-04-26T16:28:55.569Z</time>
      </trkpt>
      <trkpt lat="49.494407" lon="9.950505">
        <ele>249.073727</ele>
        <time>2026-04-26T16:29:37.853Z</time>
      </trkpt>
      <trkpt lat="49.494008" lon="9.949383">
        <ele>251.655056</ele>
        <time>2026-04-26T16:30:11.313Z</time>
      </trkpt>
      <trkpt lat="49.493902" lon="9.948947">
        <ele>252.332500</ele>
        <time>2026-04-26T16:30:21.773Z</time>
      </trkpt>
      <trkpt lat="49.493575" lon="9.947820">
        <ele>254.128678</ele>
        <time>2026-04-26T16:30:45.500Z</time>
      </trkpt>
      <trkpt lat="49.493306" lon="9.946718">
        <ele>254.353925</ele>
        <time>2026-04-26T16:31:02.902Z</time>
      </trkpt>
      <trkpt lat="49.493171" lon="9.945956">
        <ele>253.777491</ele>
        <time>2026-04-26T16:31:13.540Z</time>
      </trkpt>
      <trkpt lat="49.493044" lon="9.943075">
        <ele>249.224138</ele>
        <time>2026-04-26T16:31:45.497Z</time>
      </trkpt>
      <trkpt lat="49.492925" lon="9.942701">
        <ele>248.279266</ele>
        <time>2026-04-26T16:31:49.766Z</time>
      </trkpt>
      <trkpt lat="49.493264" lon="9.940533">
        <ele>241.904273</ele>
        <time>2026-04-26T16:32:11.431Z</time>
      </trkpt>
      <trkpt lat="49.493782" lon="9.940428">
        <ele>239.357701</ele>
        <time>2026-04-26T16:32:19.208Z</time>
      </trkpt>
      <trkpt lat="49.493871" lon="9.940379">
        <ele>238.897003</ele>
        <time>2026-04-26T16:32:20.660Z</time>
      </trkpt>
      <trkpt lat="49.493969" lon="9.940269">
        <ele>238.305873</ele>
        <time>2026-04-26T16:32:22.526Z</time>
      </trkpt>
      <trkpt lat="49.494020" lon="9.940212">
        <ele>237.998700</ele>
        <time>2026-04-26T16:32:23.510Z</time>
      </trkpt>
      <trkpt lat="49.494183" lon="9.939774">
        <ele>237.390454</ele>
        <time>2026-04-26T16:32:28.763Z</time>
      </trkpt>
      <trkpt lat="49.494389" lon="9.938962">
        <ele>236.610186</ele>
        <time>2026-04-26T16:32:38.981Z</time>
      </trkpt>
      <trkpt lat="49.494686" lon="9.937808">
        <ele>235.499151</ele>
        <time>2026-04-26T16:32:56.957Z</time>
      </trkpt>
      <trkpt lat="49.494771" lon="9.937504">
        <ele>235.232679</ele>
        <time>2026-04-26T16:33:01.758Z</time>
      </trkpt>
      <trkpt lat="49.494872" lon="9.937189">
        <ele>235.012681</ele>
        <time>2026-04-26T16:33:06.725Z</time>
      </trkpt>
      <trkpt lat="49.495074" lon="9.936641">
        <ele>234.618079</ele>
        <time>2026-04-26T16:33:14.886Z</time>
      </trkpt>
      <trkpt lat="49.495372" lon="9.935556">
        <ele>233.880346</ele>
        <time>2026-04-26T16:33:29.125Z</time>
      </trkpt>
      <trkpt lat="49.495427" lon="9.935428">
        <ele>233.784232</ele>
        <time>2026-04-26T16:33:30.941Z</time>
      </trkpt>
      <trkpt lat="49.495504" lon="9.935369">
        <ele>233.701304</ele>
        <time>2026-04-26T16:33:32.500Z</time>
      </trkpt>
      <trkpt lat="49.495480" lon="9.935193">
        <ele>233.588682</ele>
        <time>2026-04-26T16:33:34.638Z</time>
      </trkpt>
      <trkpt lat="49.495457" lon="9.933997">
        <ele>232.880335</ele>
        <time>2026-04-26T16:33:49.379Z</time>
      </trkpt>
      <trkpt lat="49.495459" lon="9.932548">
        <ele>232.023942</ele>
        <time>2026-04-26T16:34:08.371Z</time>
      </trkpt>
      <trkpt lat="49.495481" lon="9.932234">
        <ele>231.865530</ele>
        <time>2026-04-26T16:34:12.460Z</time>
      </trkpt>
      <trkpt lat="49.495726" lon="9.929997">
        <ele>230.928319</ele>
        <time>2026-04-26T16:34:41.872Z</time>
      </trkpt>
      <trkpt lat="49.495754" lon="9.929812">
        <ele>230.849844</ele>
        <time>2026-04-26T16:34:44.419Z</time>
      </trkpt>
      <trkpt lat="49.495795" lon="9.929402">
        <ele>230.736938</ele>
        <time>2026-04-26T16:34:50.004Z</time>
      </trkpt>
      <trkpt lat="49.495884" lon="9.928709">
        <ele>230.602216</ele>
        <time>2026-04-26T16:34:59.640Z</time>
      </trkpt>
      <trkpt lat="49.495905" lon="9.927356">
        <ele>230.344109</ele>
        <time>2026-04-26T16:35:18.484Z</time>
      </trkpt>
      <trkpt lat="49.495896" lon="9.924541">
        <ele>230.020256</ele>
        <time>2026-04-26T16:35:58.094Z</time>
      </trkpt>
      <trkpt lat="49.495956" lon="9.923051">
        <ele>229.895777</ele>
        <time>2026-04-26T16:36:18.967Z</time>
      </trkpt>
      <trkpt lat="49.495977" lon="9.919278">
        <ele>229.677026</ele>
        <time>2026-04-26T16:37:12.624Z</time>
      </trkpt>
      <trkpt lat="49.495674" lon="9.915576">
        <ele>230.009495</ele>
        <time>2026-04-26T16:38:07.194Z</time>
      </trkpt>
      <trkpt lat="49.495640" lon="9.914486">
        <ele>230.678495</ele>
        <time>2026-04-26T16:38:24.042Z</time>
      </trkpt>
      <trkpt lat="49.495552" lon="9.911575">
        <ele>234.252410</ele>
        <time>2026-04-26T16:39:18.121Z</time>
      </trkpt>
      <trkpt lat="49.495139" lon="9.908575">
        <ele>240.144964</ele>
        <time>2026-04-26T16:40:35.843Z</time>
      </trkpt>
      <trkpt lat="49.495065" lon="9.907273">
        <ele>241.849078</ele>
        <time>2026-04-26T16:41:00.055Z</time>
      </trkpt>
      <trkpt lat="49.494864" lon="9.905820">
        <ele>241.008885</ele>
        <time>2026-04-26T16:41:19.139Z</time>
      </trkpt>
      <trkpt lat="49.494804" lon="9.905610">
        <ele>240.879133</ele>
        <time>2026-04-26T16:41:21.875Z</time>
      </trkpt>
      <trkpt lat="49.493846" lon="9.903597">
        <ele>236.356435</ele>
        <time>2026-04-26T16:41:49.090Z</time>
      </trkpt>
      <trkpt lat="49.493389" lon="9.902794">
        <ele>233.949779</ele>
        <time>2026-04-26T16:41:59.523Z</time>
      </trkpt>
      <trkpt lat="49.493115" lon="9.902382">
        <ele>232.841490</ele>
        <time>2026-04-26T16:42:05.227Z</time>
      </trkpt>
      <trkpt lat="49.493059" lon="9.902186">
        <ele>232.439031</ele>
        <time>2026-04-26T16:42:07.312Z</time>
      </trkpt>
      <trkpt lat="49.493041" lon="9.902005">
        <ele>232.094865</ele>
        <time>2026-04-26T16:42:09.138Z</time>
      </trkpt>
      <trkpt lat="49.493002" lon="9.901152">
        <ele>230.487627</ele>
        <time>2026-04-26T16:42:18.079Z</time>
      </trkpt>
      <trkpt lat="49.492956" lon="9.901033">
        <ele>230.227347</ele>
        <time>2026-04-26T16:42:19.640Z</time>
      </trkpt>
      <trkpt lat="49.491158" lon="9.901302">
        <ele>230.085494</ele>
        <time>2026-04-26T16:43:05.096Z</time>
      </trkpt>
      <trkpt lat="49.490818" lon="9.901407">
        <ele>230.379653</ele>
        <time>2026-04-26T16:43:15.210Z</time>
      </trkpt>
      <trkpt lat="49.490271" lon="9.901577">
        <ele>230.941910</ele>
        <time>2026-04-26T16:43:31.235Z</time>
      </trkpt>
      <trkpt lat="49.488951" lon="9.901855">
        <ele>232.326627</ele>
        <time>2026-04-26T16:44:06.255Z</time>
      </trkpt>
      <trkpt lat="49.488886" lon="9.901822">
        <ele>232.281910</ele>
        <time>2026-04-26T16:44:07.861Z</time>
      </trkpt>
      <trkpt lat="49.488795" lon="9.901721">
        <ele>232.205418</ele>
        <time>2026-04-26T16:44:10.328Z</time>
      </trkpt>
      <trkpt lat="49.488768" lon="9.901814">
        <ele>232.160299</ele>
        <time>2026-04-26T16:44:11.859Z</time>
      </trkpt>
      <trkpt lat="49.488678" lon="9.901968">
        <ele>232.068548</ele>
        <time>2026-04-26T16:44:14.777Z</time>
      </trkpt>
      <trkpt lat="49.488618" lon="9.902038">
        <ele>232.017216</ele>
        <time>2026-04-26T16:44:16.348Z</time>
      </trkpt>
      <trkpt lat="49.488530" lon="9.901957">
        <ele>231.947306</ele>
        <time>2026-04-26T16:44:18.501Z</time>
      </trkpt>
      <trkpt lat="49.488432" lon="9.901999">
        <ele>231.877944</ele>
        <time>2026-04-26T16:44:20.573Z</time>
      </trkpt>
      <trkpt lat="49.488353" lon="9.901900">
        <ele>231.808487</ele>
        <time>2026-04-26T16:44:22.582Z</time>
      </trkpt>
      <trkpt lat="49.488236" lon="9.901832">
        <ele>231.723216</ele>
        <time>2026-04-26T16:44:25.039Z</time>
      </trkpt>
      <trkpt lat="49.488106" lon="9.901783">
        <ele>231.631958</ele>
        <time>2026-04-26T16:44:27.630Z</time>
      </trkpt>
      <trkpt lat="49.487560" lon="9.901495">
        <ele>231.238425</ele>
        <time>2026-04-26T16:44:38.436Z</time>
      </trkpt>
      <trkpt lat="49.487518" lon="9.901473">
        <ele>231.208175</ele>
        <time>2026-04-26T16:44:39.228Z</time>
      </trkpt>
      <trkpt lat="49.487232" lon="9.901322">
        <ele>230.910314</ele>
        <time>2026-04-26T16:44:44.762Z</time>
      </trkpt>
      <trkpt lat="49.486550" lon="9.900741">
        <ele>229.888514</ele>
        <time>2026-04-26T16:44:59.253Z</time>
      </trkpt>
      <trkpt lat="49.485947" lon="9.900208">
        <ele>228.976999</ele>
        <time>2026-04-26T16:45:12.384Z</time>
      </trkpt>
      <trkpt lat="49.485108" lon="9.899659">
        <ele>227.954350</ele>
        <time>2026-04-26T16:45:29.516Z</time>
      </trkpt>
      <trkpt lat="49.484055" lon="9.899055">
        <ele>226.825668</ele>
        <time>2026-04-26T16:45:50.942Z</time>
      </trkpt>
      <trkpt lat="49.483688" lon="9.899101">
        <ele>226.933062</ele>
        <time>2026-04-26T16:45:58.410Z</time>
      </trkpt>
      <trkpt lat="49.483657" lon="9.899063">
        <ele>226.944621</ele>
        <time>2026-04-26T16:45:59.247Z</time>
      </trkpt>
      <trkpt lat="49.483592" lon="9.899299">
        <ele>226.993191</ele>
        <time>2026-04-26T16:46:02.977Z</time>
      </trkpt>
      <trkpt lat="49.483545" lon="9.899290">
        <ele>227.007005</ele>
        <time>2026-04-26T16:46:04.082Z</time>
      </trkpt>
      <trkpt lat="49.483109" lon="9.899213">
        <ele>227.135004</ele>
        <time>2026-04-26T16:46:14.972Z</time>
      </trkpt>
      <trkpt lat="49.482856" lon="9.899218">
        <ele>227.208801</ele>
        <time>2026-04-26T16:46:21.781Z</time>
      </trkpt>
      <trkpt lat="49.482806" lon="9.899696">
        <ele>227.300541</ele>
        <time>2026-04-26T16:46:30.242Z</time>
      </trkpt>
      <trkpt lat="49.482689" lon="9.900363">
        <ele>227.473378</ele>
        <time>2026-04-26T16:46:41.142Z</time>
      </trkpt>
      <trkpt lat="49.482597" lon="9.900253">
        <ele>227.521844</ele>
        <time>2026-04-26T16:46:44.146Z</time>
      </trkpt>
      <trkpt lat="49.482436" lon="9.900071">
        <ele>227.604949</ele>
        <time>2026-04-26T16:46:49.347Z</time>
      </trkpt>
      <trkpt lat="49.482423" lon="9.900060">
        <ele>227.611121</ele>
        <time>2026-04-26T16:46:49.738Z</time>
      </trkpt>
      <trkpt lat="49.482289" lon="9.899853">
        <ele>227.690104</ele>
        <time>2026-04-26T16:46:54.306Z</time>
      </trkpt>
      <trkpt lat="49.482369" lon="9.899771">
        <ele>227.730092</ele>
        <time>2026-04-26T16:46:56.536Z</time>
      </trkpt>
      <trkpt lat="49.482435" lon="9.899635">
        <ele>227.775975</ele>
        <time>2026-04-26T16:46:59.060Z</time>
      </trkpt>
      <trkpt lat="49.482430" lon="9.899537">
        <ele>227.802545</ele>
        <time>2026-04-26T16:47:00.523Z</time>
      </trkpt>
      <trkpt lat="49.482379" lon="9.899398">
        <ele>227.845692</ele>
        <time>2026-04-26T16:47:02.835Z</time>
      </trkpt>
      <trkpt lat="49.482253" lon="9.899176">
        <ele>227.925370</ele>
        <time>2026-04-26T16:47:07.100Z</time>
      </trkpt>
      <trkpt lat="49.482183" lon="9.899062">
        <ele>227.967768</ele>
        <time>2026-04-26T16:47:09.370Z</time>
      </trkpt>
      <trkpt lat="49.482083" lon="9.898786">
        <ele>228.053185</ele>
        <time>2026-04-26T16:47:13.954Z</time>
      </trkpt>
      <trkpt lat="49.482099" lon="9.898565">
        <ele>228.182025</ele>
        <time>2026-04-26T16:47:17.175Z</time>
      </trkpt>
      <trkpt lat="49.482091" lon="9.898443">
        <ele>228.286703</ele>
        <time>2026-04-26T16:47:19.026Z</time>
      </trkpt>
      <trkpt lat="49.481786" lon="9.898189">
        <ele>228.742370</ele>
        <time>2026-04-26T16:47:27.082Z</time>
      </trkpt>
      <trkpt lat="49.481716" lon="9.898071">
        <ele>228.878780</ele>
        <time>2026-04-26T16:47:29.602Z</time>
      </trkpt>
      <trkpt lat="49.481687" lon="9.897595">
        <ele>229.286919</ele>
        <time>2026-04-26T16:47:38.029Z</time>
      </trkpt>
      <trkpt lat="49.481747" lon="9.897478">
        <ele>229.414167</ele>
        <time>2026-04-26T16:47:40.909Z</time>
      </trkpt>
      <trkpt lat="49.481754" lon="9.897345">
        <ele>229.528079</ele>
        <time>2026-04-26T16:47:43.363Z</time>
      </trkpt>
      <trkpt lat="49.481787" lon="9.897299">
        <ele>229.586580</ele>
        <time>2026-04-26T16:47:44.683Z</time>
      </trkpt>
      <trkpt lat="49.481877" lon="9.897296">
        <ele>229.704867</ele>
        <time>2026-04-26T16:47:47.488Z</time>
      </trkpt>
      <trkpt lat="49.481787" lon="9.897299">
        <ele>229.823154</ele>
        <time>2026-04-26T16:47:50.438Z</time>
      </trkpt>
      <trkpt lat="49.481754" lon="9.897345">
        <ele>229.881655</ele>
        <time>2026-04-26T16:47:51.806Z</time>
      </trkpt>
      <trkpt lat="49.481747" lon="9.897478">
        <ele>229.995567</ele>
        <time>2026-04-26T16:47:54.630Z</time>
      </trkpt>
      <trkpt lat="49.481687" lon="9.897595">
        <ele>230.122815</ele>
        <time>2026-04-26T16:47:57.751Z</time>
      </trkpt>
      <trkpt lat="49.481644" lon="9.897602">
        <ele>230.179632</ele>
        <time>2026-04-26T16:47:59.169Z</time>
      </trkpt>
      <trkpt lat="49.481558" lon="9.897611">
        <ele>230.292896</ele>
        <time>2026-04-26T16:48:05.146Z</time>
      </trkpt>
      <trkpt lat="49.481410" lon="9.897624">
        <ele>230.491471</ele>
        <time>2026-04-26T16:48:15.466Z</time>
      </trkpt>
      <trkpt lat="49.481293" lon="9.897635">
        <ele>230.659115</ele>
        <time>2026-04-26T16:48:19.368Z</time>
      </trkpt>
      <trkpt lat="49.481149" lon="9.897689">
        <ele>230.871086</ele>
        <time>2026-04-26T16:48:24.002Z</time>
      </trkpt>
      <trkpt lat="49.481114" lon="9.897780">
        <ele>230.969348</ele>
        <time>2026-04-26T16:48:25.990Z</time>
      </trkpt>
      <trkpt lat="49.481047" lon="9.898278">
        <ele>231.441902</ele>
        <time>2026-04-26T16:48:35.417Z</time>
      </trkpt>
      <trkpt lat="49.481037" lon="9.898687">
        <ele>231.822211</ele>
        <time>2026-04-26T16:48:43.811Z</time>
      </trkpt>
      <trkpt lat="49.481049" lon="9.899017">
        <ele>232.129324</ele>
        <time>2026-04-26T16:48:50.615Z</time>
      </trkpt>
      <trkpt lat="49.481196" lon="9.899135">
        <ele>232.366435</ele>
        <time>2026-04-26T16:48:55.104Z</time>
      </trkpt>
      <trkpt lat="49.481257" lon="9.899173">
        <ele>232.460551</ele>
        <time>2026-04-26T16:48:56.751Z</time>
      </trkpt>
      <trkpt lat="49.481410" lon="9.899261">
        <ele>232.694148</ele>
        <time>2026-04-26T16:49:00.762Z</time>
      </trkpt>
      <trkpt lat="49.481257" lon="9.899173">
        <ele>232.927745</ele>
        <time>2026-04-26T16:49:04.734Z</time>
      </trkpt>
      <trkpt lat="49.481196" lon="9.899135">
        <ele>233.019344</ele>
        <time>2026-04-26T16:49:06.355Z</time>
      </trkpt>
      <trkpt lat="49.481049" lon="9.899017">
        <ele>233.127264</ele>
        <time>2026-04-26T16:49:10.225Z</time>
      </trkpt>
      <trkpt lat="49.481037" lon="9.898687">
        <ele>233.267044</ele>
        <time>2026-04-26T16:49:15.134Z</time>
      </trkpt>
      <trkpt lat="49.481047" lon="9.898278">
        <ele>233.440138</ele>
        <time>2026-04-26T16:49:21.615Z</time>
      </trkpt>
      <trkpt lat="49.480792" lon="9.898111">
        <ele>233.620529</ele>
        <time>2026-04-26T16:49:29.414Z</time>
      </trkpt>
      <trkpt lat="49.480742" lon="9.898012">
        <ele>233.673560</ele>
        <time>2026-04-26T16:49:31.872Z</time>
      </trkpt>
      <trkpt lat="49.480708" lon="9.897974">
        <ele>233.700911</ele>
        <time>2026-04-26T16:49:33.067Z</time>
      </trkpt>
      <trkpt lat="49.480638" lon="9.897954">
        <ele>233.747255</ele>
        <time>2026-04-26T16:49:35.059Z</time>
      </trkpt>
      <trkpt lat="49.480549" lon="9.897929">
        <ele>233.806146</ele>
        <time>2026-04-26T16:49:37.521Z</time>
      </trkpt>
      <trkpt lat="49.480493" lon="9.897995">
        <ele>233.852058</ele>
        <time>2026-04-26T16:49:39.407Z</time>
      </trkpt>
      <trkpt lat="49.480508" lon="9.898088">
        <ele>233.892583</ele>
        <time>2026-04-26T16:49:41.025Z</time>
      </trkpt>
      <trkpt lat="49.480488" lon="9.898573">
        <ele>234.098112</ele>
        <time>2026-04-26T16:49:49.446Z</time>
      </trkpt>
      <trkpt lat="49.480480" lon="9.898759">
        <ele>234.176947</ele>
        <time>2026-04-26T16:49:52.749Z</time>
      </trkpt>
      <trkpt lat="49.480473" lon="9.898946">
        <ele>234.073757</ele>
        <time>2026-04-26T16:49:55.929Z</time>
      </trkpt>
      <trkpt lat="49.480398" lon="9.899011">
        <ele>233.979748</ele>
        <time>2026-04-26T16:49:58.553Z</time>
      </trkpt>
      <trkpt lat="49.480398" lon="9.899244">
        <ele>233.814407</ele>
        <time>2026-04-26T16:50:01.943Z</time>
      </trkpt>
      <trkpt lat="49.480399" lon="9.899387">
        <ele>233.712926</ele>
        <time>2026-04-26T16:50:03.796Z</time>
      </trkpt>
      <trkpt lat="49.480525" lon="9.899753">
        <ele>233.418999</ele>
        <time>2026-04-26T16:50:09.133Z</time>
      </trkpt>
      <trkpt lat="49.480668" lon="9.899930">
        <ele>233.218575</ele>
        <time>2026-04-26T16:50:12.673Z</time>
      </trkpt>
      <trkpt lat="49.480877" lon="9.900032">
        <ele>232.979102</ele>
        <time>2026-04-26T16:50:16.779Z</time>
      </trkpt>
      <trkpt lat="49.481325" lon="9.900112">
        <ele>232.486510</ele>
        <time>2026-04-26T16:50:24.392Z</time>
      </trkpt>
      <trkpt lat="49.481048" lon="9.900938">
        <ele>232.028352</ele>
        <time>2026-04-26T16:50:34.992Z</time>
      </trkpt>
      <trkpt lat="49.481136" lon="9.901020">
        <ele>231.973060</ele>
        <time>2026-04-26T16:50:36.825Z</time>
      </trkpt>
      <trkpt lat="49.481216" lon="9.901096">
        <ele>231.922529</ele>
        <time>2026-04-26T16:50:38.529Z</time>
      </trkpt>
      <trkpt lat="49.481302" lon="9.901178">
        <ele>231.868154</ele>
        <time>2026-04-26T16:50:40.447Z</time>
      </trkpt>
      <trkpt lat="49.481216" lon="9.901324">
        <ele>231.799334</ele>
        <time>2026-04-26T16:50:43.031Z</time>
      </trkpt>
      <trkpt lat="49.481152" lon="9.901449">
        <ele>231.743757</ele>
        <time>2026-04-26T16:50:45.326Z</time>
      </trkpt>
      <trkpt lat="49.481055" lon="9.901668">
        <ele>231.651199</ele>
        <time>2026-04-26T16:50:49.359Z</time>
      </trkpt>
      <trkpt lat="49.480774" lon="9.902851">
        <ele>231.342858</ele>
        <time>2026-04-26T16:51:09.795Z</time>
      </trkpt>
      <trkpt lat="49.480740" lon="9.902979">
        <ele>231.434307</ele>
        <time>2026-04-26T16:51:12.386Z</time>
      </trkpt>
      <trkpt lat="49.480454" lon="9.903818">
        <ele>232.060879</ele>
        <time>2026-04-26T16:51:28.741Z</time>
      </trkpt>
      <trkpt lat="49.480398" lon="9.903990">
        <ele>232.188108</ele>
        <time>2026-04-26T16:51:32.087Z</time>
      </trkpt>
      <trkpt lat="49.480166" lon="9.904338">
        <ele>232.517846</ele>
        <time>2026-04-26T16:51:40.920Z</time>
      </trkpt>
      <trkpt lat="49.479813" lon="9.904948">
        <ele>233.058065</ele>
        <time>2026-04-26T16:51:55.161Z</time>
      </trkpt>
      <trkpt lat="49.479616" lon="9.905232">
        <ele>233.567849</ele>
        <time>2026-04-26T16:52:02.746Z</time>
      </trkpt>
      <trkpt lat="49.479115" lon="9.906552">
        <ele>235.547767</ele>
        <time>2026-04-26T16:52:32.653Z</time>
      </trkpt>
      <trkpt lat="49.478977" lon="9.906894">
        <ele>236.069179</ele>
        <time>2026-04-26T16:52:41.006Z</time>
      </trkpt>
      <trkpt lat="49.478668" lon="9.907585">
        <ele>237.007278</ele>
        <time>2026-04-26T16:52:58.737Z</time>
      </trkpt>
      <trkpt lat="49.478230" lon="9.908870">
        <ele>238.309089</ele>
        <time>2026-04-26T16:53:28.053Z</time>
      </trkpt>
      <trkpt lat="49.478140" lon="9.909227">
        <ele>238.652628</ele>
        <time>2026-04-26T16:53:34.312Z</time>
      </trkpt>
      <trkpt lat="49.478086" lon="9.909823">
        <ele>239.118863</ele>
        <time>2026-04-26T16:53:42.958Z</time>
      </trkpt>
      <trkpt lat="49.477773" lon="9.911246">
        <ele>237.714214</ele>
        <time>2026-04-26T16:54:00.640Z</time>
      </trkpt>
      <trkpt lat="49.477630" lon="9.911794">
        <ele>237.162065</ele>
        <time>2026-04-26T16:54:07.216Z</time>
      </trkpt>
      <trkpt lat="49.477809" lon="9.912069">
        <ele>236.798115</ele>
        <time>2026-04-26T16:54:11.661Z</time>
      </trkpt>
      <trkpt lat="49.477868" lon="9.912156">
        <ele>236.680535</ele>
        <time>2026-04-26T16:54:14.303Z</time>
      </trkpt>
      <trkpt lat="49.477874" lon="9.912263">
        <ele>236.580120</ele>
        <time>2026-04-26T16:54:15.573Z</time>
      </trkpt>
      <trkpt lat="49.477803" lon="9.912463">
        <ele>236.590021</ele>
        <time>2026-04-26T16:54:18.318Z</time>
      </trkpt>
      <trkpt lat="49.477749" lon="9.912568">
        <ele>236.603615</ele>
        <time>2026-04-26T16:54:19.981Z</time>
      </trkpt>
      <trkpt lat="49.477661" lon="9.913106">
        <ele>236.659936</ele>
        <time>2026-04-26T16:54:27.149Z</time>
      </trkpt>
      <trkpt lat="49.476835" lon="9.916441">
        <ele>237.892013</ele>
        <time>2026-04-26T16:55:27.315Z</time>
      </trkpt>
      <trkpt lat="49.476533" lon="9.917545">
        <ele>238.601910</ele>
        <time>2026-04-26T16:55:47.801Z</time>
      </trkpt>
      <trkpt lat="49.476178" lon="9.918587">
        <ele>239.121376</ele>
        <time>2026-04-26T16:56:06.869Z</time>
      </trkpt>
      <trkpt lat="49.475722" lon="9.919619">
        <ele>239.672399</ele>
        <time>2026-04-26T16:56:26.552Z</time>
      </trkpt>
      <trkpt lat="49.475145" lon="9.920609">
        <ele>240.684966</ele>
        <time>2026-04-26T16:56:48.559Z</time>
      </trkpt>
      <trkpt lat="49.474899" lon="9.920942">
        <ele>241.098970</ele>
        <time>2026-04-26T16:56:57.604Z</time>
      </trkpt>
      <trkpt lat="49.474160" lon="9.921960">
        <ele>242.503739</ele>
        <time>2026-04-26T16:57:26.400Z</time>
      </trkpt>
      <trkpt lat="49.473873" lon="9.922286">
        <ele>243.171496</ele>
        <time>2026-04-26T16:57:37.405Z</time>
      </trkpt>
      <trkpt lat="49.473637" lon="9.922497">
        <ele>243.682430</ele>
        <time>2026-04-26T16:57:45.796Z</time>
      </trkpt>
      <trkpt lat="49.473302" lon="9.922837">
        <ele>244.433646</ele>
        <time>2026-04-26T16:57:58.410Z</time>
      </trkpt>
      <trkpt lat="49.471505" lon="9.924261">
        <ele>247.203689</ele>
        <time>2026-04-26T16:58:58.048Z</time>
      </trkpt>
      <trkpt lat="49.470127" lon="9.925005">
        <ele>247.287324</ele>
        <time>2026-04-26T16:59:30.759Z</time>
      </trkpt>
      <trkpt lat="49.468462" lon="9.926037">
        <ele>246.643593</ele>
        <time>2026-04-26T17:00:08.826Z</time>
      </trkpt>
      <trkpt lat="49.468053" lon="9.926245">
        <ele>246.459462</ele>
        <time>2026-04-26T17:00:18.128Z</time>
      </trkpt>
      <trkpt lat="49.467275" lon="9.926454">
        <ele>246.760862</ele>
        <time>2026-04-26T17:00:36.477Z</time>
      </trkpt>
      <trkpt lat="49.467149" lon="9.926412">
        <ele>246.847190</ele>
        <time>2026-04-26T17:00:39.725Z</time>
      </trkpt>
      <trkpt lat="49.467010" lon="9.926387">
        <ele>246.940899</ele>
        <time>2026-04-26T17:00:43.334Z</time>
      </trkpt>
      <trkpt lat="49.466692" lon="9.926618">
        <ele>247.176371</ele>
        <time>2026-04-26T17:00:52.782Z</time>
      </trkpt>
      <trkpt lat="49.466234" lon="9.926786">
        <ele>247.491647</ele>
        <time>2026-04-26T17:01:05.961Z</time>
      </trkpt>
      <trkpt lat="49.465915" lon="9.927025">
        <ele>247.824133</ele>
        <time>2026-04-26T17:01:16.305Z</time>
      </trkpt>
      <trkpt lat="49.465747" lon="9.927110">
        <ele>248.015534</ele>
        <time>2026-04-26T17:01:21.562Z</time>
      </trkpt>
      <trkpt lat="49.465382" lon="9.927160">
        <ele>248.412130</ele>
        <time>2026-04-26T17:01:32.163Z</time>
      </trkpt>
      <trkpt lat="49.464615" lon="9.927150">
        <ele>249.242272</ele>
        <time>2026-04-26T17:01:52.893Z</time>
      </trkpt>
      <trkpt lat="49.463464" lon="9.927037">
        <ele>250.276402</ele>
        <time>2026-04-26T17:02:22.498Z</time>
      </trkpt>
      <trkpt lat="49.461926" lon="9.926691">
        <ele>251.782193</ele>
        <time>2026-04-26T17:03:04.960Z</time>
      </trkpt>
      <trkpt lat="49.461593" lon="9.926655">
        <ele>252.163861</ele>
        <time>2026-04-26T17:03:14.407Z</time>
      </trkpt>
      <trkpt lat="49.461434" lon="9.926679">
        <ele>252.346524</ele>
        <time>2026-04-26T17:03:18.943Z</time>
      </trkpt>
      <trkpt lat="49.461073" lon="9.926891">
        <ele>252.788311</ele>
        <time>2026-04-26T17:03:29.810Z</time>
      </trkpt>
      <trkpt lat="49.460277" lon="9.927060">
        <ele>253.839469</ele>
        <time>2026-04-26T17:03:51.557Z</time>
      </trkpt>
      <trkpt lat="49.459450" lon="9.926980">
        <ele>254.991778</ele>
        <time>2026-04-26T17:04:14.061Z</time>
      </trkpt>
      <trkpt lat="49.457960" lon="9.927042">
        <ele>258.703228</ele>
        <time>2026-04-26T17:05:02.683Z</time>
      </trkpt>
      <trkpt lat="49.457965" lon="9.927233">
        <ele>259.068802</ele>
        <time>2026-04-26T17:05:08.200Z</time>
      </trkpt>
      <trkpt lat="49.457463" lon="9.927272">
        <ele>260.547672</ele>
        <time>2026-04-26T17:05:27.372Z</time>
      </trkpt>
      <trkpt lat="49.456190" lon="9.927332">
        <ele>264.796920</ele>
        <time>2026-04-26T17:06:14.788Z</time>
      </trkpt>
      <trkpt lat="49.455950" lon="9.927454">
        <ele>265.650191</ele>
        <time>2026-04-26T17:06:23.326Z</time>
      </trkpt>
      <trkpt lat="49.455839" lon="9.927600">
        <ele>266.143192</ele>
        <time>2026-04-26T17:06:28.290Z</time>
      </trkpt>
      <trkpt lat="49.455666" lon="9.927921">
        <ele>267.001613</ele>
        <time>2026-04-26T17:06:37.515Z</time>
      </trkpt>
      <trkpt lat="49.455658" lon="9.927939">
        <ele>267.021976</ele>
        <time>2026-04-26T17:06:38.024Z</time>
      </trkpt>
      <trkpt lat="49.455518" lon="9.928110">
        <ele>267.278799</ele>
        <time>2026-04-26T17:06:44.019Z</time>
      </trkpt>
      <trkpt lat="49.455529" lon="9.928283">
        <ele>267.441134</ele>
        <time>2026-04-26T17:06:47.700Z</time>
      </trkpt>
      <trkpt lat="49.455293" lon="9.929547">
        <ele>268.669307</ele>
        <time>2026-04-26T17:07:13.923Z</time>
      </trkpt>
      <trkpt lat="49.455041" lon="9.930624">
        <ele>269.335002</ele>
        <time>2026-04-26T17:07:32.493Z</time>
      </trkpt>
      <trkpt lat="49.454836" lon="9.931329">
        <ele>268.561016</ele>
        <time>2026-04-26T17:07:42.174Z</time>
      </trkpt>
      <trkpt lat="49.454745" lon="9.931425">
        <ele>268.390905</ele>
        <time>2026-04-26T17:07:44.234Z</time>
      </trkpt>
      <trkpt lat="49.454713" lon="9.931377">
        <ele>268.322001</ele>
        <time>2026-04-26T17:07:44.999Z</time>
      </trkpt>
      <trkpt lat="49.454475" lon="9.931012">
        <ele>267.803898</ele>
        <time>2026-04-26T17:07:50.900Z</time>
      </trkpt>
      <trkpt lat="49.454385" lon="9.930818">
        <ele>267.565045</ele>
        <time>2026-04-26T17:07:53.587Z</time>
      </trkpt>
      <trkpt lat="49.454428" lon="9.930732">
        <ele>267.456312</ele>
        <time>2026-04-26T17:07:54.804Z</time>
      </trkpt>
      <trkpt lat="49.454474" lon="9.930425">
        <ele>267.140580</ele>
        <time>2026-04-26T17:07:58.340Z</time>
      </trkpt>
      <trkpt lat="49.454459" lon="9.929924">
        <ele>266.570384</ele>
        <time>2026-04-26T17:08:03.976Z</time>
      </trkpt>
      <trkpt lat="49.454409" lon="9.929370">
        <ele>265.724790</ele>
        <time>2026-04-26T17:08:10.291Z</time>
      </trkpt>
      <trkpt lat="49.454390" lon="9.928764">
        <ele>264.807549</ele>
        <time>2026-04-26T17:08:17.147Z</time>
      </trkpt>
      <trkpt lat="49.454430" lon="9.928298">
        <ele>264.096916</ele>
        <time>2026-04-26T17:08:22.445Z</time>
      </trkpt>
      <trkpt lat="49.454464" lon="9.928156">
        <ele>263.868134</ele>
        <time>2026-04-26T17:08:24.115Z</time>
      </trkpt>
      <trkpt lat="49.454530" lon="9.928075">
        <ele>263.671773</ele>
        <time>2026-04-26T17:08:25.537Z</time>
      </trkpt>
      <trkpt lat="49.454465" lon="9.927708">
        <ele>263.096703</ele>
        <time>2026-04-26T17:08:29.659Z</time>
      </trkpt>
      <trkpt lat="49.454373" lon="9.927308">
        <ele>262.598889</ele>
        <time>2026-04-26T17:08:34.243Z</time>
      </trkpt>
      <trkpt lat="49.454311" lon="9.927069">
        <ele>262.631754</ele>
        <time>2026-04-26T17:08:37.032Z</time>
      </trkpt>
      <trkpt lat="49.454228" lon="9.926750">
        <ele>262.675638</ele>
        <time>2026-04-26T17:08:40.879Z</time>
      </trkpt>
      <trkpt lat="49.454201" lon="9.926531">
        <ele>262.704106</ele>
        <time>2026-04-26T17:08:43.529Z</time>
      </trkpt>
      <trkpt lat="49.454181" lon="9.925840">
        <ele>262.792445</ele>
        <time>2026-04-26T17:08:53.348Z</time>
      </trkpt>
      <trkpt lat="49.454109" lon="9.925337">
        <ele>262.858225</ele>
        <time>2026-04-26T17:09:03.298Z</time>
      </trkpt>
      <trkpt lat="49.454102" lon="9.925290">
        <ele>262.864383</ele>
        <time>2026-04-26T17:09:04.240Z</time>
      </trkpt>
      <trkpt lat="49.453986" lon="9.924479">
        <ele>263.286211</ele>
        <time>2026-04-26T17:09:22.148Z</time>
      </trkpt>
      <trkpt lat="49.453956" lon="9.924304">
        <ele>263.557906</ele>
        <time>2026-04-26T17:09:26.218Z</time>
      </trkpt>
      <trkpt lat="49.453910" lon="9.924045">
        <ele>263.960973</ele>
        <time>2026-04-26T17:09:32.496Z</time>
      </trkpt>
      <trkpt lat="49.452891" lon="9.924687">
        <ele>266.503931</ele>
        <time>2026-04-26T17:10:10.113Z</time>
      </trkpt>
      <trkpt lat="49.451517" lon="9.925263">
        <ele>267.426956</ele>
        <time>2026-04-26T17:10:46.170Z</time>
      </trkpt>
      <trkpt lat="49.450144" lon="9.925434">
        <ele>266.861364</ele>
        <time>2026-04-26T17:11:15.451Z</time>
      </trkpt>
      <trkpt lat="49.449535" lon="9.925455">
        <ele>266.254068</ele>
        <time>2026-04-26T17:11:27.492Z</time>
      </trkpt>
      <trkpt lat="49.449043" lon="9.925407">
        <ele>265.777669</ele>
        <time>2026-04-26T17:11:36.996Z</time>
      </trkpt>
      <trkpt lat="49.448397" lon="9.925255">
        <ele>265.320995</ele>
        <time>2026-04-26T17:11:49.890Z</time>
      </trkpt>
      <trkpt lat="49.447969" lon="9.925082">
        <ele>265.011755</ele>
        <time>2026-04-26T17:11:59.406Z</time>
      </trkpt>
      <trkpt lat="49.447591" lon="9.924804">
        <ele>264.718968</ele>
        <time>2026-04-26T17:12:08.701Z</time>
      </trkpt>
      <trkpt lat="49.447164" lon="9.924579">
        <ele>264.602909</ele>
        <time>2026-04-26T17:12:18.587Z</time>
      </trkpt>
      <trkpt lat="49.446665" lon="9.924486">
        <ele>264.710562</ele>
        <time>2026-04-26T17:12:30.333Z</time>
      </trkpt>
      <trkpt lat="49.446325" lon="9.924507">
        <ele>264.783439</ele>
        <time>2026-04-26T17:12:38.506Z</time>
      </trkpt>
      <trkpt lat="49.446118" lon="9.924451">
        <ele>264.828453</ele>
        <time>2026-04-26T17:12:43.450Z</time>
      </trkpt>
      <trkpt lat="49.445000" lon="9.923869">
        <ele>265.953461</ele>
        <time>2026-04-26T17:13:13.750Z</time>
      </trkpt>
      <trkpt lat="49.444613" lon="9.923551">
        <ele>266.633399</ele>
        <time>2026-04-26T17:13:26.988Z</time>
      </trkpt>
      <trkpt lat="49.444389" lon="9.923301">
        <ele>267.062284</ele>
        <time>2026-04-26T17:13:35.601Z</time>
      </trkpt>
      <trkpt lat="49.444188" lon="9.922999">
        <ele>267.497725</ele>
        <time>2026-04-26T17:13:44.594Z</time>
      </trkpt>
      <trkpt lat="49.443766" lon="9.922334">
        <ele>268.593635</ele>
        <time>2026-04-26T17:14:05.576Z</time>
      </trkpt>
      <trkpt lat="49.443519" lon="9.921852">
        <ele>269.351941</ele>
        <time>2026-04-26T17:14:17.856Z</time>
      </trkpt>
      <trkpt lat="49.443199" lon="9.921338">
        <ele>270.231245</ele>
        <time>2026-04-26T17:14:31.274Z</time>
      </trkpt>
      <trkpt lat="49.442586" lon="9.920816">
        <ele>271.376280</ele>
        <time>2026-04-26T17:14:52.389Z</time>
      </trkpt>
      <trkpt lat="49.442057" lon="9.920427">
        <ele>271.991027</ele>
        <time>2026-04-26T17:15:07.804Z</time>
      </trkpt>
      <trkpt lat="49.441867" lon="9.920237">
        <ele>272.228632</ele>
        <time>2026-04-26T17:15:13.798Z</time>
      </trkpt>
      <trkpt lat="49.440624" lon="9.919400">
        <ele>273.488303</ele>
        <time>2026-04-26T17:15:47.967Z</time>
      </trkpt>
      <trkpt lat="49.440410" lon="9.919290">
        <ele>273.662570</ele>
        <time>2026-04-26T17:15:52.844Z</time>
      </trkpt>
      <trkpt lat="49.439708" lon="9.918961">
        <ele>274.229364</ele>
        <time>2026-04-26T17:16:10.279Z</time>
      </trkpt>
      <trkpt lat="49.439101" lon="9.918726">
        <ele>275.807434</ele>
        <time>2026-04-26T17:16:28.187Z</time>
      </trkpt>
      <trkpt lat="49.438423" lon="9.918352">
        <ele>278.454991</ele>
        <time>2026-04-26T17:16:56.504Z</time>
      </trkpt>
      <trkpt lat="49.438224" lon="9.918258">
        <ele>279.220171</ele>
        <time>2026-04-26T17:17:06.030Z</time>
      </trkpt>
      <trkpt lat="49.437458" lon="9.918081">
        <ele>281.766554</ele>
        <time>2026-04-26T17:17:39.092Z</time>
      </trkpt>
      <trkpt lat="49.437430" lon="9.918010">
        <ele>281.907327</ele>
        <time>2026-04-26T17:17:41.212Z</time>
      </trkpt>
      <trkpt lat="49.437475" lon="9.917692">
        <ele>282.459053</ele>
        <time>2026-04-26T17:17:49.195Z</time>
      </trkpt>
      <trkpt lat="49.437312" lon="9.917646">
        <ele>282.891099</ele>
        <time>2026-04-26T17:17:55.306Z</time>
      </trkpt>
      <trkpt lat="49.436600" lon="9.917311">
        <ele>284.832263</ele>
        <time>2026-04-26T17:18:19.007Z</time>
      </trkpt>
      <trkpt lat="49.436027" lon="9.916979">
        <ele>285.966823</ele>
        <time>2026-04-26T17:18:34.099Z</time>
      </trkpt>
      <trkpt lat="49.433954" lon="9.915380">
        <ele>287.694015</ele>
        <time>2026-04-26T17:19:36.378Z</time>
      </trkpt>
      <trkpt lat="49.432943" lon="9.914647">
        <ele>288.107522</ele>
        <time>2026-04-26T17:20:03.663Z</time>
      </trkpt>
      <trkpt lat="49.432397" lon="9.914203">
        <ele>287.950678</ele>
        <time>2026-04-26T17:20:15.858Z</time>
      </trkpt>
      <trkpt lat="49.432354" lon="9.914213">
        <ele>287.939634</ele>
        <time>2026-04-26T17:20:16.809Z</time>
      </trkpt>
      <trkpt lat="49.432179" lon="9.914585">
        <ele>287.863812</ele>
        <time>2026-04-26T17:20:23.419Z</time>
      </trkpt>
      <trkpt lat="49.432093" lon="9.914631">
        <ele>287.840690</ele>
        <time>2026-04-26T17:20:25.486Z</time>
      </trkpt>
      <trkpt lat="49.431317" lon="9.914275">
        <ele>287.746638</ele>
        <time>2026-04-26T17:20:43.873Z</time>
      </trkpt>
      <trkpt lat="49.430982" lon="9.914072">
        <ele>287.887920</ele>
        <time>2026-04-26T17:20:53.340Z</time>
      </trkpt>
      <trkpt lat="49.430679" lon="9.914003">
        <ele>288.008104</ele>
        <time>2026-04-26T17:21:01.913Z</time>
      </trkpt>
      <trkpt lat="49.430009" lon="9.914015">
        <ele>288.271008</ele>
        <time>2026-04-26T17:21:18.067Z</time>
      </trkpt>
      <trkpt lat="49.428926" lon="9.914138">
        <ele>288.531114</ele>
        <time>2026-04-26T17:21:41.300Z</time>
      </trkpt>
      <trkpt lat="49.428730" lon="9.914276">
        <ele>288.570767</ele>
        <time>2026-04-26T17:21:46.965Z</time>
      </trkpt>
      <trkpt lat="49.428642" lon="9.914307">
        <ele>288.587374</ele>
        <time>2026-04-26T17:21:49.394Z</time>
      </trkpt>
      <trkpt lat="49.428368" lon="9.914247">
        <ele>288.638283</ele>
        <time>2026-04-26T17:21:56.633Z</time>
      </trkpt>
      <trkpt lat="49.427488" lon="9.914545">
        <ele>288.686541</ele>
        <time>2026-04-26T17:22:16.666Z</time>
      </trkpt>
      <trkpt lat="49.426950" lon="9.914867">
        <ele>288.651846</ele>
        <time>2026-04-26T17:22:27.225Z</time>
      </trkpt>
      <trkpt lat="49.426367" lon="9.915161">
        <ele>288.614975</ele>
        <time>2026-04-26T17:22:42.220Z</time>
      </trkpt>
      <trkpt lat="49.426244" lon="9.915267">
        <ele>288.624894</ele>
        <time>2026-04-26T17:22:45.949Z</time>
      </trkpt>
      <trkpt lat="49.426057" lon="9.915336">
        <ele>288.853905</ele>
        <time>2026-04-26T17:22:51.300Z</time>
      </trkpt>
      <trkpt lat="49.425874" lon="9.915340">
        <ele>289.071850</ele>
        <time>2026-04-26T17:22:56.341Z</time>
      </trkpt>
      <trkpt lat="49.425749" lon="9.915308">
        <ele>289.222755</ele>
        <time>2026-04-26T17:22:59.715Z</time>
      </trkpt>
      <trkpt lat="49.425436" lon="9.915363">
        <ele>289.597914</ele>
        <time>2026-04-26T17:23:08.898Z</time>
      </trkpt>
      <trkpt lat="49.424998" lon="9.915651">
        <ele>290.165202</ele>
        <time>2026-04-26T17:23:24.089Z</time>
      </trkpt>
      <trkpt lat="49.424827" lon="9.915802">
        <ele>290.400035</ele>
        <time>2026-04-26T17:23:29.549Z</time>
      </trkpt>
      <trkpt lat="49.424170" lon="9.916083">
        <ele>290.691985</ele>
        <time>2026-04-26T17:23:44.509Z</time>
      </trkpt>
      <trkpt lat="49.423786" lon="9.916355">
        <ele>290.629661</ele>
        <time>2026-04-26T17:23:52.351Z</time>
      </trkpt>
      <trkpt lat="49.423588" lon="9.916542">
        <ele>290.595407</ele>
        <time>2026-04-26T17:23:56.950Z</time>
      </trkpt>
      <trkpt lat="49.422867" lon="9.917002">
        <ele>290.460065</ele>
        <time>2026-04-26T17:24:15.435Z</time>
      </trkpt>
      <trkpt lat="49.422382" lon="9.917186">
        <ele>289.994353</ele>
        <time>2026-04-26T17:24:27.650Z</time>
      </trkpt>
      <trkpt lat="49.422054" lon="9.917246">
        <ele>289.686413</ele>
        <time>2026-04-26T17:24:34.030Z</time>
      </trkpt>
      <trkpt lat="49.421751" lon="9.917374">
        <ele>289.393466</ele>
        <time>2026-04-26T17:24:39.756Z</time>
      </trkpt>
      <trkpt lat="49.420882" lon="9.917772">
        <ele>288.681837</ele>
        <time>2026-04-26T17:24:55.974Z</time>
      </trkpt>
      <trkpt lat="49.420525" lon="9.917872">
        <ele>288.518039</ele>
        <time>2026-04-26T17:25:02.217Z</time>
      </trkpt>
      <trkpt lat="49.419982" lon="9.917868">
        <ele>288.272934</ele>
        <time>2026-04-26T17:25:13.476Z</time>
      </trkpt>
      <trkpt lat="49.419394" lon="9.917948">
        <ele>288.006481</ele>
        <time>2026-04-26T17:25:30.243Z</time>
      </trkpt>
      <trkpt lat="49.418887" lon="9.917969">
        <ele>288.408462</ele>
        <time>2026-04-26T17:25:45.462Z</time>
      </trkpt>
      <trkpt lat="49.417893" lon="9.918110">
        <ele>289.262477</ele>
        <time>2026-04-26T17:26:11.728Z</time>
      </trkpt>
      <trkpt lat="49.417510" lon="9.918105">
        <ele>289.611527</ele>
        <time>2026-04-26T17:26:20.783Z</time>
      </trkpt>
      <trkpt lat="49.417090" lon="9.918154">
        <ele>290.109630</ele>
        <time>2026-04-26T17:26:31.031Z</time>
      </trkpt>
      <trkpt lat="49.416965" lon="9.918182">
        <ele>290.259011</ele>
        <time>2026-04-26T17:26:34.162Z</time>
      </trkpt>
      <trkpt lat="49.416910" lon="9.918150">
        <ele>290.328555</ele>
        <time>2026-04-26T17:26:35.635Z</time>
      </trkpt>
      <trkpt lat="49.416854" lon="9.918011">
        <ele>290.454334</ele>
        <time>2026-04-26T17:26:38.309Z</time>
      </trkpt>
      <trkpt lat="49.416693" lon="9.917775">
        <ele>290.717417</ele>
        <time>2026-04-26T17:26:43.997Z</time>
      </trkpt>
      <trkpt lat="49.415566" lon="9.916654">
        <ele>293.109581</ele>
        <time>2026-04-26T17:27:26.014Z</time>
      </trkpt>
      <trkpt lat="49.415234" lon="9.916114">
        <ele>294.395894</ele>
        <time>2026-04-26T17:27:43.948Z</time>
      </trkpt>
      <trkpt lat="49.415067" lon="9.915941">
        <ele>294.931816</ele>
        <time>2026-04-26T17:27:51.309Z</time>
      </trkpt>
      <trkpt lat="49.414633" lon="9.915761">
        <ele>296.128067</ele>
        <time>2026-04-26T17:28:06.829Z</time>
      </trkpt>
      <trkpt lat="49.414023" lon="9.915627">
        <ele>297.660991</ele>
        <time>2026-04-26T17:28:26.457Z</time>
      </trkpt>
      <trkpt lat="49.413557" lon="9.915607">
        <ele>298.801136</ele>
        <time>2026-04-26T17:28:40.983Z</time>
      </trkpt>
      <trkpt lat="49.413172" lon="9.915524">
        <ele>299.751951</ele>
        <time>2026-04-26T17:28:53.309Z</time>
      </trkpt>
      <trkpt lat="49.412081" lon="9.915088">
        <ele>302.236740</ele>
        <time>2026-04-26T17:29:33.260Z</time>
      </trkpt>
      <trkpt lat="49.411675" lon="9.914978">
        <ele>303.079900</ele>
        <time>2026-04-26T17:29:47.883Z</time>
      </trkpt>
      <trkpt lat="49.410843" lon="9.914911">
        <ele>304.479494</ele>
        <time>2026-04-26T17:30:10.705Z</time>
      </trkpt>
      <trkpt lat="49.410013" lon="9.914981">
        <ele>304.178166</ele>
        <time>2026-04-26T17:30:27.731Z</time>
      </trkpt>
      <trkpt lat="49.409490" lon="9.914966">
        <ele>303.988545</ele>
        <time>2026-04-26T17:30:38.119Z</time>
      </trkpt>
      <trkpt lat="49.408491" lon="9.914667">
        <ele>306.394499</ele>
        <time>2026-04-26T17:31:02.164Z</time>
      </trkpt>
      <trkpt lat="49.408320" lon="9.914650">
        <ele>307.011788</ele>
        <time>2026-04-26T17:31:07.673Z</time>
      </trkpt>
      <trkpt lat="49.407730" lon="9.914817">
        <ele>309.172921</ele>
        <time>2026-04-26T17:31:34.111Z</time>
      </trkpt>
      <trkpt lat="49.407502" lon="9.914805">
        <ele>309.994738</ele>
        <time>2026-04-26T17:31:46.256Z</time>
      </trkpt>
      <trkpt lat="49.407466" lon="9.914757">
        <ele>310.166426</ele>
        <time>2026-04-26T17:31:48.836Z</time>
      </trkpt>
      <trkpt lat="49.407440" lon="9.914554">
        <ele>310.953002</ele>
        <time>2026-04-26T17:31:56.493Z</time>
      </trkpt>
      <trkpt lat="49.407444" lon="9.914041">
        <ele>313.369731</ele>
        <time>2026-04-26T17:32:16.222Z</time>
      </trkpt>
      <trkpt lat="49.407390" lon="9.913918">
        <ele>314.068693</ele>
        <time>2026-04-26T17:32:22.157Z</time>
      </trkpt>
      <trkpt lat="49.407242" lon="9.913783">
        <ele>315.314665</ele>
        <time>2026-04-26T17:32:32.862Z</time>
      </trkpt>
      <trkpt lat="49.406999" lon="9.913724">
        <ele>317.095707</ele>
        <time>2026-04-26T17:32:48.541Z</time>
      </trkpt>
      <trkpt lat="49.406250" lon="9.913666">
        <ele>322.525051</ele>
        <time>2026-04-26T17:33:27.313Z</time>
      </trkpt>
      <trkpt lat="49.405985" lon="9.913776">
        <ele>323.530700</ele>
        <time>2026-04-26T17:33:37.195Z</time>
      </trkpt>
      <trkpt lat="49.405829" lon="9.913935">
        <ele>323.717136</ele>
        <time>2026-04-26T17:33:43.129Z</time>
      </trkpt>
      <trkpt lat="49.405785" lon="9.914053">
        <ele>323.805274</ele>
        <time>2026-04-26T17:33:45.536Z</time>
      </trkpt>
      <trkpt lat="49.405619" lon="9.914257">
        <ele>324.016965</ele>
        <time>2026-04-26T17:33:51.380Z</time>
      </trkpt>
      <trkpt lat="49.405528" lon="9.914348">
        <ele>324.125096</ele>
        <time>2026-04-26T17:33:54.001Z</time>
      </trkpt>
      <trkpt lat="49.405386" lon="9.914436">
        <ele>324.277590</ele>
        <time>2026-04-26T17:33:57.554Z</time>
      </trkpt>
      <trkpt lat="49.404556" lon="9.914946">
        <ele>325.159406</ele>
        <time>2026-04-26T17:34:15.804Z</time>
      </trkpt>
      <trkpt lat="49.404115" lon="9.915230">
        <ele>323.928946</ele>
        <time>2026-04-26T17:34:25.672Z</time>
      </trkpt>
      <trkpt lat="49.404052" lon="9.915281">
        <ele>323.745707</ele>
        <time>2026-04-26T17:34:27.074Z</time>
      </trkpt>
      <trkpt lat="49.403825" lon="9.915480">
        <ele>323.073194</ele>
        <time>2026-04-26T17:34:31.789Z</time>
      </trkpt>
      <trkpt lat="49.403393" lon="9.915886">
        <ele>321.770098</ele>
        <time>2026-04-26T17:34:40.118Z</time>
      </trkpt>
      <trkpt lat="49.403029" lon="9.916229">
        <ele>320.671323</ele>
        <time>2026-04-26T17:34:46.670Z</time>
      </trkpt>
      <trkpt lat="49.402216" lon="9.916842">
        <ele>317.224260</ele>
        <time>2026-04-26T17:35:00.306Z</time>
      </trkpt>
      <trkpt lat="49.401756" lon="9.917179">
        <ele>315.246059</ele>
        <time>2026-04-26T17:35:08.406Z</time>
      </trkpt>
      <trkpt lat="49.401874" lon="9.917601">
        <ele>314.085789</ele>
        <time>2026-04-26T17:35:13.504Z</time>
      </trkpt>
      <trkpt lat="49.401523" lon="9.917842">
        <ele>313.032895</ele>
        <time>2026-04-26T17:35:20.452Z</time>
      </trkpt>
      <trkpt lat="49.401297" lon="9.917997">
        <ele>312.511303</ele>
        <time>2026-04-26T17:35:24.947Z</time>
      </trkpt>
      <trkpt lat="49.401239" lon="9.918084">
        <ele>312.340482</ele>
        <time>2026-04-26T17:35:26.418Z</time>
      </trkpt>
      <trkpt lat="49.401271" lon="9.917814">
        <ele>311.964085</ele>
        <time>2026-04-26T17:35:29.719Z</time>
      </trkpt>
      <trkpt lat="49.401239" lon="9.918084">
        <ele>311.587688</ele>
        <time>2026-04-26T17:35:33.057Z</time>
      </trkpt>
      <trkpt lat="49.401136" lon="9.918607">
        <ele>310.838263</ele>
        <time>2026-04-26T17:35:41.798Z</time>
      </trkpt>
      <trkpt lat="49.401111" lon="9.918735">
        <ele>310.654974</ele>
        <time>2026-04-26T17:35:43.915Z</time>
      </trkpt>
      <trkpt lat="49.401020" lon="9.919182">
        <ele>310.012611</ele>
        <time>2026-04-26T17:35:49.505Z</time>
      </trkpt>
      <trkpt lat="49.400900" lon="9.919162">
        <ele>309.761173</ele>
        <time>2026-04-26T17:35:51.691Z</time>
      </trkpt>
      <trkpt lat="49.400619" lon="9.919117">
        <ele>309.461287</ele>
        <time>2026-04-26T17:35:56.725Z</time>
      </trkpt>
      <trkpt lat="49.400512" lon="9.919114">
        <ele>309.347692</ele>
        <time>2026-04-26T17:35:58.637Z</time>
      </trkpt>
      <trkpt lat="49.400430" lon="9.919124">
        <ele>309.260379</ele>
        <time>2026-04-26T17:36:00.139Z</time>
      </trkpt>
      <trkpt lat="49.400300" lon="9.919134">
        <ele>309.122216</ele>
        <time>2026-04-26T17:36:02.559Z</time>
      </trkpt>
      <trkpt lat="49.399842" lon="9.919185">
        <ele>308.634793</ele>
        <time>2026-04-26T17:36:11.722Z</time>
      </trkpt>
      <trkpt lat="49.399366" lon="9.919259">
        <ele>308.126959</ele>
        <time>2026-04-26T17:36:22.195Z</time>
      </trkpt>
      <trkpt lat="49.399306" lon="9.919275">
        <ele>308.062320</ele>
        <time>2026-04-26T17:36:23.532Z</time>
      </trkpt>
      <trkpt lat="49.399173" lon="9.919322">
        <ele>307.917461</ele>
        <time>2026-04-26T17:36:26.604Z</time>
      </trkpt>
      <trkpt lat="49.399025" lon="9.919404">
        <ele>307.987724</ele>
        <time>2026-04-26T17:36:30.246Z</time>
      </trkpt>
      <trkpt lat="49.398711" lon="9.919609">
        <ele>308.447668</ele>
        <time>2026-04-26T17:36:38.565Z</time>
      </trkpt>
      <trkpt lat="49.398446" lon="9.919730">
        <ele>308.820366</ele>
        <time>2026-04-26T17:36:46.075Z</time>
      </trkpt>
      <trkpt lat="49.398240" lon="9.919806">
        <ele>309.105978</ele>
        <time>2026-04-26T17:36:52.257Z</time>
      </trkpt>
      <trkpt lat="49.398076" lon="9.919985">
        <ele>309.377176</ele>
        <time>2026-04-26T17:36:58.297Z</time>
      </trkpt>
      <trkpt lat="49.398008" lon="9.920145">
        <ele>309.544838</ele>
        <time>2026-04-26T17:37:02.126Z</time>
      </trkpt>
      <trkpt lat="49.397981" lon="9.920208">
        <ele>309.611021</ele>
        <time>2026-04-26T17:37:03.675Z</time>
      </trkpt>
      <trkpt lat="49.397766" lon="9.920092">
        <ele>309.918222</ele>
        <time>2026-04-26T17:37:10.776Z</time>
      </trkpt>
      <trkpt lat="49.397491" lon="9.919986">
        <ele>310.315973</ele>
        <time>2026-04-26T17:37:19.764Z</time>
      </trkpt>
      <trkpt lat="49.397350" lon="9.919950">
        <ele>310.653646</ele>
        <time>2026-04-26T17:37:24.333Z</time>
      </trkpt>
      <trkpt lat="49.396982" lon="9.919960">
        <ele>311.523162</ele>
        <time>2026-04-26T17:37:36.371Z</time>
      </trkpt>
      <trkpt lat="49.396916" lon="9.919984">
        <ele>311.683391</ele>
        <time>2026-04-26T17:37:38.649Z</time>
      </trkpt>
      <trkpt lat="49.396759" lon="9.920050">
        <ele>312.067926</ele>
        <time>2026-04-26T17:37:44.097Z</time>
      </trkpt>
      <trkpt lat="49.396512" lon="9.920280">
        <ele>312.750242</ele>
        <time>2026-04-26T17:37:53.383Z</time>
      </trkpt>
      <trkpt lat="49.396484" lon="9.920211">
        <ele>312.875265</ele>
        <time>2026-04-26T17:37:55.079Z</time>
      </trkpt>
      <trkpt lat="49.396390" lon="9.920124">
        <ele>313.134510</ele>
        <time>2026-04-26T17:37:58.586Z</time>
      </trkpt>
      <trkpt lat="49.396320" lon="9.920100">
        <ele>313.303948</ele>
        <time>2026-04-26T17:38:00.894Z</time>
      </trkpt>
      <trkpt lat="49.396078" lon="9.920271">
        <ele>313.933219</ele>
        <time>2026-04-26T17:38:09.676Z</time>
      </trkpt>
      <trkpt lat="49.395930" lon="9.920401">
        <ele>314.335962</ele>
        <time>2026-04-26T17:38:15.240Z</time>
      </trkpt>
      <trkpt lat="49.395685" lon="9.920616">
        <ele>314.828959</ele>
        <time>2026-04-26T17:38:23.987Z</time>
      </trkpt>
      <trkpt lat="49.395402" lon="9.920843">
        <ele>315.306714</ele>
        <time>2026-04-26T17:38:33.610Z</time>
      </trkpt>
      <trkpt lat="49.395353" lon="9.920933">
        <ele>315.421001</ele>
        <time>2026-04-26T17:38:35.897Z</time>
      </trkpt>
      <trkpt lat="49.395294" lon="9.921055">
        <ele>315.569041</ele>
        <time>2026-04-26T17:38:38.820Z</time>
      </trkpt>
      <trkpt lat="49.394729" lon="9.921652">
        <ele>316.595224</ele>
        <time>2026-04-26T17:38:58.817Z</time>
      </trkpt>
      <trkpt lat="49.394065" lon="9.922051">
        <ele>317.244314</ele>
        <time>2026-04-26T17:39:18.061Z</time>
      </trkpt>
      <trkpt lat="49.393617" lon="9.922297">
        <ele>317.282338</ele>
        <time>2026-04-26T17:39:29.752Z</time>
      </trkpt>
      <trkpt lat="49.393463" lon="9.922322">
        <ele>317.294715</ele>
        <time>2026-04-26T17:39:33.318Z</time>
      </trkpt>
      <trkpt lat="49.392688" lon="9.922436">
        <ele>317.356941</ele>
        <time>2026-04-26T17:39:49.998Z</time>
      </trkpt>
      <trkpt lat="49.392613" lon="9.922401">
        <ele>317.363205</ele>
        <time>2026-04-26T17:39:51.649Z</time>
      </trkpt>
      <trkpt lat="49.392539" lon="9.922225">
        <ele>317.393262</ele>
        <time>2026-04-26T17:39:54.579Z</time>
      </trkpt>
      <trkpt lat="49.392248" lon="9.921489">
        <ele>317.527338</ele>
        <time>2026-04-26T17:40:06.944Z</time>
      </trkpt>
      <trkpt lat="49.391983" lon="9.921238">
        <ele>317.601806</ele>
        <time>2026-04-26T17:40:14.229Z</time>
      </trkpt>
      <trkpt lat="49.391701" lon="9.921149">
        <ele>317.670670</ele>
        <time>2026-04-26T17:40:21.328Z</time>
      </trkpt>
      <trkpt lat="49.391553" lon="9.921135">
        <ele>317.706140</ele>
        <time>2026-04-26T17:40:25.167Z</time>
      </trkpt>
      <trkpt lat="49.391395" lon="9.921168">
        <ele>317.744282</ele>
        <time>2026-04-26T17:40:29.401Z</time>
      </trkpt>
      <trkpt lat="49.391055" lon="9.921380">
        <ele>318.020674</ele>
        <time>2026-04-26T17:40:39.663Z</time>
      </trkpt>
      <trkpt lat="49.390090" lon="9.922192">
        <ele>319.614204</ele>
        <time>2026-04-26T17:41:11.129Z</time>
      </trkpt>
      <trkpt lat="49.387884" lon="9.923742">
        <ele>323.849167</ele>
        <time>2026-04-26T17:42:25.184Z</time>
      </trkpt>
      <trkpt lat="49.387415" lon="9.924113">
        <ele>324.803788</ele>
        <time>2026-04-26T17:42:41.795Z</time>
      </trkpt>
      <trkpt lat="49.386966" lon="9.924555">
        <ele>325.768815</ele>
        <time>2026-04-26T17:42:58.586Z</time>
      </trkpt>
      <trkpt lat="49.386197" lon="9.925460">
        <ele>327.055375</ele>
        <time>2026-04-26T17:43:27.219Z</time>
      </trkpt>
      <trkpt lat="49.385999" lon="9.925721">
        <ele>327.141917</ele>
        <time>2026-04-26T17:43:33.934Z</time>
      </trkpt>
      <trkpt lat="49.385813" lon="9.926029">
        <ele>327.232634</ele>
        <time>2026-04-26T17:43:40.573Z</time>
      </trkpt>
      <trkpt lat="49.385155" lon="9.927283">
        <ele>327.580927</ele>
        <time>2026-04-26T17:44:03.555Z</time>
      </trkpt>
      <trkpt lat="49.384497" lon="9.928651">
        <ele>327.953808</ele>
        <time>2026-04-26T17:44:28.769Z</time>
      </trkpt>
      <trkpt lat="49.383896" lon="9.930046">
        <ele>328.734444</ele>
        <time>2026-04-26T17:44:59.751Z</time>
      </trkpt>
      <trkpt lat="49.383469" lon="9.931151">
        <ele>329.712205</ele>
        <time>2026-04-26T17:45:23.666Z</time>
      </trkpt>
      <trkpt lat="49.382983" lon="9.932434">
        <ele>330.812513</ele>
        <time>2026-04-26T17:45:49.329Z</time>
      </trkpt>
      <trkpt lat="49.382686" lon="9.933363">
        <ele>331.560858</ele>
        <time>2026-04-26T17:46:06.791Z</time>
      </trkpt>
      <trkpt lat="49.382483" lon="9.934112">
        <ele>332.147488</ele>
        <time>2026-04-26T17:46:22.143Z</time>
      </trkpt>
      <trkpt lat="49.382111" lon="9.935932">
        <ele>333.689180</ele>
        <time>2026-04-26T17:47:00.277Z</time>
      </trkpt>
      <trkpt lat="49.381785" lon="9.937103">
        <ele>334.463947</ele>
        <time>2026-04-26T17:47:21.273Z</time>
      </trkpt>
      <trkpt lat="49.381731" lon="9.937461">
        <ele>334.407980</ele>
        <time>2026-04-26T17:47:26.508Z</time>
      </trkpt>
      <trkpt lat="49.381809" lon="9.938328">
        <ele>334.274684</ele>
        <time>2026-04-26T17:47:38.444Z</time>
      </trkpt>
      <trkpt lat="49.381793" lon="9.938564">
        <ele>334.238547</ele>
        <time>2026-04-26T17:47:41.619Z</time>
      </trkpt>
      <trkpt lat="49.381166" lon="9.939816">
        <ele>334.423813</ele>
        <time>2026-04-26T17:48:04.337Z</time>
      </trkpt>
      <trkpt lat="49.380964" lon="9.940269">
        <ele>334.751035</ele>
        <time>2026-04-26T17:48:13.689Z</time>
      </trkpt>
      <trkpt lat="49.380829" lon="9.940627">
        <ele>334.997592</ele>
        <time>2026-04-26T17:48:20.961Z</time>
      </trkpt>
      <trkpt lat="49.380671" lon="9.941193">
        <ele>335.364603</ele>
        <time>2026-04-26T17:48:32.155Z</time>
      </trkpt>
      <trkpt lat="49.380387" lon="9.941819">
        <ele>335.997268</ele>
        <time>2026-04-26T17:48:47.213Z</time>
      </trkpt>
      <trkpt lat="49.380353" lon="9.941891">
        <ele>336.157246</ele>
        <time>2026-04-26T17:48:49.043Z</time>
      </trkpt>
      <trkpt lat="49.380284" lon="9.942223">
        <ele>336.784070</ele>
        <time>2026-04-26T17:48:56.307Z</time>
      </trkpt>
      <trkpt lat="49.380135" lon="9.942293">
        <ele>337.214532</ele>
        <time>2026-04-26T17:49:01.217Z</time>
      </trkpt>
      <trkpt lat="49.379347" lon="9.942486">
        <ele>339.419023</ele>
        <time>2026-04-26T17:49:29.010Z</time>
      </trkpt>
      <trkpt lat="49.379145" lon="9.942591">
        <ele>340.008173</ele>
        <time>2026-04-26T17:49:36.818Z</time>
      </trkpt>
      <trkpt lat="49.378894" lon="9.942776">
        <ele>340.736070</ele>
        <time>2026-04-26T17:49:47.134Z</time>
      </trkpt>
      <trkpt lat="49.378853" lon="9.942805">
        <ele>340.794074</ele>
        <time>2026-04-26T17:49:48.750Z</time>
      </trkpt>
      <trkpt lat="49.378519" lon="9.943046">
        <ele>341.268268</ele>
        <time>2026-04-26T17:50:00.976Z</time>
      </trkpt>
      <trkpt lat="49.378262" lon="9.943291">
        <ele>341.656955</ele>
        <time>2026-04-26T17:50:09.915Z</time>
      </trkpt>
      <trkpt lat="49.378034" lon="9.943782">
        <ele>342.161516</ele>
        <time>2026-04-26T17:50:20.522Z</time>
      </trkpt>
      <trkpt lat="49.377876" lon="9.944201">
        <ele>342.566615</ele>
        <time>2026-04-26T17:50:27.950Z</time>
      </trkpt>
      <trkpt lat="49.377507" lon="9.945123">
        <ele>343.037028</ele>
        <time>2026-04-26T17:50:42.194Z</time>
      </trkpt>
      <trkpt lat="49.376883" lon="9.945538">
        <ele>343.085480</ele>
        <time>2026-04-26T17:50:56.100Z</time>
      </trkpt>
      <trkpt lat="49.376754" lon="9.945645">
        <ele>343.095927</ele>
        <time>2026-04-26T17:50:59.455Z</time>
      </trkpt>
      <trkpt lat="49.376494" lon="9.945923">
        <ele>343.118500</ele>
        <time>2026-04-26T17:51:06.962Z</time>
      </trkpt>
      <trkpt lat="49.376135" lon="9.946352">
        <ele>343.488647</ele>
        <time>2026-04-26T17:51:18.855Z</time>
      </trkpt>
      <trkpt lat="49.376147" lon="9.946386">
        <ele>343.544251</ele>
        <time>2026-04-26T17:51:19.539Z</time>
      </trkpt>
      <trkpt lat="49.376203" lon="9.946558">
        <ele>343.820742</ele>
        <time>2026-04-26T17:51:23.315Z</time>
      </trkpt>
      <trkpt lat="49.376218" lon="9.946605">
        <ele>343.895998</ele>
        <time>2026-04-26T17:51:24.255Z</time>
      </trkpt>
      <trkpt lat="49.376305" lon="9.946699">
        <ele>344.130889</ele>
        <time>2026-04-26T17:51:27.698Z</time>
      </trkpt>
      <trkpt lat="49.376431" lon="9.947021">
        <ele>344.671024</ele>
        <time>2026-04-26T17:51:35.111Z</time>
      </trkpt>
      <trkpt lat="49.376528" lon="9.947379">
        <ele>345.228530</ele>
        <time>2026-04-26T17:51:42.722Z</time>
      </trkpt>
      <trkpt lat="49.376741" lon="9.948113">
        <ele>346.383910</ele>
        <time>2026-04-26T17:52:00.831Z</time>
      </trkpt>
      <trkpt lat="49.376739" lon="9.948192">
        <ele>346.497578</ele>
        <time>2026-04-26T17:52:02.646Z</time>
      </trkpt>
      <trkpt lat="49.376734" lon="9.948399">
        <ele>346.795395</ele>
        <time>2026-04-26T17:52:07.267Z</time>
      </trkpt>
      <trkpt lat="49.376753" lon="9.948676">
        <ele>347.261260</ele>
        <time>2026-04-26T17:52:13.553Z</time>
      </trkpt>
      <trkpt lat="49.376814" lon="9.949812">
        <ele>350.170444</ele>
        <time>2026-04-26T17:52:40.491Z</time>
      </trkpt>
      <trkpt lat="49.376925" lon="9.950394">
        <ele>351.718262</ele>
        <time>2026-04-26T17:52:55.575Z</time>
      </trkpt>
      <trkpt lat="49.376867" lon="9.950952">
        <ele>353.160441</ele>
        <time>2026-04-26T17:53:10.493Z</time>
      </trkpt>
      <trkpt lat="49.376848" lon="9.951101">
        <ele>353.547949</ele>
        <time>2026-04-26T17:53:14.565Z</time>
      </trkpt>
      <trkpt lat="49.376855" lon="9.951342">
        <ele>354.164113</ele>
        <time>2026-04-26T17:53:20.985Z</time>
      </trkpt>
      <trkpt lat="49.376959" lon="9.951917">
        <ele>356.158365</ele>
        <time>2026-04-26T17:53:37.256Z</time>
      </trkpt>
      <trkpt lat="49.376946" lon="9.952020">
        <ele>356.508969</ele>
        <time>2026-04-26T17:53:40.176Z</time>
      </trkpt>
      <trkpt lat="49.376904" lon="9.952094">
        <ele>356.837024</ele>
        <time>2026-04-26T17:53:42.941Z</time>
      </trkpt>
      <trkpt lat="49.376834" lon="9.952094">
        <ele>357.196304</ele>
        <time>2026-04-26T17:53:46.006Z</time>
      </trkpt>
      <trkpt lat="49.376830" lon="9.952087">
        <ele>357.227428</ele>
        <time>2026-04-26T17:53:46.267Z</time>
      </trkpt>
      <trkpt lat="49.376717" lon="9.951910">
        <ele>358.055819</ele>
        <time>2026-04-26T17:53:53.424Z</time>
      </trkpt>
      <trkpt lat="49.376652" lon="9.951576">
        <ele>359.220751</ele>
        <time>2026-04-26T17:54:03.681Z</time>
      </trkpt>
      <trkpt lat="49.376396" lon="9.951066">
        <ele>361.372735</ele>
        <time>2026-04-26T17:54:22.771Z</time>
      </trkpt>
      <trkpt lat="49.375782" lon="9.950152">
        <ele>365.953979</ele>
        <time>2026-04-26T17:55:00.561Z</time>
      </trkpt>
      <trkpt lat="49.375603" lon="9.950070">
        <ele>366.990680</ele>
        <time>2026-04-26T17:55:08.688Z</time>
      </trkpt>
      <trkpt lat="49.375390" lon="9.950065">
        <ele>368.172971</ele>
        <time>2026-04-26T17:55:18.113Z</time>
      </trkpt>
      <trkpt lat="49.375320" lon="9.950120">
        <ele>368.609358</ele>
        <time>2026-04-26T17:55:21.645Z</time>
      </trkpt>
      <trkpt lat="49.375127" lon="9.950270">
        <ele>369.809849</ele>
        <time>2026-04-26T17:55:31.384Z</time>
      </trkpt>
      <trkpt lat="49.374810" lon="9.950733">
        <ele>372.237738</ele>
        <time>2026-04-26T17:55:51.319Z</time>
      </trkpt>
      <trkpt lat="49.374051" lon="9.952294">
        <ele>379.789076</ele>
        <time>2026-04-26T17:56:53.169Z</time>
      </trkpt>
      <trkpt lat="49.373634" lon="9.953008">
        <ele>383.555308</ele>
        <time>2026-04-26T17:57:22.311Z</time>
      </trkpt>
      <trkpt lat="49.373347" lon="9.953651">
        <ele>385.618333</ele>
        <time>2026-04-26T17:57:45.616Z</time>
      </trkpt>
      <trkpt lat="49.373200" lon="9.954110">
        <ele>386.789202</ele>
        <time>2026-04-26T17:57:59.827Z</time>
      </trkpt>
      <trkpt lat="49.373172" lon="9.954218">
        <ele>387.055292</ele>
        <time>2026-04-26T17:58:02.932Z</time>
      </trkpt>
      <trkpt lat="49.373068" lon="9.954313">
        <ele>387.480682</ele>
        <time>2026-04-26T17:58:09.144Z</time>
      </trkpt>
      <trkpt lat="49.372987" lon="9.954468">
        <ele>387.935617</ele>
        <time>2026-04-26T17:58:15.633Z</time>
      </trkpt>
      <trkpt lat="49.372722" lon="9.955106">
        <ele>389.667856</ele>
        <time>2026-04-26T17:58:38.703Z</time>
      </trkpt>
      <trkpt lat="49.372068" lon="9.955966">
        <ele>389.746914</ele>
        <time>2026-04-26T17:59:13.297Z</time>
      </trkpt>
      <trkpt lat="49.371764" lon="9.956302">
        <ele>389.256956</ele>
        <time>2026-04-26T17:59:25.249Z</time>
      </trkpt>
      <trkpt lat="49.371316" lon="9.956667">
        <ele>388.593544</ele>
        <time>2026-04-26T17:59:40.542Z</time>
      </trkpt>
      <trkpt lat="49.371003" lon="9.956978">
        <ele>387.995040</ele>
        <time>2026-04-26T17:59:51.376Z</time>
      </trkpt>
      <trkpt lat="49.370669" lon="9.957364">
        <ele>386.756125</ele>
        <time>2026-04-26T18:00:03.870Z</time>
      </trkpt>
      <trkpt lat="49.370464" lon="9.957661">
        <ele>385.920832</ele>
        <time>2026-04-26T18:00:12.527Z</time>
      </trkpt>
      <trkpt lat="49.370266" lon="9.958065">
        <ele>384.944964</ele>
        <time>2026-04-26T18:00:22.219Z</time>
      </trkpt>
      <trkpt lat="49.369885" lon="9.959084">
        <ele>382.851353</ele>
        <time>2026-04-26T18:00:44.689Z</time>
      </trkpt>
      <trkpt lat="49.369778" lon="9.959432">
        <ele>382.806536</ele>
        <time>2026-04-26T18:00:52.404Z</time>
      </trkpt>
      <trkpt lat="49.369563" lon="9.959941">
        <ele>382.735881</ele>
        <time>2026-04-26T18:01:05.237Z</time>
      </trkpt>
      <trkpt lat="49.369320" lon="9.960330">
        <ele>382.673106</ele>
        <time>2026-04-26T18:01:16.923Z</time>
      </trkpt>
      <trkpt lat="49.369014" lon="9.960614">
        <ele>382.609163</ele>
        <time>2026-04-26T18:01:30.322Z</time>
      </trkpt>
      <trkpt lat="49.368641" lon="9.960771">
        <ele>382.560561</ele>
        <time>2026-04-26T18:01:49.144Z</time>
      </trkpt>
      <trkpt lat="49.368229" lon="9.960835">
        <ele>384.229052</ele>
        <time>2026-04-26T18:02:12.339Z</time>
      </trkpt>
      <trkpt lat="49.367754" lon="9.960997">
        <ele>386.189542</ele>
        <time>2026-04-26T18:02:39.809Z</time>
      </trkpt>
      <trkpt lat="49.367342" lon="9.961094">
        <ele>387.868959</ele>
        <time>2026-04-26T18:03:03.042Z</time>
      </trkpt>
      <trkpt lat="49.367040" lon="9.961118">
        <ele>389.087398</ele>
        <time>2026-04-26T18:03:19.579Z</time>
      </trkpt>
      <trkpt lat="49.366759" lon="9.961205">
        <ele>390.069261</ele>
        <time>2026-04-26T18:03:34.347Z</time>
      </trkpt>
      <trkpt lat="49.366485" lon="9.961444">
        <ele>390.855277</ele>
        <time>2026-04-26T18:03:49.404Z</time>
      </trkpt>
      <trkpt lat="49.366025" lon="9.962077">
        <ele>392.395983</ele>
        <time>2026-04-26T18:04:16.940Z</time>
      </trkpt>
      <trkpt lat="49.365476" lon="9.963045">
        <ele>394.380377</ele>
        <time>2026-04-26T18:04:56.123Z</time>
      </trkpt>
      <trkpt lat="49.365332" lon="9.963332">
        <ele>394.682184</ele>
        <time>2026-04-26T18:05:06.858Z</time>
      </trkpt>
      <trkpt lat="49.365078" lon="9.963988">
        <ele>395.317943</ele>
        <time>2026-04-26T18:05:28.484Z</time>
      </trkpt>
      <trkpt lat="49.364919" lon="9.964182">
        <ele>395.577718</ele>
        <time>2026-04-26T18:05:36.921Z</time>
      </trkpt>
      <trkpt lat="49.364444" lon="9.964591">
        <ele>396.274324</ele>
        <time>2026-04-26T18:05:59.074Z</time>
      </trkpt>
      <trkpt lat="49.364243" lon="9.964835">
        <ele>396.580337</ele>
        <time>2026-04-26T18:06:09.209Z</time>
      </trkpt>
      <trkpt lat="49.363964" lon="9.965049">
        <ele>396.657865</ele>
        <time>2026-04-26T18:06:20.870Z</time>
      </trkpt>
      <trkpt lat="49.363762" lon="9.965253">
        <ele>396.717967</ele>
        <time>2026-04-26T18:06:29.720Z</time>
      </trkpt>
      <trkpt lat="49.363562" lon="9.965712">
        <ele>396.807374</ele>
        <time>2026-04-26T18:06:42.775Z</time>
      </trkpt>
      <trkpt lat="49.363346" lon="9.966962">
        <ele>397.016745</ele>
        <time>2026-04-26T18:07:14.187Z</time>
      </trkpt>
      <trkpt lat="49.363174" lon="9.967645">
        <ele>398.189404</ele>
        <time>2026-04-26T18:07:33.216Z</time>
      </trkpt>
      <trkpt lat="49.362536" lon="9.969309">
        <ele>401.416022</ele>
        <time>2026-04-26T18:08:35.452Z</time>
      </trkpt>
      <trkpt lat="49.362480" lon="9.969833">
        <ele>402.456897</ele>
        <time>2026-04-26T18:08:54.785Z</time>
      </trkpt>
      <trkpt lat="49.362478" lon="9.970356">
        <ele>403.532285</ele>
        <time>2026-04-26T18:09:13.334Z</time>
      </trkpt>
      <trkpt lat="49.362568" lon="9.971166">
        <ele>405.221835</ele>
        <time>2026-04-26T18:09:41.238Z</time>
      </trkpt>
      <trkpt lat="49.362661" lon="9.971800">
        <ele>406.558091</ele>
        <time>2026-04-26T18:10:01.302Z</time>
      </trkpt>
      <trkpt lat="49.362860" lon="9.972866">
        <ele>408.078081</ele>
        <time>2026-04-26T18:10:31.711Z</time>
      </trkpt>
      <trkpt lat="49.363095" lon="9.973959">
        <ele>409.263167</ele>
        <time>2026-04-26T18:11:03.246Z</time>
      </trkpt>
      <trkpt lat="49.363176" lon="9.975155">
        <ele>410.709275</ele>
        <time>2026-04-26T18:11:38.137Z</time>
      </trkpt>
      <trkpt lat="49.362987" lon="9.975625">
        <ele>411.624010</ele>
        <time>2026-04-26T18:11:54.766Z</time>
      </trkpt>
      <trkpt lat="49.362392" lon="9.976447">
        <ele>413.659192</ele>
        <time>2026-04-26T18:12:32.747Z</time>
      </trkpt>
      <trkpt lat="49.361666" lon="9.978945">
        <ele>418.595951</ele>
        <time>2026-04-26T18:14:01.074Z</time>
      </trkpt>
      <trkpt lat="49.361259" lon="9.979682">
        <ele>420.067784</ele>
        <time>2026-04-26T18:14:30.766Z</time>
      </trkpt>
      <trkpt lat="49.361000" lon="9.979909">
        <ele>420.418318</ele>
        <time>2026-04-26T18:14:43.963Z</time>
      </trkpt>
      <trkpt lat="49.360019" lon="9.980167">
        <ele>421.588178</ele>
        <time>2026-04-26T18:15:23.372Z</time>
      </trkpt>
      <trkpt lat="49.359410" lon="9.980433">
        <ele>422.413883</ele>
        <time>2026-04-26T18:15:48.383Z</time>
      </trkpt>
      <trkpt lat="49.359244" lon="9.980561">
        <ele>422.679815</ele>
        <time>2026-04-26T18:15:56.215Z</time>
      </trkpt>
      <trkpt lat="49.358973" lon="9.980698">
        <ele>423.088267</ele>
        <time>2026-04-26T18:16:08.386Z</time>
      </trkpt>
      <trkpt lat="49.358513" lon="9.981443">
        <ele>424.045460</ele>
        <time>2026-04-26T18:16:37.585Z</time>
      </trkpt>
      <trkpt lat="49.358319" lon="9.981713">
        <ele>424.420314</ele>
        <time>2026-04-26T18:16:45.808Z</time>
      </trkpt>
      <trkpt lat="49.358208" lon="9.981806">
        <ele>424.600919</ele>
        <time>2026-04-26T18:16:49.798Z</time>
      </trkpt>
      <trkpt lat="49.357889" lon="9.982061">
        <ele>425.112573</ele>
        <time>2026-04-26T18:17:00.661Z</time>
      </trkpt>
      <trkpt lat="49.357453" lon="9.982477">
        <ele>425.842870</ele>
        <time>2026-04-26T18:17:14.800Z</time>
      </trkpt>
      <trkpt lat="49.356718" lon="9.983733">
        <ele>427.659369</ele>
        <time>2026-04-26T18:17:43.777Z</time>
      </trkpt>
      <trkpt lat="49.356462" lon="9.984103">
        <ele>428.559409</ele>
        <time>2026-04-26T18:17:53.676Z</time>
      </trkpt>
      <trkpt lat="49.356071" lon="9.984526">
        <ele>429.783871</ele>
        <time>2026-04-26T18:18:09.053Z</time>
      </trkpt>
      <trkpt lat="49.355585" lon="9.984892">
        <ele>431.169603</ele>
        <time>2026-04-26T18:18:28.540Z</time>
      </trkpt>
      <trkpt lat="49.355291" lon="9.984859">
        <ele>431.998037</ele>
        <time>2026-04-26T18:18:39.635Z</time>
      </trkpt>
      <trkpt lat="49.355105" lon="9.984926">
        <ele>432.645761</ele>
        <time>2026-04-26T18:18:46.933Z</time>
      </trkpt>
      <trkpt lat="49.354822" lon="9.985109">
        <ele>433.686858</ele>
        <time>2026-04-26T18:18:58.770Z</time>
      </trkpt>
      <trkpt lat="49.354189" lon="9.985603">
        <ele>436.094298</ele>
        <time>2026-04-26T18:19:24.612Z</time>
      </trkpt>
      <trkpt lat="49.353312" lon="9.986473">
        <ele>438.957256</ele>
        <time>2026-04-26T18:19:59.244Z</time>
      </trkpt>
      <trkpt lat="49.353103" lon="9.986578">
        <ele>439.428410</ele>
        <time>2026-04-26T18:20:06.189Z</time>
      </trkpt>
      <trkpt lat="49.352782" lon="9.986610">
        <ele>440.117606</ele>
        <time>2026-04-26T18:20:16.289Z</time>
      </trkpt>
      <trkpt lat="49.352481" lon="9.986543">
        <ele>440.769247</ele>
        <time>2026-04-26T18:20:25.481Z</time>
      </trkpt>
      <trkpt lat="49.352106" lon="9.986377">
        <ele>441.605426</ele>
        <time>2026-04-26T18:20:36.650Z</time>
      </trkpt>
      <trkpt lat="49.351721" lon="9.986156">
        <ele>442.029291</ele>
        <time>2026-04-26T18:20:47.506Z</time>
      </trkpt>
      <trkpt lat="49.350051" lon="9.985435">
        <ele>444.107980</ele>
        <time>2026-04-26T18:21:31.330Z</time>
      </trkpt>
      <trkpt lat="49.349296" lon="9.984837">
        <ele>445.944189</ele>
        <time>2026-04-26T18:21:58.043Z</time>
      </trkpt>
      <trkpt lat="49.348269" lon="9.983880">
        <ele>449.226329</ele>
        <time>2026-04-26T18:22:38.565Z</time>
      </trkpt>
      <trkpt lat="49.348051" lon="9.983758">
        <ele>450.002291</ele>
        <time>2026-04-26T18:22:46.755Z</time>
      </trkpt>
      <trkpt lat="49.347921" lon="9.983806">
        <ele>450.449430</ele>
        <time>2026-04-26T18:22:51.614Z</time>
      </trkpt>
      <trkpt lat="49.347614" lon="9.984102">
        <ele>451.661810</ele>
        <time>2026-04-26T18:23:04.698Z</time>
      </trkpt>
      <trkpt lat="49.347456" lon="9.984227">
        <ele>452.256235</ele>
        <time>2026-04-26T18:23:11.157Z</time>
      </trkpt>
      <trkpt lat="49.347363" lon="9.984120">
        <ele>452.644906</ele>
        <time>2026-04-26T18:23:15.357Z</time>
      </trkpt>
      <trkpt lat="49.347062" lon="9.983982">
        <ele>453.794252</ele>
        <time>2026-04-26T18:23:27.014Z</time>
      </trkpt>
      <trkpt lat="49.346981" lon="9.983987">
        <ele>454.133645</ele>
        <time>2026-04-26T18:23:30.158Z</time>
      </trkpt>
      <trkpt lat="49.346894" lon="9.984047">
        <ele>454.532958</ele>
        <time>2026-04-26T18:23:33.894Z</time>
      </trkpt>
      <trkpt lat="49.347039" lon="9.984431">
        <ele>455.743533</ele>
        <time>2026-04-26T18:23:45.518Z</time>
      </trkpt>
      <trkpt lat="49.347109" lon="9.984751">
        <ele>456.664221</ele>
        <time>2026-04-26T18:23:54.586Z</time>
      </trkpt>
      <trkpt lat="49.347243" lon="9.985611">
        <ele>459.076020</ele>
        <time>2026-04-26T18:24:17.561Z</time>
      </trkpt>
      <trkpt lat="49.347058" lon="9.985727">
        <ele>459.912679</ele>
        <time>2026-04-26T18:24:25.317Z</time>
      </trkpt>
      <trkpt lat="49.347041" lon="9.986562">
        <ele>462.048634</ele>
        <time>2026-04-26T18:24:46.088Z</time>
      </trkpt>
      <trkpt lat="49.347000" lon="9.987281">
        <ele>463.810430</ele>
        <time>2026-04-26T18:25:03.424Z</time>
      </trkpt>
      <trkpt lat="49.346902" lon="9.988315">
        <ele>466.361007</ele>
        <time>2026-04-26T18:25:28.309Z</time>
      </trkpt>
      <trkpt lat="49.346795" lon="9.989187">
        <ele>468.597854</ele>
        <time>2026-04-26T18:25:49.515Z</time>
      </trkpt>
      <trkpt lat="49.346777" lon="9.989335">
        <ele>468.992655</ele>
        <time>2026-04-26T18:25:53.167Z</time>
      </trkpt>
      <trkpt lat="49.346767" lon="9.989398">
        <ele>469.162691</ele>
        <time>2026-04-26T18:25:54.762Z</time>
      </trkpt>
      <trkpt lat="49.346731" lon="9.989555">
        <ele>469.599144</ele>
        <time>2026-04-26T18:25:58.853Z</time>
      </trkpt>
      <trkpt lat="49.345908" lon="9.992083">
        <ele>476.939339</ele>
        <time>2026-04-26T18:27:10.820Z</time>
      </trkpt>
      <trkpt lat="49.345854" lon="9.992606">
        <ele>478.283328</ele>
        <time>2026-04-26T18:27:23.938Z</time>
      </trkpt>
      <trkpt lat="49.345824" lon="9.993278">
        <ele>479.992927</ele>
        <time>2026-04-26T18:27:40.364Z</time>
      </trkpt>
      <trkpt lat="49.345623" lon="9.994288">
        <ele>482.262949</ele>
        <time>2026-04-26T18:28:05.903Z</time>
      </trkpt>
      <trkpt lat="49.345504" lon="9.994768">
        <ele>482.939784</ele>
        <time>2026-04-26T18:28:17.656Z</time>
      </trkpt>
      <trkpt lat="49.345606" lon="9.995170">
        <ele>483.508333</ele>
        <time>2026-04-26T18:28:26.752Z</time>
      </trkpt>
      <trkpt lat="49.345812" lon="9.995558">
        <ele>484.167962</ele>
        <time>2026-04-26T18:28:36.387Z</time>
      </trkpt>
      <trkpt lat="49.346136" lon="9.996286">
        <ele>485.329865</ele>
        <time>2026-04-26T18:28:51.623Z</time>
      </trkpt>
      <trkpt lat="49.346304" lon="9.996621">
        <ele>485.397911</ele>
        <time>2026-04-26T18:28:58.064Z</time>
      </trkpt>
      <trkpt lat="49.347626" lon="9.999070">
        <ele>484.644357</ele>
        <time>2026-04-26T18:30:10.797Z</time>
      </trkpt>
      <trkpt lat="49.348238" lon="10.000163">
        <ele>484.058066</ele>
        <time>2026-04-26T18:30:43.188Z</time>
      </trkpt>
      <trkpt lat="49.348568" lon="10.000811">
        <ele>483.795310</ele>
        <time>2026-04-26T18:31:01.841Z</time>
      </trkpt>
      <trkpt lat="49.350706" lon="10.004704">
        <ele>483.581001</ele>
        <time>2026-04-26T18:33:03.763Z</time>
      </trkpt>
      <trkpt lat="49.350767" lon="10.004884">
        <ele>483.597065</ele>
        <time>2026-04-26T18:33:08.841Z</time>
      </trkpt>
      <trkpt lat="49.350776" lon="10.005125">
        <ele>483.719513</ele>
        <time>2026-04-26T18:33:14.922Z</time>
      </trkpt>
      <trkpt lat="49.350604" lon="10.008214">
        <ele>485.391689</ele>
        <time>2026-04-26T18:34:36.975Z</time>
      </trkpt>
      <trkpt lat="49.350574" lon="10.009312">
        <ele>486.131153</ele>
        <time>2026-04-26T18:35:07.673Z</time>
      </trkpt>
      <trkpt lat="49.350680" lon="10.010643">
        <ele>486.860928</ele>
        <time>2026-04-26T18:35:43.328Z</time>
      </trkpt>
      <trkpt lat="49.350789" lon="10.011425">
        <ele>486.906273</ele>
        <time>2026-04-26T18:36:03.348Z</time>
      </trkpt>
      <trkpt lat="49.350950" lon="10.012200">
        <ele>486.952398</ele>
        <time>2026-04-26T18:36:22.622Z</time>
      </trkpt>
      <trkpt lat="49.351648" lon="10.014169">
        <ele>486.449571</ele>
        <time>2026-04-26T18:37:14.856Z</time>
      </trkpt>
      <trkpt lat="49.351979" lon="10.015036">
        <ele>486.045718</ele>
        <time>2026-04-26T18:37:37.380Z</time>
      </trkpt>
      <trkpt lat="49.352423" lon="10.016271">
        <ele>485.214549</ele>
        <time>2026-04-26T18:38:08.284Z</time>
      </trkpt>
      <trkpt lat="49.353050" lon="10.019673">
        <ele>482.665710</ele>
        <time>2026-04-26T18:39:26.147Z</time>
      </trkpt>
      <trkpt lat="49.353302" lon="10.021085">
        <ele>481.546307</ele>
        <time>2026-04-26T18:39:56.879Z</time>
      </trkpt>
      <trkpt lat="49.353279" lon="10.021364">
        <ele>481.339772</ele>
        <time>2026-04-26T18:40:02.763Z</time>
      </trkpt>
      <trkpt lat="49.352925" lon="10.022644">
        <ele>480.318505</ele>
        <time>2026-04-26T18:40:32.840Z</time>
      </trkpt>
      <trkpt lat="49.352770" lon="10.022995">
        <ele>480.007073</ele>
        <time>2026-04-26T18:40:42.467Z</time>
      </trkpt>
      <trkpt lat="49.352298" lon="10.023723">
        <ele>479.814909</ele>
        <time>2026-04-26T18:41:06.503Z</time>
      </trkpt>
      <trkpt lat="49.352229" lon="10.023948">
        <ele>479.793513</ele>
        <time>2026-04-26T18:41:12.518Z</time>
      </trkpt>
      <trkpt lat="49.352105" lon="10.024635">
        <ele>479.732181</ele>
        <time>2026-04-26T18:41:29.918Z</time>
      </trkpt>
      <trkpt lat="49.351937" lon="10.025295">
        <ele>479.671217</ele>
        <time>2026-04-26T18:41:47.254Z</time>
      </trkpt>
      <trkpt lat="49.351946" lon="10.025630">
        <ele>479.625427</ele>
        <time>2026-04-26T18:41:55.467Z</time>
      </trkpt>
      <trkpt lat="49.352184" lon="10.027123">
        <ele>479.259287</ele>
        <time>2026-04-26T18:42:31.955Z</time>
      </trkpt>
      <trkpt lat="49.352200" lon="10.027407">
        <ele>479.191383</ele>
        <time>2026-04-26T18:42:38.451Z</time>
      </trkpt>
      <trkpt lat="49.352172" lon="10.027621">
        <ele>479.139388</ele>
        <time>2026-04-26T18:42:43.369Z</time>
      </trkpt>
      <trkpt lat="49.351769" lon="10.029092">
        <ele>478.475072</ele>
        <time>2026-04-26T18:43:18.687Z</time>
      </trkpt>
      <trkpt lat="49.351192" lon="10.030943">
        <ele>477.475055</ele>
        <time>2026-04-26T18:44:04.738Z</time>
      </trkpt>
      <trkpt lat="49.350823" lon="10.032353">
        <ele>477.113746</ele>
        <time>2026-04-26T18:44:39.098Z</time>
      </trkpt>
      <trkpt lat="49.350448" lon="10.033870">
        <ele>477.366330</ele>
        <time>2026-04-26T18:45:18.891Z</time>
      </trkpt>
      <trkpt lat="49.350171" lon="10.035080">
        <ele>478.305231</ele>
        <time>2026-04-26T18:45:53.110Z</time>
      </trkpt>
      <trkpt lat="49.350114" lon="10.035935">
        <ele>478.952125</ele>
        <time>2026-04-26T18:46:18.676Z</time>
      </trkpt>
      <trkpt lat="49.350026" lon="10.036227">
        <ele>479.333025</ele>
        <time>2026-04-26T18:46:28.401Z</time>
      </trkpt>
      <trkpt lat="49.349921" lon="10.036400">
        <ele>479.612959</ele>
        <time>2026-04-26T18:46:35.547Z</time>
      </trkpt>
      <trkpt lat="49.349326" lon="10.037035">
        <ele>480.929950</ele>
        <time>2026-04-26T18:47:08.654Z</time>
      </trkpt>
      <trkpt lat="49.349193" lon="10.037219">
        <ele>481.255340</ele>
        <time>2026-04-26T18:47:16.686Z</time>
      </trkpt>
      <trkpt lat="49.348917" lon="10.037873">
        <ele>482.174643</ele>
        <time>2026-04-26T18:47:39.038Z</time>
      </trkpt>
      <trkpt lat="49.348857" lon="10.038082">
        <ele>482.183986</ele>
        <time>2026-04-26T18:47:45.235Z</time>
      </trkpt>
      <trkpt lat="49.348710" lon="10.039762">
        <ele>482.253325</ele>
        <time>2026-04-26T18:48:25.928Z</time>
      </trkpt>
      <trkpt lat="49.348552" lon="10.041251">
        <ele>482.584070</ele>
        <time>2026-04-26T18:49:00.013Z</time>
      </trkpt>
      <trkpt lat="49.348475" lon="10.041766">
        <ele>482.816603</ele>
        <time>2026-04-26T18:49:12.963Z</time>
      </trkpt>
      <trkpt lat="49.348416" lon="10.042081">
        <ele>482.960843</ele>
        <time>2026-04-26T18:49:21.380Z</time>
      </trkpt>
      <trkpt lat="49.348062" lon="10.043471">
        <ele>483.861597</ele>
        <time>2026-04-26T18:50:03.579Z</time>
      </trkpt>
      <trkpt lat="49.348004" lon="10.043682">
        <ele>484.175938</ele>
        <time>2026-04-26T18:50:10.532Z</time>
      </trkpt>
      <trkpt lat="49.347940" lon="10.043754">
        <ele>484.343119</ele>
        <time>2026-04-26T18:50:14.286Z</time>
      </trkpt>
      <trkpt lat="49.345602" lon="10.043336">
        <ele>488.306889</ele>
        <time>2026-04-26T18:51:27.491Z</time>
      </trkpt>
      <trkpt lat="49.345394" lon="10.043338">
        <ele>488.528112</ele>
        <time>2026-04-26T18:51:32.945Z</time>
      </trkpt>
      <trkpt lat="49.345337" lon="10.043389">
        <ele>488.598282</ele>
        <time>2026-04-26T18:51:34.607Z</time>
      </trkpt>
      <trkpt lat="49.345309" lon="10.043456">
        <ele>488.653436</ele>
        <time>2026-04-26T18:51:35.923Z</time>
      </trkpt>
      <trkpt lat="49.345371" lon="10.044116">
        <ele>489.115481</ele>
        <time>2026-04-26T18:51:45.820Z</time>
      </trkpt>
      <trkpt lat="49.345940" lon="10.050336">
        <ele>481.881065</ele>
        <time>2026-04-26T18:52:58.093Z</time>
      </trkpt>
      <trkpt lat="49.346176" lon="10.053006">
        <ele>478.803954</ele>
        <time>2026-04-26T18:53:29.611Z</time>
      </trkpt>
      <trkpt lat="49.346918" lon="10.053772">
        <ele>477.386486</ele>
        <time>2026-04-26T18:53:45.187Z</time>
      </trkpt>
      <trkpt lat="49.347173" lon="10.054072">
        <ele>476.877197</ele>
        <time>2026-04-26T18:53:50.874Z</time>
      </trkpt>
      <trkpt lat="49.347978" lon="10.054905">
        <ele>476.986371</ele>
        <time>2026-04-26T18:54:13.082Z</time>
      </trkpt>
      <trkpt lat="49.348241" lon="10.055185">
        <ele>477.177715</ele>
        <time>2026-04-26T18:54:22.348Z</time>
      </trkpt>
      <trkpt lat="49.348325" lon="10.055220">
        <ele>477.229749</ele>
        <time>2026-04-26T18:54:24.848Z</time>
      </trkpt>
      <trkpt lat="49.348591" lon="10.055403">
        <ele>477.404011</ele>
        <time>2026-04-26T18:54:32.882Z</time>
      </trkpt>
      <trkpt lat="49.348734" lon="10.055558">
        <ele>477.508664</ele>
        <time>2026-04-26T18:54:37.545Z</time>
      </trkpt>
      <trkpt lat="49.348816" lon="10.055705">
        <ele>477.584034</ele>
        <time>2026-04-26T18:54:40.903Z</time>
      </trkpt>
      <trkpt lat="49.348959" lon="10.056073">
        <ele>477.387404</ele>
        <time>2026-04-26T18:54:48.001Z</time>
      </trkpt>
      <trkpt lat="49.348984" lon="10.056148">
        <ele>477.335394</ele>
        <time>2026-04-26T18:54:49.299Z</time>
      </trkpt>
      <trkpt lat="49.349133" lon="10.056766">
        <ele>476.928585</ele>
        <time>2026-04-26T18:54:58.415Z</time>
      </trkpt>
      <trkpt lat="49.349201" lon="10.057176">
        <ele>476.667401</ele>
        <time>2026-04-26T18:55:03.445Z</time>
      </trkpt>
      <trkpt lat="49.349239" lon="10.057410">
        <ele>476.518522</ele>
        <time>2026-04-26T18:55:06.199Z</time>
      </trkpt>
      <trkpt lat="49.349250" lon="10.057849">
        <ele>476.247309</ele>
        <time>2026-04-26T18:55:11.137Z</time>
      </trkpt>
      <trkpt lat="49.349230" lon="10.058540">
        <ele>475.798497</ele>
        <time>2026-04-26T18:55:18.999Z</time>
      </trkpt>
      <trkpt lat="49.349159" lon="10.060127">
        <ele>474.566035</ele>
        <time>2026-04-26T18:55:38.218Z</time>
      </trkpt>
      <trkpt lat="49.349180" lon="10.061013">
        <ele>473.879130</ele>
        <time>2026-04-26T18:55:49.732Z</time>
      </trkpt>
      <trkpt lat="49.349200" lon="10.062290">
        <ele>473.205278</ele>
        <time>2026-04-26T18:56:07.348Z</time>
      </trkpt>
      <trkpt lat="49.349151" lon="10.062771">
        <ele>472.963883</ele>
        <time>2026-04-26T18:56:13.950Z</time>
      </trkpt>
      <trkpt lat="49.349007" lon="10.063341">
        <ele>472.660749</ele>
        <time>2026-04-26T18:56:21.797Z</time>
      </trkpt>
      <trkpt lat="49.348901" lon="10.063605">
        <ele>472.506982</ele>
        <time>2026-04-26T18:56:25.625Z</time>
      </trkpt>
      <trkpt lat="49.348766" lon="10.063848">
        <ele>472.283986</ele>
        <time>2026-04-26T18:56:29.491Z</time>
      </trkpt>
      <trkpt lat="49.347928" lon="10.064980">
        <ele>470.314536</ele>
        <time>2026-04-26T18:56:49.243Z</time>
      </trkpt>
      <trkpt lat="49.347672" lon="10.065394">
        <ele>469.658469</ele>
        <time>2026-04-26T18:56:55.738Z</time>
      </trkpt>
      <trkpt lat="49.347566" lon="10.065675">
        <ele>469.285254</ele>
        <time>2026-04-26T18:56:59.524Z</time>
      </trkpt>
      <trkpt lat="49.347507" lon="10.066000">
        <ele>468.993013</ele>
        <time>2026-04-26T18:57:03.499Z</time>
      </trkpt>
      <trkpt lat="49.347459" lon="10.066321">
        <ele>468.725117</ele>
        <time>2026-04-26T18:57:07.458Z</time>
      </trkpt>
      <trkpt lat="49.347445" lon="10.066795">
        <ele>468.339162</ele>
        <time>2026-04-26T18:57:13.274Z</time>
      </trkpt>
      <trkpt lat="49.347458" lon="10.067156">
        <ele>468.045070</ele>
        <time>2026-04-26T18:57:17.770Z</time>
      </trkpt>
      <trkpt lat="49.347685" lon="10.068995">
        <ele>466.498678</ele>
        <time>2026-04-26T18:57:41.149Z</time>
      </trkpt>
      <trkpt lat="49.347793" lon="10.070263">
        <ele>465.403955</ele>
        <time>2026-04-26T18:57:56.906Z</time>
      </trkpt>
      <trkpt lat="49.347817" lon="10.071116">
        <ele>464.673055</ele>
        <time>2026-04-26T18:58:07.095Z</time>
      </trkpt>
      <trkpt lat="49.347760" lon="10.071598">
        <ele>464.202759</ele>
        <time>2026-04-26T18:58:12.822Z</time>
      </trkpt>
      <trkpt lat="49.347466" lon="10.072672">
        <ele>463.064919</ele>
        <time>2026-04-26T18:58:26.499Z</time>
      </trkpt>
      <trkpt lat="49.347387" lon="10.073055">
        <ele>462.672532</ele>
        <time>2026-04-26T18:58:31.267Z</time>
      </trkpt>
      <trkpt lat="49.347348" lon="10.073405">
        <ele>462.325714</ele>
        <time>2026-04-26T18:58:35.531Z</time>
      </trkpt>
      <trkpt lat="49.347321" lon="10.073985">
        <ele>461.816761</ele>
        <time>2026-04-26T18:58:42.696Z</time>
      </trkpt>
      <trkpt lat="49.347327" lon="10.074326">
        <ele>461.605917</ele>
        <time>2026-04-26T18:58:47.028Z</time>
      </trkpt>
      <trkpt lat="49.347411" lon="10.075284">
        <ele>461.008452</ele>
        <time>2026-04-26T18:58:59.179Z</time>
      </trkpt>
      <trkpt lat="49.347430" lon="10.075757">
        <ele>460.715543</ele>
        <time>2026-04-26T18:59:05.060Z</time>
      </trkpt>
      <trkpt lat="49.347423" lon="10.076137">
        <ele>460.480577</ele>
        <time>2026-04-26T18:59:09.879Z</time>
      </trkpt>
      <trkpt lat="49.347400" lon="10.076336">
        <ele>460.355657</ele>
        <time>2026-04-26T18:59:12.468Z</time>
      </trkpt>
      <trkpt lat="49.347450" lon="10.077179">
        <ele>460.440137</ele>
        <time>2026-04-26T18:59:23.818Z</time>
      </trkpt>
      <trkpt lat="49.346970" lon="10.077586">
        <ele>460.752946</ele>
        <time>2026-04-26T18:59:36.085Z</time>
      </trkpt>
      <trkpt lat="49.347350" lon="10.079512">
        <ele>462.145416</ele>
        <time>2026-04-26T19:00:14.343Z</time>
      </trkpt>
      <trkpt lat="49.347447" lon="10.080515">
        <ele>463.446450</ele>
        <time>2026-04-26T19:00:35.711Z</time>
      </trkpt>
      <trkpt lat="49.347551" lon="10.081150">
        <ele>464.286558</ele>
        <time>2026-04-26T19:00:49.457Z</time>
      </trkpt>
      <trkpt lat="49.347622" lon="10.082050">
        <ele>465.199089</ele>
        <time>2026-04-26T19:01:07.836Z</time>
      </trkpt>
      <trkpt lat="49.350822" lon="10.082819">
        <ele>468.629446</ele>
        <time>2026-04-26T19:02:35.430Z</time>
      </trkpt>
      <trkpt lat="49.352046" lon="10.082917">
        <ele>469.515508</ele>
        <time>2026-04-26T19:03:07.012Z</time>
      </trkpt>
      <trkpt lat="49.352389" lon="10.082844">
        <ele>469.764813</ele>
        <time>2026-04-26T19:03:15.386Z</time>
      </trkpt>
      <trkpt lat="49.352570" lon="10.082710">
        <ele>469.909485</ele>
        <time>2026-04-26T19:03:20.747Z</time>
      </trkpt>
      <trkpt lat="49.352708" lon="10.082540">
        <ele>470.171818</ele>
        <time>2026-04-26T19:03:25.558Z</time>
      </trkpt>
      <trkpt lat="49.352862" lon="10.082319">
        <ele>470.537929</ele>
        <time>2026-04-26T19:03:31.348Z</time>
      </trkpt>
      <trkpt lat="49.353008" lon="10.082197">
        <ele>470.826617</ele>
        <time>2026-04-26T19:03:36.094Z</time>
      </trkpt>
      <trkpt lat="49.353040" lon="10.082856">
        <ele>471.574199</ele>
        <time>2026-04-26T19:03:48.688Z</time>
      </trkpt>
      <trkpt lat="49.353015" lon="10.084042">
        <ele>472.916600</ele>
        <time>2026-04-26T19:04:13.531Z</time>
      </trkpt>
      <trkpt lat="49.353003" lon="10.086131">
        <ele>475.996825</ele>
        <time>2026-04-26T19:04:59.002Z</time>
      </trkpt>
      <trkpt lat="49.352867" lon="10.089144">
        <ele>479.120007</ele>
        <time>2026-04-26T19:05:58.539Z</time>
      </trkpt>
      <trkpt lat="49.352876" lon="10.089403">
        <ele>479.344669</ele>
        <time>2026-04-26T19:06:02.847Z</time>
      </trkpt>
      <trkpt lat="49.353011" lon="10.089378">
        <ele>479.525485</ele>
        <time>2026-04-26T19:06:06.196Z</time>
      </trkpt>
      <trkpt lat="49.353420" lon="10.089168">
        <ele>479.223436</ele>
        <time>2026-04-26T19:06:15.995Z</time>
      </trkpt>
      <trkpt lat="49.354180" lon="10.088989">
        <ele>478.481937</ele>
        <time>2026-04-26T19:06:31.301Z</time>
      </trkpt>
      <trkpt lat="49.355726" lon="10.088881">
        <ele>475.990629</ele>
        <time>2026-04-26T19:07:00.437Z</time>
      </trkpt>
      <trkpt lat="49.356125" lon="10.088824">
        <ele>475.159196</ele>
        <time>2026-04-26T19:07:07.874Z</time>
      </trkpt>
      <trkpt lat="49.357743" lon="10.088194">
        <ele>470.665109</ele>
        <time>2026-04-26T19:07:37.244Z</time>
      </trkpt>
      <trkpt lat="49.358308" lon="10.088089">
        <ele>468.983234</ele>
        <time>2026-04-26T19:07:46.749Z</time>
      </trkpt>
      <trkpt lat="49.358572" lon="10.088129">
        <ele>468.445909</ele>
        <time>2026-04-26T19:07:51.206Z</time>
      </trkpt>
      <trkpt lat="49.358920" lon="10.088286">
        <ele>467.807116</ele>
        <time>2026-04-26T19:07:57.350Z</time>
      </trkpt>
      <trkpt lat="49.360165" lon="10.088676">
        <ele>465.684502</ele>
        <time>2026-04-26T19:08:22.196Z</time>
      </trkpt>
      <trkpt lat="49.360918" lon="10.088947">
        <ele>466.480932</ele>
        <time>2026-04-26T19:08:43.447Z</time>
      </trkpt>
      <trkpt lat="49.361418" lon="10.089257">
        <ele>467.036206</ele>
        <time>2026-04-26T19:08:59.210Z</time>
      </trkpt>
      <trkpt lat="49.361770" lon="10.089690">
        <ele>467.507041</ele>
        <time>2026-04-26T19:09:12.277Z</time>
      </trkpt>
      <trkpt lat="49.361925" lon="10.089839">
        <ele>467.880494</ele>
        <time>2026-04-26T19:09:17.722Z</time>
      </trkpt>
      <trkpt lat="49.362288" lon="10.090010">
        <ele>468.655903</ele>
        <time>2026-04-26T19:09:29.457Z</time>
      </trkpt>
      <trkpt lat="49.362395" lon="10.090127">
        <ele>468.924161</ele>
        <time>2026-04-26T19:09:33.504Z</time>
      </trkpt>
      <trkpt lat="49.362552" lon="10.090598">
        <ele>469.627875</ele>
        <time>2026-04-26T19:09:44.265Z</time>
      </trkpt>
      <trkpt lat="49.362663" lon="10.090834">
        <ele>470.015050</ele>
        <time>2026-04-26T19:09:50.269Z</time>
      </trkpt>
      <trkpt lat="49.362726" lon="10.091095">
        <ele>470.385254</ele>
        <time>2026-04-26T19:09:55.961Z</time>
      </trkpt>
      <trkpt lat="49.362729" lon="10.091337">
        <ele>470.707171</ele>
        <time>2026-04-26T19:10:00.998Z</time>
      </trkpt>
      <trkpt lat="49.362793" lon="10.091996">
        <ele>471.506043</ele>
        <time>2026-04-26T19:10:15.371Z</time>
      </trkpt>
      <trkpt lat="49.362962" lon="10.093333">
        <ele>472.946300</ele>
        <time>2026-04-26T19:10:42.118Z</time>
      </trkpt>
      <trkpt lat="49.363191" lon="10.094465">
        <ele>474.075406</ele>
        <time>2026-04-26T19:11:02.612Z</time>
      </trkpt>
      <trkpt lat="49.363456" lon="10.095584">
        <ele>473.935323</ele>
        <time>2026-04-26T19:11:20.140Z</time>
      </trkpt>
      <trkpt lat="49.363616" lon="10.096049">
        <ele>473.873450</ele>
        <time>2026-04-26T19:11:27.213Z</time>
      </trkpt>
      <trkpt lat="49.365829" lon="10.101108">
        <ele>471.183774</ele>
        <time>2026-04-26T19:12:45.186Z</time>
      </trkpt>
      <trkpt lat="49.366036" lon="10.101661">
        <ele>471.128531</ele>
        <time>2026-04-26T19:12:53.778Z</time>
      </trkpt>
      <trkpt lat="49.366845" lon="10.103911">
        <ele>472.134021</ele>
        <time>2026-04-26T19:13:36.298Z</time>
      </trkpt>
      <trkpt lat="49.367455" lon="10.105557">
        <ele>472.532692</ele>
        <time>2026-04-26T19:14:09.381Z</time>
      </trkpt>
      <trkpt lat="49.367415" lon="10.105608">
        <ele>472.549498</ele>
        <time>2026-04-26T19:14:10.465Z</time>
      </trkpt>
      <trkpt lat="49.366843" lon="10.106345">
        <ele>472.309452</ele>
        <time>2026-04-26T19:14:24.527Z</time>
      </trkpt>
      <trkpt lat="49.366262" lon="10.107003">
        <ele>471.317558</ele>
        <time>2026-04-26T19:14:37.217Z</time>
      </trkpt>
      <trkpt lat="49.366400" lon="10.107280">
        <ele>471.005504</ele>
        <time>2026-04-26T19:14:41.319Z</time>
      </trkpt>
      <trkpt lat="49.366484" lon="10.107448">
        <ele>470.815990</ele>
        <time>2026-04-26T19:14:43.848Z</time>
      </trkpt>
      <trkpt lat="49.366554" lon="10.107685">
        <ele>470.583144</ele>
        <time>2026-04-26T19:14:46.972Z</time>
      </trkpt>
      <trkpt lat="49.366804" lon="10.108903">
        <ele>470.235950</ele>
        <time>2026-04-26T19:15:04.096Z</time>
      </trkpt>
      <trkpt lat="49.366849" lon="10.109240">
        <ele>470.239092</ele>
        <time>2026-04-26T19:15:08.953Z</time>
      </trkpt>
      <trkpt lat="49.367640" lon="10.117238">
        <ele>470.231591</ele>
        <time>2026-04-26T19:17:09.821Z</time>
      </trkpt>
      <trkpt lat="49.367642" lon="10.117272">
        <ele>470.220118</ele>
        <time>2026-04-26T19:17:10.273Z</time>
      </trkpt>
      <trkpt lat="49.367648" lon="10.117330">
        <ele>470.200381</ele>
        <time>2026-04-26T19:17:11.069Z</time>
      </trkpt>
      <trkpt lat="49.367710" lon="10.118526">
        <ele>469.797163</ele>
        <time>2026-04-26T19:17:26.478Z</time>
      </trkpt>
      <trkpt lat="49.367843" lon="10.120212">
        <ele>468.569505</ele>
        <time>2026-04-26T19:17:47.058Z</time>
      </trkpt>
      <trkpt lat="49.367997" lon="10.122248">
        <ele>466.765980</ele>
        <time>2026-04-26T19:18:11.911Z</time>
      </trkpt>
      <trkpt lat="49.368146" lon="10.123465">
        <ele>465.604065</ele>
        <time>2026-04-26T19:18:26.934Z</time>
      </trkpt>
      <trkpt lat="49.368491" lon="10.126815">
        <ele>461.876306</ele>
        <time>2026-04-26T19:19:07.100Z</time>
      </trkpt>
      <trkpt lat="49.369565" lon="10.127192">
        <ele>459.119592</ele>
        <time>2026-04-26T19:19:25.653Z</time>
      </trkpt>
      <trkpt lat="49.370855" lon="10.128407">
        <ele>455.700594</ele>
        <time>2026-04-26T19:19:50.730Z</time>
      </trkpt>
      <trkpt lat="49.371492" lon="10.128929">
        <ele>454.556117</ele>
        <time>2026-04-26T19:20:03.391Z</time>
      </trkpt>
      <trkpt lat="49.371852" lon="10.129133">
        <ele>453.947867</ele>
        <time>2026-04-26T19:20:11.333Z</time>
      </trkpt>
      <trkpt lat="49.372154" lon="10.129112">
        <ele>453.927211</ele>
        <time>2026-04-26T19:20:18.849Z</time>
      </trkpt>
      <trkpt lat="49.373319" lon="10.128901">
        <ele>454.785120</ele>
        <time>2026-04-26T19:20:53.777Z</time>
      </trkpt>
      <trkpt lat="49.373353" lon="10.128889">
        <ele>454.810633</ele>
        <time>2026-04-26T19:20:54.771Z</time>
      </trkpt>
      <trkpt lat="49.373875" lon="10.128700">
        <ele>454.590861</ele>
        <time>2026-04-26T19:21:06.370Z</time>
      </trkpt>
      <trkpt lat="49.374073" lon="10.128661">
        <ele>453.885958</ele>
        <time>2026-04-26T19:21:09.860Z</time>
      </trkpt>
      <trkpt lat="49.374327" lon="10.128534">
        <ele>452.942699</ele>
        <time>2026-04-26T19:21:14.273Z</time>
      </trkpt>
      <trkpt lat="49.374501" lon="10.128496">
        <ele>452.322090</ele>
        <time>2026-04-26T19:21:17.028Z</time>
      </trkpt>
      <trkpt lat="49.375004" lon="10.128704">
        <ele>450.482645</ele>
        <time>2026-04-26T19:21:24.933Z</time>
      </trkpt>
      <trkpt lat="49.375127" lon="10.128894">
        <ele>449.866624</ele>
        <time>2026-04-26T19:21:27.551Z</time>
      </trkpt>
      <trkpt lat="49.375380" lon="10.129702">
        <ele>447.718208</ele>
        <time>2026-04-26T19:21:36.322Z</time>
      </trkpt>
      <trkpt lat="49.375583" lon="10.130415">
        <ele>445.763598</ele>
        <time>2026-04-26T19:21:44.198Z</time>
      </trkpt>
      <trkpt lat="49.375727" lon="10.130712">
        <ele>444.833498</ele>
        <time>2026-04-26T19:21:48.015Z</time>
      </trkpt>
      <trkpt lat="49.376169" lon="10.131279">
        <ele>442.611882</ele>
        <time>2026-04-26T19:21:57.200Z</time>
      </trkpt>
      <trkpt lat="49.377165" lon="10.132269">
        <ele>440.877763</ele>
        <time>2026-04-26T19:22:17.568Z</time>
      </trkpt>
      <trkpt lat="49.377204" lon="10.132309">
        <ele>440.833162</ele>
        <time>2026-04-26T19:22:18.487Z</time>
      </trkpt>
      <trkpt lat="49.377285" lon="10.132389">
        <ele>440.741573</ele>
        <time>2026-04-26T19:22:20.420Z</time>
      </trkpt>
      <trkpt lat="49.377350" lon="10.132455">
        <ele>440.667466</ele>
        <time>2026-04-26T19:22:22.040Z</time>
      </trkpt>
      <trkpt lat="49.378151" lon="10.133301">
        <ele>440.953627</ele>
        <time>2026-04-26T19:22:48.284Z</time>
      </trkpt>
      <trkpt lat="49.378972" lon="10.134114">
        <ele>443.199187</ele>
        <time>2026-04-26T19:23:19.923Z</time>
      </trkpt>
      <trkpt lat="49.379286" lon="10.134344">
        <ele>443.998890</ele>
        <time>2026-04-26T19:23:31.663Z</time>
      </trkpt>
      <trkpt lat="49.379443" lon="10.134455">
        <ele>444.406296</ele>
        <time>2026-04-26T19:23:37.674Z</time>
      </trkpt>
      <trkpt lat="49.379724" lon="10.134577">
        <ele>445.118833</ele>
        <time>2026-04-26T19:23:47.779Z</time>
      </trkpt>
      <trkpt lat="49.380028" lon="10.134601">
        <ele>445.861606</ele>
        <time>2026-04-26T19:23:58.075Z</time>
      </trkpt>
      <trkpt lat="49.380609" lon="10.134700">
        <ele>447.288009</ele>
        <time>2026-04-26T19:24:16.645Z</time>
      </trkpt>
      <trkpt lat="49.381227" lon="10.135039">
        <ele>448.672209</ele>
        <time>2026-04-26T19:24:36.887Z</time>
      </trkpt>
      <trkpt lat="49.381486" lon="10.135123">
        <ele>448.795765</ele>
        <time>2026-04-26T19:24:44.683Z</time>
      </trkpt>
      <trkpt lat="49.382355" lon="10.135430">
        <ele>449.211970</ele>
        <time>2026-04-26T19:25:07.082Z</time>
      </trkpt>
      <trkpt lat="49.382559" lon="10.135581">
        <ele>449.317668</ele>
        <time>2026-04-26T19:25:12.061Z</time>
      </trkpt>
      <trkpt lat="49.382978" lon="10.135895">
        <ele>448.935027</ele>
        <time>2026-04-26T19:25:21.499Z</time>
      </trkpt>
      <trkpt lat="49.383009" lon="10.137544">
        <ele>445.417520</ele>
        <time>2026-04-26T19:25:39.194Z</time>
      </trkpt>
      <trkpt lat="49.383060" lon="10.138443">
        <ele>443.444287</ele>
        <time>2026-04-26T19:25:48.074Z</time>
      </trkpt>
      <trkpt lat="49.383113" lon="10.138836">
        <ele>442.034955</ele>
        <time>2026-04-26T19:25:51.953Z</time>
      </trkpt>
      <trkpt lat="49.383601" lon="10.140308">
        <ele>436.234349</ele>
        <time>2026-04-26T19:26:07.794Z</time>
      </trkpt>
      <trkpt lat="49.384012" lon="10.142130">
        <ele>430.062950</ele>
        <time>2026-04-26T19:26:26.879Z</time>
      </trkpt>
      <trkpt lat="49.384018" lon="10.142241">
        <ele>429.725097</ele>
        <time>2026-04-26T19:26:27.996Z</time>
      </trkpt>
      <trkpt lat="49.384023" lon="10.142332">
        <ele>429.448086</ele>
        <time>2026-04-26T19:26:28.917Z</time>
      </trkpt>
      <trkpt lat="49.383937" lon="10.142579">
        <ele>428.598435</ele>
        <time>2026-04-26T19:26:31.882Z</time>
      </trkpt>
      <trkpt lat="49.383762" lon="10.142912">
        <ele>427.300291</ele>
        <time>2026-04-26T19:26:36.404Z</time>
      </trkpt>
      <trkpt lat="49.383446" lon="10.143667">
        <ele>424.395438</ele>
        <time>2026-04-26T19:26:45.923Z</time>
      </trkpt>
      <trkpt lat="49.382680" lon="10.145657">
        <ele>415.976821</ele>
        <time>2026-04-26T19:27:09.240Z</time>
      </trkpt>
      <trkpt lat="49.382240" lon="10.146436">
        <ele>413.167096</ele>
        <time>2026-04-26T19:27:19.355Z</time>
      </trkpt>
      <trkpt lat="49.382054" lon="10.146873">
        <ele>411.827097</ele>
        <time>2026-04-26T19:27:24.777Z</time>
      </trkpt>
      <trkpt lat="49.381819" lon="10.147421">
        <ele>410.142930</ele>
        <time>2026-04-26T19:27:32.288Z</time>
      </trkpt>
      <trkpt lat="49.381693" lon="10.147616">
        <ele>409.437793</ele>
        <time>2026-04-26T19:27:35.605Z</time>
      </trkpt>
      <trkpt lat="49.381530" lon="10.147895">
        <ele>408.475669</ele>
        <time>2026-04-26T19:27:40.040Z</time>
      </trkpt>
      <trkpt lat="49.381378" lon="10.148417">
        <ele>408.577731</ele>
        <time>2026-04-26T19:27:47.275Z</time>
      </trkpt>
      <trkpt lat="49.381280" lon="10.148778">
        <ele>408.761845</ele>
        <time>2026-04-26T19:27:53.618Z</time>
      </trkpt>
      <trkpt lat="49.381255" lon="10.148841">
        <ele>408.796576</ele>
        <time>2026-04-26T19:27:55.059Z</time>
      </trkpt>
      <trkpt lat="49.380980" lon="10.149524">
        <ele>409.174605</ele>
        <time>2026-04-26T19:28:11.747Z</time>
      </trkpt>
      <trkpt lat="49.380809" lon="10.149886">
        <ele>409.385142</ele>
        <time>2026-04-26T19:28:20.621Z</time>
      </trkpt>
      <trkpt lat="49.380354" lon="10.150597">
        <ele>409.233511</ele>
        <time>2026-04-26T19:28:38.159Z</time>
      </trkpt>
      <trkpt lat="49.380201" lon="10.150904">
        <ele>408.900593</ele>
        <time>2026-04-26T19:28:46.070Z</time>
      </trkpt>
      <trkpt lat="49.379938" lon="10.151714">
        <ele>408.121179</ele>
        <time>2026-04-26T19:28:59.626Z</time>
      </trkpt>
      <trkpt lat="49.379787" lon="10.152035">
        <ele>407.780164</ele>
        <time>2026-04-26T19:29:04.044Z</time>
      </trkpt>
      <trkpt lat="49.379703" lon="10.152297">
        <ele>407.528684</ele>
        <time>2026-04-26T19:29:07.109Z</time>
      </trkpt>
      <trkpt lat="49.379657" lon="10.152851">
        <ele>406.406989</ele>
        <time>2026-04-26T19:29:12.779Z</time>
      </trkpt>
      <trkpt lat="49.379549" lon="10.153671">
        <ele>403.469874</ele>
        <time>2026-04-26T19:29:21.072Z</time>
      </trkpt>
      <trkpt lat="49.379343" lon="10.154479">
        <ele>400.423447</ele>
        <time>2026-04-26T19:29:29.674Z</time>
      </trkpt>
      <trkpt lat="49.379194" lon="10.155534">
        <ele>397.116451</ele>
        <time>2026-04-26T19:29:40.913Z</time>
      </trkpt>
      <trkpt lat="49.379063" lon="10.156813">
        <ele>394.948379</ele>
        <time>2026-04-26T19:29:54.987Z</time>
      </trkpt>
      <trkpt lat="49.379055" lon="10.157385">
        <ele>393.990323</ele>
        <time>2026-04-26T19:30:01.777Z</time>
      </trkpt>
      <trkpt lat="49.378992" lon="10.158220">
        <ele>392.695721</ele>
        <time>2026-04-26T19:30:11.987Z</time>
      </trkpt>
      <trkpt lat="49.379030" lon="10.159252">
        <ele>391.526870</ele>
        <time>2026-04-26T19:30:24.414Z</time>
      </trkpt>
      <trkpt lat="49.379030" lon="10.160166">
        <ele>390.493319</ele>
        <time>2026-04-26T19:30:35.085Z</time>
      </trkpt>
      <trkpt lat="49.378986" lon="10.160995">
        <ele>389.414034</ele>
        <time>2026-04-26T19:30:44.564Z</time>
      </trkpt>
      <trkpt lat="49.379085" lon="10.161678">
        <ele>388.190439</ele>
        <time>2026-04-26T19:30:52.303Z</time>
      </trkpt>
      <trkpt lat="49.379097" lon="10.162025">
        <ele>387.582790</ele>
        <time>2026-04-26T19:30:56.049Z</time>
      </trkpt>
      <trkpt lat="49.379077" lon="10.162881">
        <ele>386.084953</ele>
        <time>2026-04-26T19:31:05.101Z</time>
      </trkpt>
      <trkpt lat="49.379118" lon="10.163107">
        <ele>385.674694</ele>
        <time>2026-04-26T19:31:07.616Z</time>
      </trkpt>
      <trkpt lat="49.379392" lon="10.164120">
        <ele>383.397248</ele>
        <time>2026-04-26T19:31:19.801Z</time>
      </trkpt>
      <trkpt lat="49.379431" lon="10.164510">
        <ele>382.503955</ele>
        <time>2026-04-26T19:31:24.179Z</time>
      </trkpt>
      <trkpt lat="49.379350" lon="10.165185">
        <ele>380.950051</ele>
        <time>2026-04-26T19:31:31.562Z</time>
      </trkpt>
      <trkpt lat="49.379348" lon="10.165612">
        <ele>379.983321</ele>
        <time>2026-04-26T19:31:35.999Z</time>
      </trkpt>
      <trkpt lat="49.379528" lon="10.166645">
        <ele>375.915278</ele>
        <time>2026-04-26T19:31:46.514Z</time>
      </trkpt>
      <trkpt lat="49.379644" lon="10.167080">
        <ele>373.338287</ele>
        <time>2026-04-26T19:31:50.889Z</time>
      </trkpt>
      <trkpt lat="49.380195" lon="10.168014">
        <ele>366.428649</ele>
        <time>2026-04-26T19:32:02.210Z</time>
      </trkpt>
      <trkpt lat="49.380381" lon="10.168417">
        <ele>363.720560</ele>
        <time>2026-04-26T19:32:06.566Z</time>
      </trkpt>
      <trkpt lat="49.380555" lon="10.169051">
        <ele>359.184175</ele>
        <time>2026-04-26T19:32:12.448Z</time>
      </trkpt>
      <trkpt lat="49.380609" lon="10.169378">
        <ele>356.944927</ele>
        <time>2026-04-26T19:32:15.333Z</time>
      </trkpt>
      <trkpt lat="49.380621" lon="10.169775">
        <ele>354.306946</ele>
        <time>2026-04-26T19:32:18.773Z</time>
      </trkpt>
      <trkpt lat="49.380651" lon="10.170199">
        <ele>351.476015</ele>
        <time>2026-04-26T19:32:22.487Z</time>
      </trkpt>
      <trkpt lat="49.380741" lon="10.170476">
        <ele>349.421136</ele>
        <time>2026-04-26T19:32:25.211Z</time>
      </trkpt>
      <trkpt lat="49.380570" lon="10.170648">
        <ele>347.337146</ele>
        <time>2026-04-26T19:32:28.029Z</time>
      </trkpt>
      <trkpt lat="49.380431" lon="10.170849">
        <ele>345.390759</ele>
        <time>2026-04-26T19:32:30.722Z</time>
      </trkpt>
      <trkpt lat="49.379957" lon="10.171743">
        <ele>344.433290</ele>
        <time>2026-04-26T19:32:42.784Z</time>
      </trkpt>
      <trkpt lat="49.379553" lon="10.172208">
        <ele>343.881354</ele>
        <time>2026-04-26T19:32:57.235Z</time>
      </trkpt>
      <trkpt lat="49.379493" lon="10.172375">
        <ele>343.745588</ele>
        <time>2026-04-26T19:33:00.935Z</time>
      </trkpt>
      <trkpt lat="49.379480" lon="10.172482">
        <ele>343.668112</ele>
        <time>2026-04-26T19:33:03.097Z</time>
      </trkpt>
      <trkpt lat="49.379456" lon="10.172571">
        <ele>343.599545</ele>
        <time>2026-04-26T19:33:05.028Z</time>
      </trkpt>
      <trkpt lat="49.379380" lon="10.172675">
        <ele>343.488263</ele>
        <time>2026-04-26T19:33:08.250Z</time>
      </trkpt>
      <trkpt lat="49.378841" lon="10.173397">
        <ele>343.419232</ele>
        <time>2026-04-26T19:33:29.192Z</time>
      </trkpt>
      <trkpt lat="49.378722" lon="10.173481">
        <ele>343.456801</ele>
        <time>2026-04-26T19:33:32.609Z</time>
      </trkpt>
      <trkpt lat="49.378616" lon="10.173505">
        <ele>343.487537</ele>
        <time>2026-04-26T19:33:35.195Z</time>
      </trkpt>
      <trkpt lat="49.378406" lon="10.173462">
        <ele>343.548310</ele>
        <time>2026-04-26T19:33:39.860Z</time>
      </trkpt>
      <trkpt lat="49.378232" lon="10.173380">
        <ele>343.600521</ele>
        <time>2026-04-26T19:33:43.696Z</time>
      </trkpt>
      <trkpt lat="49.378149" lon="10.173332">
        <ele>343.625962</ele>
        <time>2026-04-26T19:33:45.507Z</time>
      </trkpt>
      <trkpt lat="49.377891" lon="10.173087">
        <ele>343.712975</ele>
        <time>2026-04-26T19:33:51.769Z</time>
      </trkpt>
      <trkpt lat="49.377606" lon="10.172531">
        <ele>343.672144</ele>
        <time>2026-04-26T19:34:00.633Z</time>
      </trkpt>
      <trkpt lat="49.377468" lon="10.172024">
        <ele>343.469251</ele>
        <time>2026-04-26T19:34:07.109Z</time>
      </trkpt>
      <trkpt lat="49.377466" lon="10.172003">
        <ele>343.461415</ele>
        <time>2026-04-26T19:34:07.372Z</time>
      </trkpt>
      <trkpt lat="49.377348" lon="10.171155">
        <ele>343.141248</ele>
        <time>2026-04-26T19:34:18.495Z</time>
      </trkpt>
      <trkpt lat="49.377207" lon="10.170479">
        <ele>342.879161</ele>
        <time>2026-04-26T19:34:27.930Z</time>
      </trkpt>
      <trkpt lat="49.377094" lon="10.170118">
        <ele>342.937883</ele>
        <time>2026-04-26T19:34:33.942Z</time>
      </trkpt>
      <trkpt lat="49.376931" lon="10.169787">
        <ele>343.669889</ele>
        <time>2026-04-26T19:34:40.485Z</time>
      </trkpt>
      <trkpt lat="49.376787" lon="10.169582">
        <ele>344.201791</ele>
        <time>2026-04-26T19:34:46.413Z</time>
      </trkpt>
      <trkpt lat="49.376625" lon="10.169407">
        <ele>344.738334</ele>
        <time>2026-04-26T19:34:53.319Z</time>
      </trkpt>
      <trkpt lat="49.376593" lon="10.169280">
        <ele>344.978528</ele>
        <time>2026-04-26T19:34:56.490Z</time>
      </trkpt>
      <trkpt lat="49.376610" lon="10.168990">
        <ele>345.492104</ele>
        <time>2026-04-26T19:35:03.751Z</time>
      </trkpt>
      <trkpt lat="49.376627" lon="10.168905">
        <ele>345.648943</ele>
        <time>2026-04-26T19:35:06.142Z</time>
      </trkpt>
      <trkpt lat="49.376652" lon="10.168833">
        <ele>345.792868</ele>
        <time>2026-04-26T19:35:08.040Z</time>
      </trkpt>
      <trkpt lat="49.376689" lon="10.168623">
        <ele>346.176592</ele>
        <time>2026-04-26T19:35:13.301Z</time>
      </trkpt>
      <trkpt lat="49.376644" lon="10.168431">
        <ele>346.536518</ele>
        <time>2026-04-26T19:35:18.130Z</time>
      </trkpt>
      <trkpt lat="49.376602" lon="10.168349">
        <ele>346.720541</ele>
        <time>2026-04-26T19:35:20.499Z</time>
      </trkpt>
      <trkpt lat="49.376343" lon="10.167968">
        <ele>347.740696</ele>
        <time>2026-04-26T19:35:33.326Z</time>
      </trkpt>
      <trkpt lat="49.376043" lon="10.167785">
        <ele>349.425520</ele>
        <time>2026-04-26T19:35:45.780Z</time>
      </trkpt>
      <trkpt lat="49.375745" lon="10.167777">
        <ele>350.981165</ele>
        <time>2026-04-26T19:35:58.035Z</time>
      </trkpt>
      <trkpt lat="49.375419" lon="10.167947">
        <ele>352.778121</ele>
        <time>2026-04-26T19:36:13.733Z</time>
      </trkpt>
      <trkpt lat="49.375042" lon="10.168023">
        <ele>354.762745</ele>
        <time>2026-04-26T19:36:30.399Z</time>
      </trkpt>
      <trkpt lat="49.374886" lon="10.168096">
        <ele>355.613941</ele>
        <time>2026-04-26T19:36:36.483Z</time>
      </trkpt>
      <trkpt lat="49.374389" lon="10.168614">
        <ele>359.334897</ele>
        <time>2026-04-26T19:37:05.199Z</time>
      </trkpt>
      <trkpt lat="49.374195" lon="10.168945">
        <ele>361.363615</ele>
        <time>2026-04-26T19:37:21.906Z</time>
      </trkpt>
      <trkpt lat="49.374067" lon="10.169187">
        <ele>362.783907</ele>
        <time>2026-04-26T19:37:33.769Z</time>
      </trkpt>
      <trkpt lat="49.373809" lon="10.169787">
        <ele>366.059369</ele>
        <time>2026-04-26T19:37:59.727Z</time>
      </trkpt>
      <trkpt lat="49.373552" lon="10.170200">
        <ele>368.661774</ele>
        <time>2026-04-26T19:38:17.073Z</time>
      </trkpt>
      <trkpt lat="49.373463" lon="10.170462">
        <ele>369.618954</ele>
        <time>2026-04-26T19:38:25.659Z</time>
      </trkpt>
      <trkpt lat="49.373380" lon="10.170864">
        <ele>369.655791</ele>
        <time>2026-04-26T19:38:38.544Z</time>
      </trkpt>
      <trkpt lat="49.373343" lon="10.171690">
        <ele>369.728110</ele>
        <time>2026-04-26T19:38:56.027Z</time>
      </trkpt>
      <trkpt lat="49.373303" lon="10.171941">
        <ele>369.750681</ele>
        <time>2026-04-26T19:38:59.450Z</time>
      </trkpt>
      <trkpt lat="49.373285" lon="10.172176">
        <ele>369.771350</ele>
        <time>2026-04-26T19:39:02.172Z</time>
      </trkpt>
      <trkpt lat="49.373340" lon="10.172531">
        <ele>369.803224</ele>
        <time>2026-04-26T19:39:06.043Z</time>
      </trkpt>
      <trkpt lat="49.373501" lon="10.173311">
        <ele>369.015124</ele>
        <time>2026-04-26T19:39:14.121Z</time>
      </trkpt>
      <trkpt lat="49.373776" lon="10.174292">
        <ele>365.473670</ele>
        <time>2026-04-26T19:39:23.980Z</time>
      </trkpt>
      <trkpt lat="49.373799" lon="10.174485">
        <ele>364.823092</ele>
        <time>2026-04-26T19:39:25.772Z</time>
      </trkpt>
      <trkpt lat="49.373753" lon="10.174804">
        <ele>363.739726</ele>
        <time>2026-04-26T19:39:28.796Z</time>
      </trkpt>
      <trkpt lat="49.373519" lon="10.175515">
        <ele>361.098144</ele>
        <time>2026-04-26T19:39:36.783Z</time>
      </trkpt>
      <trkpt lat="49.373297" lon="10.175794">
        <ele>361.364359</ele>
        <time>2026-04-26T19:39:42.128Z</time>
      </trkpt>
      <trkpt lat="49.373255" lon="10.175835">
        <ele>361.525469</ele>
        <time>2026-04-26T19:39:43.262Z</time>
      </trkpt>
      <trkpt lat="49.373200" lon="10.175885">
        <ele>361.732378</ele>
        <time>2026-04-26T19:39:44.793Z</time>
      </trkpt>
      <trkpt lat="49.372303" lon="10.176669">
        <ele>365.073592</ele>
        <time>2026-04-26T19:40:26.921Z</time>
      </trkpt>
      <trkpt lat="49.372265" lon="10.176718">
        <ele>365.234223</ele>
        <time>2026-04-26T19:40:29.477Z</time>
      </trkpt>
      <trkpt lat="49.372170" lon="10.176836">
        <ele>365.629768</ele>
        <time>2026-04-26T19:40:36.340Z</time>
      </trkpt>
      <trkpt lat="49.372290" lon="10.177009">
        <ele>366.162596</ele>
        <time>2026-04-26T19:40:44.973Z</time>
      </trkpt>
      <trkpt lat="49.372776" lon="10.177672">
        <ele>369.143688</ele>
        <time>2026-04-26T19:41:12.685Z</time>
      </trkpt>
      <trkpt lat="49.373077" lon="10.178021">
        <ele>370.975915</ele>
        <time>2026-04-26T19:41:25.396Z</time>
      </trkpt>
      <trkpt lat="49.373483" lon="10.178314">
        <ele>373.155210</ele>
        <time>2026-04-26T19:41:43.158Z</time>
      </trkpt>
      <trkpt lat="49.373726" lon="10.178424">
        <ele>374.385940</ele>
        <time>2026-04-26T19:41:54.765Z</time>
      </trkpt>
      <trkpt lat="49.373980" lon="10.178539">
        <ele>375.903221</ele>
        <time>2026-04-26T19:42:06.866Z</time>
      </trkpt>
      <trkpt lat="49.374077" lon="10.178672">
        <ele>376.883388</ele>
        <time>2026-04-26T19:42:12.591Z</time>
      </trkpt>
      <trkpt lat="49.374106" lon="10.178780">
        <ele>377.456763</ele>
        <time>2026-04-26T19:42:16.060Z</time>
      </trkpt>
      <trkpt lat="49.374110" lon="10.178802">
        <ele>377.568871</ele>
        <time>2026-04-26T19:42:16.668Z</time>
      </trkpt>
      <trkpt lat="49.374113" lon="10.178887">
        <ele>377.986667</ele>
        <time>2026-04-26T19:42:18.891Z</time>
      </trkpt>
      <trkpt lat="49.374089" lon="10.179003">
        <ele>378.584052</ele>
        <time>2026-04-26T19:42:22.499Z</time>
      </trkpt>
      <trkpt lat="49.374016" lon="10.179116">
        <ele>379.365323</ele>
        <time>2026-04-26T19:42:26.805Z</time>
      </trkpt>
      <trkpt lat="49.373915" lon="10.179174">
        <ele>380.178129</ele>
        <time>2026-04-26T19:42:31.699Z</time>
      </trkpt>
      <trkpt lat="49.373804" lon="10.179190">
        <ele>381.018511</ele>
        <time>2026-04-26T19:42:37.385Z</time>
      </trkpt>
      <trkpt lat="49.373470" lon="10.179121">
        <ele>383.558840</ele>
        <time>2026-04-26T19:42:56.404Z</time>
      </trkpt>
      <trkpt lat="49.373150" lon="10.178944">
        <ele>386.122635</ele>
        <time>2026-04-26T19:43:17.680Z</time>
      </trkpt>
      <trkpt lat="49.372967" lon="10.178791">
        <ele>387.693226</ele>
        <time>2026-04-26T19:43:29.432Z</time>
      </trkpt>
      <trkpt lat="49.372974" lon="10.178890">
        <ele>388.181991</ele>
        <time>2026-04-26T19:43:33.477Z</time>
      </trkpt>
      <trkpt lat="49.373485" lon="10.179596">
        <ele>394.474398</ele>
        <time>2026-04-26T19:44:17.511Z</time>
      </trkpt>
      <trkpt lat="49.373512" lon="10.179630">
        <ele>394.801852</ele>
        <time>2026-04-26T19:44:19.885Z</time>
      </trkpt>
      <trkpt lat="49.373528" lon="10.179644">
        <ele>394.974553</ele>
        <time>2026-04-26T19:44:21.065Z</time>
      </trkpt>
      <trkpt lat="49.373636" lon="10.179714">
        <ele>396.073929</ele>
        <time>2026-04-26T19:44:28.571Z</time>
      </trkpt>
      <trkpt lat="49.373730" lon="10.179777">
        <ele>397.035788</ele>
        <time>2026-04-26T19:44:35.262Z</time>
      </trkpt>
      <trkpt lat="49.373800" lon="10.179830">
        <ele>397.767722</ele>
        <time>2026-04-26T19:44:40.561Z</time>
      </trkpt>
      <trkpt lat="49.373817" lon="10.179841">
        <ele>397.940727</ele>
        <time>2026-04-26T19:44:41.858Z</time>
      </trkpt>
      <trkpt lat="49.373860" lon="10.179863">
        <ele>398.365789</ele>
        <time>2026-04-26T19:44:44.841Z</time>
      </trkpt>
      <trkpt lat="49.373905" lon="10.179884">
        <ele>398.806871</ele>
        <time>2026-04-26T19:44:48.134Z</time>
      </trkpt>
      <trkpt lat="49.373913" lon="10.179887">
        <ele>398.884103</ele>
        <time>2026-04-26T19:44:48.654Z</time>
      </trkpt>
      <trkpt lat="49.373935" lon="10.179894">
        <ele>399.094810</ele>
        <time>2026-04-26T19:44:50.175Z</time>
      </trkpt>
      <trkpt lat="49.374370" lon="10.179996">
        <ele>403.221705</ele>
        <time>2026-04-26T19:45:16.881Z</time>
      </trkpt>
      <trkpt lat="49.374403" lon="10.180002">
        <ele>403.533355</ele>
        <time>2026-04-26T19:45:18.801Z</time>
      </trkpt>
      <trkpt lat="49.374501" lon="10.180021">
        <ele>404.459736</ele>
        <time>2026-04-26T19:45:24.445Z</time>
      </trkpt>
      <trkpt lat="49.374722" lon="10.180013">
        <ele>406.429327</ele>
        <time>2026-04-26T19:45:37.112Z</time>
      </trkpt>
      <trkpt lat="49.375089" lon="10.179898">
        <ele>409.515181</ele>
        <time>2026-04-26T19:46:00.380Z</time>
      </trkpt>
      <trkpt lat="49.375196" lon="10.179861">
        <ele>410.418778</ele>
        <time>2026-04-26T19:46:06.936Z</time>
      </trkpt>
      <trkpt lat="49.375463" lon="10.179773">
        <ele>412.668562</ele>
        <time>2026-04-26T19:46:22.909Z</time>
      </trkpt>
      <trkpt lat="49.375659" lon="10.179707">
        <ele>414.321682</ele>
        <time>2026-04-26T19:46:34.395Z</time>
      </trkpt>
      <trkpt lat="49.375919" lon="10.179591">
        <ele>416.552264</ele>
        <time>2026-04-26T19:46:51.192Z</time>
      </trkpt>
      <trkpt lat="49.376871" lon="10.179290">
        <ele>422.306821</ele>
        <time>2026-04-26T19:47:41.263Z</time>
      </trkpt>
      <trkpt lat="49.376983" lon="10.180192">
        <ele>424.499781</ele>
        <time>2026-04-26T19:48:04.404Z</time>
      </trkpt>
      <trkpt lat="49.376994" lon="10.180418">
        <ele>425.041014</ele>
        <time>2026-04-26T19:48:09.057Z</time>
      </trkpt>
      <trkpt lat="49.377022" lon="10.180983">
        <ele>426.394235</ele>
        <time>2026-04-26T19:48:18.896Z</time>
      </trkpt>
      <trkpt lat="49.377051" lon="10.181048">
        <ele>426.582416</ele>
        <time>2026-04-26T19:48:20.061Z</time>
      </trkpt>
      <trkpt lat="49.377055" lon="10.181262">
        <ele>427.093695</ele>
        <time>2026-04-26T19:48:23.267Z</time>
      </trkpt>
      <trkpt lat="49.377056" lon="10.181300">
        <ele>427.144333</ele>
        <time>2026-04-26T19:48:23.834Z</time>
      </trkpt>
      <trkpt lat="49.377061" lon="10.181525">
        <ele>427.437491</ele>
        <time>2026-04-26T19:48:27.284Z</time>
      </trkpt>
      <trkpt lat="49.377062" lon="10.181575">
        <ele>427.502630</ele>
        <time>2026-04-26T19:48:28.056Z</time>
      </trkpt>
      <trkpt lat="49.377079" lon="10.182107">
        <ele>428.196218</ele>
        <time>2026-04-26T19:48:37.346Z</time>
      </trkpt>
      <trkpt lat="49.377081" lon="10.182186">
        <ele>428.299167</ele>
        <time>2026-04-26T19:48:38.833Z</time>
      </trkpt>
      <trkpt lat="49.377083" lon="10.182287">
        <ele>428.430746</ele>
        <time>2026-04-26T19:48:40.689Z</time>
      </trkpt>
      <trkpt lat="49.377092" lon="10.182739">
        <ele>429.019601</ele>
        <time>2026-04-26T19:48:49.531Z</time>
      </trkpt>
      <trkpt lat="49.377068" lon="10.183195">
        <ele>429.615327</ele>
        <time>2026-04-26T19:48:59.171Z</time>
      </trkpt>
      <trkpt lat="49.377055" lon="10.183307">
        <ele>429.763469</ele>
        <time>2026-04-26T19:49:01.702Z</time>
      </trkpt>
      <trkpt lat="49.377050" lon="10.183348">
        <ele>429.817787</ele>
        <time>2026-04-26T19:49:02.632Z</time>
      </trkpt>
      <trkpt lat="49.377578" lon="10.183396">
        <ele>430.974017</ele>
        <time>2026-04-26T19:49:21.967Z</time>
      </trkpt>
      <trkpt lat="49.377793" lon="10.183429">
        <ele>431.639513</ele>
        <time>2026-04-26T19:49:30.250Z</time>
      </trkpt>
      <trkpt lat="49.377901" lon="10.183431">
        <ele>431.972176</ele>
        <time>2026-04-26T19:49:34.430Z</time>
      </trkpt>
      <trkpt lat="49.378273" lon="10.183341">
        <ele>433.132060</ele>
        <time>2026-04-26T19:49:48.611Z</time>
      </trkpt>
      <trkpt lat="49.378352" lon="10.183309">
        <ele>433.383698</ele>
        <time>2026-04-26T19:49:51.723Z</time>
      </trkpt>
      <trkpt lat="49.378482" lon="10.183737">
        <ele>434.330753</ele>
        <time>2026-04-26T19:50:02.806Z</time>
      </trkpt>
      <trkpt lat="49.378630" lon="10.184212">
        <ele>435.386706</ele>
        <time>2026-04-26T19:50:14.642Z</time>
      </trkpt>
      <trkpt lat="49.378656" lon="10.184223">
        <ele>435.469768</ele>
        <time>2026-04-26T19:50:15.529Z</time>
      </trkpt>
      <trkpt lat="49.379250" lon="10.183998">
        <ele>436.233271</ele>
        <time>2026-04-26T19:50:34.617Z</time>
      </trkpt>
      <trkpt lat="49.379400" lon="10.183917">
        <ele>436.233271</ele>
        <time>2026-04-26T19:50:39.113Z</time>
      </trkpt>
      <trkpt lat="49.379413" lon="10.183908">
        <ele>436.233271</ele>
        <time>2026-04-26T19:50:39.566Z</time>
      </trkpt>
      <trkpt lat="49.379382" lon="10.183787">
        <ele>436.233271</ele>
        <time>2026-04-26T19:50:41.934Z</time>
      </trkpt>
      <trkpt lat="49.379434" lon="10.183748">
        <ele>436.233271</ele>
        <time>2026-04-26T19:50:43.715Z</time>
      </trkpt>
      <trkpt lat="49.379439" lon="10.183762">
        <ele>436.233271</ele>
        <time>2026-04-26T19:50:44.036Z</time>
      </trkpt>
      <trkpt lat="49.379476" lon="10.183869">
        <ele>436.233271</ele>
        <time>2026-04-26T19:50:46.297Z</time>
      </trkpt>
      <trkpt lat="49.379508" lon="10.183966">
        <ele>436.233271</ele>
        <time>2026-04-26T19:50:48.527Z</time>
      </trkpt>
      <trkpt lat="49.379517" lon="10.183993">
        <ele>436.233271</ele>
        <time>2026-04-26T19:50:49.145Z</time>
      </trkpt>
      <trkpt lat="49.379654" lon="10.184399">
        <ele>436.233271</ele>
        <time>2026-04-26T19:50:57.917Z</time>
      </trkpt>
      <trkpt lat="49.379703" lon="10.184505">
        <ele>436.233271</ele>
        <time>2026-04-26T19:51:00.126Z</time>
      </trkpt>
      <trkpt lat="49.379785" lon="10.184408">
        <ele>436.233271</ele>
        <time>2026-04-26T19:51:03.588Z</time>
      </trkpt>
      <trkpt lat="49.379825" lon="10.184531">
        <ele>436.233271</ele>
        <time>2026-04-26T19:51:06.507Z</time>
      </trkpt>
      <trkpt lat="49.379763" lon="10.184610">
        <ele>436.233271</ele>
        <time>2026-04-26T19:51:08.526Z</time>
      </trkpt>
      <trkpt lat="49.379886" lon="10.185097">
        <ele>436.233271</ele>
        <time>2026-04-26T19:51:16.635Z</time>
      </trkpt>
      <trkpt lat="49.379897" lon="10.185137">
        <ele>436.233271</ele>
        <time>2026-04-26T19:51:17.282Z</time>
      </trkpt>
      <trkpt lat="49.379942" lon="10.185334">
        <ele>436.233271</ele>
        <time>2026-04-26T19:51:20.316Z</time>
      </trkpt>
      <trkpt lat="49.379981" lon="10.185519">
        <ele>436.233271</ele>
        <time>2026-04-26T19:51:23.107Z</time>
      </trkpt>
      <trkpt lat="49.379992" lon="10.185575">
        <ele>436.233271</ele>
        <time>2026-04-26T19:51:23.917Z</time>
      </trkpt>
      <trkpt lat="49.380033" lon="10.185787">
        <ele>436.233271</ele>
        <time>2026-04-26T19:51:27.028Z</time>
      </trkpt>
    </trkseg>
  </trk>
</gpx>